[[{"header":{"parameterUnit":"m.s-1","parameterCategory":1,"la1":30.6,"la2":28.766,"lo1":-90.7593,"lo2":-88.6598,"dy":0.0162,"dx":0.0183,"nx":116,"ny":114,"refTime":"2024-06-02T00:00:00:Z","depth":0,"parameterNumber":2,"parameterNumberName":"U-component_of_WINDS"},"data":[0.0,0.0,0.0,0.0,0.0,0.0,0.0,0.0,0.0,0.0,0.0,0.0,0.0,0.0,0.0,0.0,0.0,0.0,0.0,0.0,0.0,0.0,0.0,0.0,0.0,0.0,0.0,0.0,0.0,0.0,0.0,0.0,0.0,0.0,0.0,0.0,0.0,0.0,0.0,0.0,0.0,0.0,0.0,0.0,0.0,0.0,0.0,0.0,0.0,0.0,0.0,0.0,0.0,0.0,0.0,0.0,0.0,0.0,0.0,0.0,0.0,0.0,0.0,0.0,0.0,0.0,0.0,0.0,0.0,0.0,0.0,0.0,0.0,0.0,0.0,0.0,0.0,0.0,0.0,0.0,0.0,0.0,0.0,0.0,0.0,0.0,0.0,0.0,0.0,0.0,0.0,0.0,0.0,0.0,0.0,0.0,0.0,0.0,0.0,0.0,0.0,0.0,0.0,0.0,0.0,0.0,0.0,0.0,0.0,0.0,0.0,0.0,0.0,0.0,0.0,0.0,0.0,0.0,0.0,0.0,0.0,0.0,0.0,0.0,0.0,0.0,0.0,0.0,0.0,0.0,0.0,0.0,0.0,0.0,0.0,0.0,0.0,0.0,0.0,0.0,0.0,0.0,0.0,0.0,0.0,0.0,0.0,0.0,0.0,0.0,0.0,0.0,0.0,0.0,0.0,0.0,0.0,0.0,0.0,0.0,0.0,0.0,0.0,0.0,0.0,0.0,0.0,0.0,0.0,0.0,0.0,0.0,0.0,0.0,0.0,0.0,0.0,0.0,0.0,0.0,0.0,0.0,0.0,0.0,0.0,0.0,0.0,0.0,0.0,0.0,0.0,0.0,0.0,0.0,0.0,0.0,0.0,0.0,0.0,0.0,0.0,0.0,0.0,0.0,0.0,0.0,0.0,0.0,0.0,0.0,0.0,0.0,0.0,0.0,0.0,0.0,0.0,0.0,0.0,0.0,0.0,0.0,0.0,0.0,0.0,0.0,0.0,0.0,0.0,0.0,0.0,0.0,0.0,0.0,0.0,0.0,0.0,0.0,0.0,0.0,0.0,0.0,0.0,0.0,0.0,0.0,0.0,0.0,0.0,0.0,0.0,0.0,0.0,0.0,0.0,0.0,0.0,0.0,0.0,0.0,0.0,0.0,0.0,0.0,0.0,0.0,0.0,0.0,0.0,0.0,0.0,0.0,0.0,0.0,0.0,0.0,0.0,0.0,0.0,0.0,0.0,0.0,0.0,0.0,0.0,0.0,0.0,0.0,0.0,0.0,0.0,0.0,0.0,0.0,0.0,0.0,0.0,0.0,0.0,0.0,0.0,0.0,0.0,0.0,0.0,0.0,0.0,0.0,0.0,0.0,0.0,0.0,0.0,0.0,0.0,0.0,0.0,0.0,0.0,0.0,0.0,0.0,0.0,0.0,0.0,0.0,0.0,0.0,0.0,0.0,0.0,0.0,0.0,0.0,0.0,0.0,0.0,0.0,0.0,0.0,0.0,0.0,0.0,0.0,0.0,0.0,0.0,0.0,0.0,0.0,0.0,0.0,0.0,0.0,0.0,0.0,0.0,0.0,0.0,0.0,0.0,0.0,0.0,0.0,0.0,0.0,0.0,0.0,0.0,0.0,0.0,0.0,0.0,0.0,0.0,0.0,0.0,0.0,0.0,0.0,0.0,0.0,0.0,0.0,0.0,0.0,0.0,0.0,0.0,0.0,0.0,0.0,0.0,0.0,0.0,0.0,0.0,0.0,0.0,0.0,0.0,0.0,0.0,0.0,0.0,0.0,0.0,0.0,0.0,0.0,0.0,0.0,0.0,0.0,0.0,0.0,0.0,0.0,0.0,0.0,0.0,0.0,0.0,0.0,0.0,0.0,0.0,0.0,0.0,0.0,0.0,0.0,0.0,0.0,0.0,0.0,0.0,0.0,0.0,0.0,0.0,0.0,0.0,0.0,0.0,0.0,0.0,0.0,0.0,0.0,0.0,0.0,0.0,0.0,0.0,0.0,0.0,0.0,0.0,0.0,0.0,0.0,0.0,0.0,0.0,0.0,0.0,0.0,0.0,0.0,0.0,0.0,0.0,0.0,0.0,0.0,0.0,0.0,0.0,0.0,0.0,0.0,0.0,0.0,0.0,0.0,0.0,0.0,0.0,0.0,0.0,0.0,0.0,0.0,0.0,0.0,0.0,0.0,0.0,0.0,0.0,0.0,0.0,0.0,0.0,0.0,0.0,0.0,0.0,0.0,0.0,0.0,0.0,0.0,0.0,0.0,0.0,0.0,0.0,0.0,0.0,0.0,0.0,0.0,0.0,0.0,0.0,0.0,0.0,0.0,0.0,0.0,0.0,0.0,0.0,0.0,0.0,0.0,0.0,0.0,0.0,0.0,0.0,0.0,0.0,0.0,0.0,0.0,0.0,0.0,0.0,0.0,0.0,0.0,0.0,0.0,0.0,0.0,0.0,0.0,0.0,0.0,0.0,0.0,0.0,0.0,0.0,0.0,0.0,0.0,0.0,0.0,0.0,0.0,0.0,0.0,0.0,0.0,0.0,0.0,0.0,0.0,0.0,0.0,0.0,0.0,0.0,0.0,0.0,0.0,0.0,0.0,0.0,0.0,0.0,0.0,0.0,0.0,0.0,0.0,0.0,0.0,0.0,0.0,0.0,0.0,0.0,0.0,0.0,0.0,0.0,0.0,0.0,0.0,0.0,0.0,0.0,0.0,0.0,0.0,0.0,0.0,0.0,0.0,0.0,0.0,0.0,0.0,0.0,0.0,0.0,0.0,0.0,0.0,0.0,0.0,0.0,0.0,0.0,0.0,0.0,0.0,0.0,0.0,0.0,0.0,0.0,0.0,0.0,0.0,0.0,0.0,0.0,0.0,0.0,0.0,0.0,0.0,0.0,0.0,0.0,0.0,0.0,0.0,0.0,0.0,0.0,0.0,0.0,0.0,0.0,0.0,0.0,0.0,0.0,0.0,0.0,0.0,0.0,0.0,0.0,0.0,0.0,0.0,0.0,0.0,0.0,0.0,0.0,0.0,0.0,0.0,0.0,0.0,0.0,0.0,0.0,0.0,0.0,0.0,0.0,0.0,0.0,0.0,0.0,0.0,0.0,0.0,0.0,0.0,0.0,0.0,0.0,0.0,0.0,0.0,0.0,0.0,0.0,0.0,0.0,0.0,0.0,0.0,0.0,0.0,0.0,0.0,0.0,0.0,0.0,0.0,0.0,0.0,0.0,0.0,0.0,0.0,0.0,0.0,0.0,0.0,0.0,0.0,0.0,0.0,0.0,0.0,0.0,0.0,0.0,0.0,0.0,0.0,0.0,0.0,0.0,0.0,0.0,0.0,0.0,0.0,0.0,0.0,0.0,0.0,0.0,0.0,0.0,0.0,0.0,0.0,0.0,0.0,0.0,0.0,0.0,0.0,0.0,0.0,0.0,0.0,0.0,0.0,0.0,0.0,0.0,0.0,0.0,0.0,0.0,0.0,0.0,0.0,0.0,0.0,0.0,0.0,0.0,0.0,0.0,0.0,0.0,0.0,0.0,0.0,0.0,0.0,0.0,0.0,0.0,0.0,0.0,0.0,0.0,0.0,0.0,0.0,0.0,0.0,0.0,0.0,0.0,0.0,0.0,0.0,0.0,0.0,0.0,0.0,0.0,0.0,0.0,0.0,0.0,0.0,0.0,0.0,0.0,0.0,0.0,0.0,0.0,0.0,0.0,0.0,0.0,0.0,0.0,0.0,0.0,0.0,0.0,0.0,0.0,0.0,0.0,0.0,0.0,0.0,0.0,0.0,0.0,0.0,0.0,0.0,0.0,0.0,0.0,0.0,0.0,0.0,0.0,0.0,0.0,0.0,0.0,0.0,0.0,0.0,0.0,0.0,0.0,0.0,0.0,0.0,0.0,0.0,0.0,0.0,0.0,0.0,0.0,0.0,0.0,0.0,0.0,0.0,0.0,0.0,0.0,0.0,0.0,0.0,0.0,0.0,0.0,0.0,0.0,0.0,0.0,0.0,0.0,0.0,0.0,0.0,0.0,0.0,0.0,0.0,0.0,0.0,0.0,0.0,0.0,0.0,0.0,0.0,0.0,0.0,0.0,0.0,0.0,0.0,0.0,0.0,0.0,0.0,0.0,0.0,0.0,0.0,0.0,0.0,0.0,0.0,0.0,0.0,0.0,0.0,0.0,0.0,0.0,0.0,0.0,0.0,0.0,0.0,0.0,0.0,0.0,0.0,0.0,0.0,0.0,0.0,0.0,0.0,0.0,0.0,0.0,0.0,0.0,0.0,0.0,0.0,0.0,0.0,0.0,0.0,0.0,0.0,0.0,0.0,0.0,0.0,0.0,0.0,0.0,0.0,0.0,0.0,0.0,0.0,0.0,0.0,0.0,0.0,0.0,0.0,0.0,0.0,0.0,0.0,0.0,0.0,0.0,0.0,0.0,0.0,0.0,0.0,0.0,0.0,0.0,0.0,0.0,0.0,0.0,0.0,0.0,0.0,0.0,0.0,0.0,0.0,0.0,0.0,0.0,0.0,0.0,0.0,0.0,0.0,0.0,0.0,0.0,0.0,0.0,0.0,0.0,0.0,0.0,0.0,0.0,0.0,0.0,0.0,0.0,0.0,0.0,0.0,0.0,0.0,0.0,0.0,0.0,0.0,0.0,0.0,0.0,0.0,0.0,0.0,0.0,0.0,0.0,0.0,0.0,0.0,0.0,0.0,0.0,0.0,0.0,0.0,0.0,0.0,0.0,0.0,0.0,0.0,0.0,0.0,0.0,0.0,0.0,0.0,0.0,0.0,0.0,0.0,0.0,0.0,0.0,0.0,0.0,0.0,0.0,0.0,0.0,0.0,0.0,0.0,0.0,0.0,0.0,0.0,0.0,0.0,0.0,0.0,0.0,0.0,0.0,0.0,0.0,0.0,0.0,0.0,0.0,0.0,0.0,0.0,0.0,0.0,0.0,0.0,0.0,0.0,0.0,0.0,0.0,0.0,0.0,0.0,0.0,0.0,0.0,0.0,0.0,0.0,0.0,0.0,0.0,0.0,0.0,0.0,0.0,0.0,0.0,0.0,0.0,0.0,0.0,0.0,0.0,0.0,0.0,0.0,0.0,0.0,0.0,0.0,0.0,0.0,0.0,0.0,0.0,0.0,0.0,0.0,0.0,0.0,0.0,0.0,0.0,0.0,0.0,0.0,0.0,0.0,0.0,0.0,0.0,0.0,0.0,0.0,0.0,0.0,0.0,0.0,0.0,0.0,0.0,0.0,0.0,0.0,0.0,0.0,0.0,0.0,0.0,0.0,0.0,0.0,0.0,0.0,0.0,0.0,0.0,0.0,0.0,0.0,0.0,0.0,0.0,0.0,0.0,0.0,0.0,0.0,0.0,0.0,0.0,0.0,0.0,0.0,0.0,0.0,0.0,0.0,0.0,0.0,0.0,0.0,0.0,0.0,0.0,0.0,0.0,0.0,0.0,0.0,0.0,0.0,0.0,0.0,0.0,0.0,0.0,0.0,0.0,0.0,0.0,0.0,0.0,0.0,0.0,0.0,0.0,0.0,0.0,0.0,0.0,0.0,0.0,0.0,0.0,0.0,0.0,0.0,0.0,0.0,0.0,0.0,0.0,0.0,0.0,0.0,0.0,0.0,0.0,0.0,0.0,0.0,0.0,0.0,0.0,0.0,0.0,0.0,0.0,0.0,0.0,0.0,0.0,0.0,0.0,0.0,0.0,0.0,0.0,0.0,0.0,0.0,0.0,0.0,0.0,0.0,0.0,0.0,0.0,0.0,0.0,0.0,0.0,0.0,0.0,0.0,0.0,0.0,0.0,0.0,0.0,0.0,0.0,0.0,0.0,0.0,0.0,0.0,0.0,0.0,0.0,0.0,0.0,0.0,0.0,0.0,0.0,0.0,0.0,0.0,0.0,0.0,0.0,0.0,0.0,0.0,0.0,0.0,0.0,0.0,0.0,0.0,0.0,0.0,0.0,0.0,0.0,0.0,0.0,0.0,0.0,0.0,0.0,0.0,0.0,0.0,0.0,0.0,0.0,0.0,0.0,0.0,0.0,0.0,0.0,0.0,-2.1381,0.0,0.0,0.0,0.0,0.0,0.0,0.0,0.0,0.0,0.0,0.0,0.0,0.0,0.0,0.0,0.0,0.0,0.0,0.0,0.0,0.0,0.0,0.0,0.0,-1.1412,-1.2155,-1.2966,-1.3388,-1.3595,-1.3605,0.0,0.0,0.0,0.0,0.0,-1.1937,-1.2318,-1.27,-1.3133,-1.3963,-1.4958,-1.6062,-1.5667,-1.4691,-1.3215,0.0,0.0,0.0,0.0,0.0,0.0,0.0,0.0,0.0,0.0,0.0,0.0,0.0,0.0,0.0,0.0,0.0,0.0,0.0,0.0,0.0,0.0,0.0,0.0,0.0,0.0,0.0,0.0,0.0,0.0,0.0,0.0,0.0,0.0,0.0,0.0,0.0,0.0,0.0,0.0,0.0,0.0,0.0,0.0,0.0,0.0,0.0,0.0,0.0,0.0,0.0,0.0,0.0,0.0,0.0,0.0,0.0,0.0,0.0,0.0,0.0,0.0,0.0,0.0,0.0,0.0,0.0,0.0,0.0,0.0,0.0,-2.3576,0.0,0.0,0.0,0.0,0.0,0.0,0.0,0.0,0.0,0.0,0.0,0.0,0.0,0.0,0.0,0.0,0.0,0.0,0.0,0.0,0.0,-1.0566,-1.1494,-1.2793,-1.37,-1.3977,-1.4606,-1.4658,-1.3864,-1.3812,0.0,0.0,0.0,-1.338,-1.2904,-1.3538,-1.4349,-1.5296,-1.644,-1.8204,-2.0497,-2.0363,-1.8976,-1.6563,-1.543,0.0,0.0,0.0,0.0,0.0,0.0,0.0,0.0,0.0,0.0,0.0,0.0,0.0,0.0,0.0,0.0,0.0,0.0,0.0,0.0,0.0,0.0,0.0,0.0,0.0,0.0,0.0,0.0,0.0,0.0,0.0,0.0,0.0,0.0,0.0,0.0,0.0,0.0,0.0,0.0,0.0,0.0,0.0,0.0,0.0,0.0,0.0,0.0,0.0,0.0,0.0,0.0,0.0,0.0,0.0,0.0,0.0,0.0,0.0,0.0,0.0,0.0,0.0,-3.1598,-3.2335,-3.2195,-3.2195,-3.2195,-3.2055,-2.9527,-2.7964,-2.709,0.0,0.0,0.0,0.0,0.0,0.0,0.0,0.0,0.0,0.0,0.0,0.0,0.0,0.0,0.0,0.0,0.0,0.0,0.0,0.0,-1.0756,-1.2196,-1.3104,-1.4149,-1.5477,-1.5692,-1.5434,-1.4684,-1.4632,0.0,-1.3639,-1.3605,-1.3881,-1.4476,-1.4606,-1.5384,-1.6908,-1.9104,-2.1393,-2.3689,-2.2979,-2.2803,-2.2938,-2.0181,-1.8941,-1.8801,0.0,0.0,0.0,0.0,0.0,0.0,0.0,0.0,0.0,0.0,0.0,0.0,0.0,0.0,0.0,0.0,0.0,0.0,0.0,0.0,0.0,0.0,0.0,0.0,0.0,0.0,0.0,0.0,0.0,0.0,0.0,0.0,0.0,0.0,0.0,0.0,0.0,0.0,0.0,0.0,0.0,-1.9538,-2.12,0.0,0.0,0.0,0.0,0.0,0.0,0.0,0.0,0.0,0.0,0.0,0.0,0.0,-2.893,-3.058,-3.2704,-3.3828,-3.3969,-3.6145,-3.6865,-3.6234,-3.6234,-3.6234,-3.6217,-3.5813,0.0,-2.9579,-2.8667,0.0,0.0,0.0,0.0,0.0,0.0,0.0,0.0,0.0,0.0,0.0,0.0,0.0,0.0,0.0,0.0,0.0,0.0,0.0,0.0,0.0,-1.496,-1.627,-1.6502,-1.7311,-1.7304,-1.6107,-1.5641,-1.5081,-1.4321,-1.4269,-1.4442,-1.4787,-1.6067,-1.8162,-2.1121,-2.3112,-2.5033,-2.689,-2.6525,-2.6542,-2.6838,-2.5472,-2.3435,-2.0901,-1.9408,0.0,0.0,0.0,0.0,0.0,0.0,0.0,0.0,0.0,0.0,0.0,0.0,0.0,0.0,0.0,0.0,0.0,0.0,0.0,0.0,0.0,0.0,0.0,0.0,0.0,0.0,0.0,0.0,0.0,0.0,0.0,0.0,0.0,0.0,0.0,0.0,0.0,0.0,0.0,-1.8931,-2.1715,-2.1972,-2.2447,-2.23,0.0,0.0,0.0,0.0,0.0,0.0,0.0,0.0,0.0,-3.0912,-3.1739,-3.309,-3.5056,-3.611,-3.6847,-3.7303,-3.876,-3.929,-3.8974,-3.8974,-3.8974,-3.8939,-3.848,-3.7145,-3.5055,-3.2529,-3.0827,-2.972,0.0,0.0,0.0,0.0,-2.7927,-2.7789,0.0,0.0,0.0,0.0,0.0,0.0,0.0,0.0,0.0,0.0,0.0,0.0,-1.4356,-1.671,-1.8114,-1.7897,-1.8913,-1.9016,-1.7673,-1.6898,-1.6149,-1.54,-1.5176,-1.5262,-1.5659,-1.8312,-2.137,-2.4777,-2.6409,-2.7877,-2.9211,-2.9211,-2.9211,-2.9211,-2.9211,-2.7069,-2.3377,-2.2201,-2.0556,-1.8605,0.0,0.0,0.0,0.0,0.0,0.0,0.0,0.0,0.0,0.0,0.0,0.0,0.0,0.0,0.0,0.0,0.0,0.0,0.0,0.0,0.0,0.0,0.0,0.0,0.0,0.0,0.0,0.0,0.0,0.0,0.0,0.0,0.0,0.0,0.0,0.0,0.0,-2.1545,-2.3791,-2.3242,-2.4888,-2.538,0.0,0.0,0.0,0.0,0.0,0.0,-2.9141,-3.1405,-3.3283,-3.4618,-3.546,-3.6794,-3.869,-3.8708,-3.9111,-3.9901,-4.0498,-4.0783,-4.0783,-4.0783,-4.0783,-4.0766,-4.0147,-3.9901,-3.9638,-3.6126,-3.4231,-3.3441,-3.209,-3.144,-3.137,-3.2107,-3.2037,-3.1844,0.0,0.0,0.0,0.0,0.0,0.0,0.0,0.0,0.0,0.0,0.0,-1.4382,-1.6588,-1.7649,-1.8752,-2.0102,-2.0308,-2.0015,-1.9252,-1.8493,-1.7735,-1.6915,-1.6226,-1.6528,-1.7993,-2.1821,-2.4658,-2.6384,-2.7987,-2.9228,-3.0053,-3.0053,-3.0053,-3.0053,-3.0053,-2.907,-2.7262,-2.5064,-2.3611,-2.2475,-1.8693,0.0,0.0,0.0,0.0,0.0,0.0,0.0,0.0,0.0,0.0,0.0,0.0,0.0,0.0,0.0,0.0,0.0,0.0,0.0,0.0,0.0,0.0,0.0,0.0,0.0,0.0,0.0,0.0,0.0,0.0,0.0,0.0,0.0,0.0,0.0,0.0,0.0,0.0,-2.637,-2.9018,0.0,0.0,0.0,0.0,-2.8667,-3.0791,-3.2441,-3.3178,-3.5425,-3.7077,-3.7848,-3.8655,-3.9498,-4.0379,-4.0379,-4.0744,-4.1481,-4.1534,-4.1552,-4.1552,-4.1552,-4.1552,-4.1552,-4.1499,-4.1481,-4.1306,-3.8883,-3.7426,-3.6691,-3.5846,-3.5092,-3.4547,-3.5302,-3.5547,-3.5634,0.0,0.0,0.0,0.0,0.0,-0.9172,-0.9189,-0.9764,-1.048,-1.1287,-1.3545,-1.558,-1.6863,-1.9027,-2.0596,-2.113,-2.1613,-2.1578,-2.082,-1.9596,-1.8786,-1.8482,-1.781,-1.8866,-2.193,-2.4396,-2.667,-2.8749,-2.9846,-3.0791,-3.1581,-3.1581,-3.1581,-3.1581,-3.1581,-3.0966,-2.979,-2.7455,-2.5752,-2.4318,-2.1469,-1.9398,0.0,0.0,0.0,0.0,0.0,0.0,0.0,0.0,0.0,0.0,0.0,0.0,0.0,0.0,0.0,0.0,0.0,0.0,0.0,0.0,0.0,0.0,0.0,0.0,0.0,0.0,0.0,0.0,0.0,0.0,0.0,0.0,0.0,0.0,0.0,0.0,0.0,-2.8087,-3.0387,0.0,0.0,-3.0668,-3.1651,-3.1861,-3.4039,-3.5671,-3.6406,-3.8234,-3.9378,-3.9642,-4.0375,-4.092,-4.12,-4.12,-4.1341,-4.1604,-4.1604,-4.1604,-4.1604,-4.1604,-4.1604,-4.1604,-4.1604,-4.1604,-4.1552,-4.0709,-3.9919,-3.9167,-3.8374,-3.788,-3.769,-3.795,-3.8038,-3.8091,0.0,0.0,0.0,0.0,-0.9307,-0.9218,-0.9294,-1.0045,-1.1025,-1.2165,-1.4622,-1.6772,-1.8104,-2.031,-2.1764,-2.1953,-2.2496,-2.2595,-2.2005,-2.0785,-2.0079,-2.0079,-2.0125,-2.1645,-2.4809,-2.6662,-2.8524,-3.041,-3.1213,-3.1879,-3.2406,-3.2406,-3.2406,-3.2406,-3.2406,-3.209,-3.1475,-2.965,-2.7982,-2.6384,-2.4067,-2.2394,-2.1006,0.0,0.0,0.0,0.0,0.0,0.0,0.0,0.0,0.0,0.0,0.0,0.0,0.0,0.0,0.0,0.0,0.0,0.0,0.0,0.0,0.0,0.0,0.0,0.0,0.0,0.0,0.0,0.0,0.0,0.0,0.0,0.0,0.0,0.0,0.0,-3.0176,-3.0406,-3.2739,-3.3828,-3.2546,-3.3828,-3.4934,-3.5407,-3.7148,-3.8395,-3.8883,-4.0169,-4.0871,-4.0871,-4.1341,-4.1604,-4.1604,-4.1604,-4.1604,-4.1604,-4.1604,-4.1604,-4.1604,-4.1604,-4.1604,-4.1604,-4.1604,-4.1604,-4.1604,-4.1604,-4.1306,-4.0836,-4.0288,-4.0095,-4.0095,-4.0095,-4.0095,-4.0042,0.0,0.0,0.0,-0.9506,-0.934,-0.9271,-0.9468,-1.0577,-1.2041,-1.3823,-1.5793,-1.7972,-2.0396,-2.1417,-2.2127,-2.2656,-2.2944,-2.2982,-2.2725,-2.1987,-2.1561,-2.1608,-2.3091,-2.4728,-2.6432,-2.8694,-3.0292,-3.123,-3.2037,-3.2423,-3.2406,-3.2441,-3.2458,-3.2423,-3.2423,-3.2423,-3.2371,-3.1581,-3.0369,-2.8807,-2.6455,-2.505,-2.4115,0.0,0.0,0.0,0.0,0.0,0.0,0.0,0.0,0.0,0.0,0.0,0.0,0.0,0.0,0.0,0.0,0.0,0.0,0.0,0.0,0.0,0.0,0.0,0.0,0.0,0.0,0.0,0.0,0.0,0.0,0.0,0.0,0.0,-2.7806,-3.051,-3.2792,-3.3529,-3.6283,-3.7865,-3.7148,-3.8444,-3.9336,-3.9336,-4.0077,-4.0537,-4.0537,-4.12,-4.1604,-4.1604,-4.1604,-4.1604,-4.1604,-4.1604,-4.1604,-4.1604,-4.1604,-4.1604,-4.1604,-4.1604,-4.1604,-4.1604,-4.1604,-4.1604,-4.1604,-4.1604,-4.1604,-4.1604,-4.1604,-4.1604,-4.1604,-4.1604,-4.1604,-4.1499,0.0,0.0,-0.9649,-0.9649,-0.9474,-0.9358,-0.9417,-1.0633,-1.1933,-1.3024,-1.5993,-1.8505,-1.977,-2.144,-2.2535,-2.2694,-2.2764,-2.2868,-2.2982,-2.1569,-2.1017,-2.1636,-2.4902,-2.7154,-2.8109,-2.9856,-3.1182,-3.2072,-3.2844,-3.2915,-3.2423,-3.3529,-3.3775,-3.3213,-3.3213,-3.3213,-3.3161,-3.2388,-3.1826,-3.123,-2.8877,-2.7157,-2.5823,0.0,0.0,0.0,0.0,0.0,0.0,0.0,0.0,0.0,0.0,0.0,0.0,0.0,0.0,0.0,0.0,0.0,0.0,0.0,0.0,0.0,0.0,0.0,0.0,0.0,0.0,0.0,0.0,0.0,0.0,0.0,0.0,-3.0229,-3.0229,-3.2915,-3.5162,-3.5934,-3.7777,-3.8901,-3.869,-3.9568,-4.0186,-4.0186,-4.0867,-4.1306,-4.1306,-4.1499,-4.1604,-4.1604,-4.1604,-4.1604,-4.1604,-4.1604,-4.1604,-4.1604,-4.1604,-4.1604,-4.1604,-4.1604,-4.1604,-4.1604,-4.1604,-4.1604,-4.1604,-4.1604,-4.1604,-4.1604,-4.1604,-4.1604,-4.1604,-4.1604,-4.1604,-4.1569,0.0,-0.9702,-0.9702,-0.9702,-0.9546,-0.9461,-0.9518,-1.0739,-1.2092,-1.3352,-1.6149,-1.8588,-2.0036,-2.1361,-2.217,-2.2224,-2.2501,-2.2488,-2.2113,-2.1809,-2.242,-2.4138,-2.6838,-2.8732,-2.9665,-3.1253,-3.2319,-3.2845,-3.3635,-3.3793,-3.3371,-3.4266,-3.4442,-3.4004,-3.4003,-3.4003,-3.3951,-3.3196,-3.2862,-3.2722,-3.1164,-2.9737,-2.8403,-2.7297,-2.5823,-2.4238,-2.3132,-2.2534,-2.1996,-2.0225,0.0,0.0,0.0,0.0,0.0,0.0,0.0,0.0,0.0,0.0,0.0,0.0,0.0,0.0,0.0,0.0,0.0,0.0,0.0,0.0,0.0,0.0,0.0,0.0,-3.0861,-3.288,-3.3547,-3.5162,-3.6724,-3.783,-3.9041,-3.9919,-4.0235,-4.0691,-4.0955,-4.0955,-4.1358,-4.1604,-4.1604,-4.1604,-4.1604,-4.1604,-4.1604,-4.1604,-4.1604,-4.1938,-4.2113,-4.2113,-4.2113,-4.2113,-4.2096,-4.1762,-4.1604,0.0,-4.1604,-4.1604,-4.1604,-4.1604,-4.1604,0.0,0.0,0.0,0.0,0.0,-4.1604,-4.1604,0.0,-0.9702,-0.9702,-0.9702,-0.9595,-0.9544,-0.9657,-1.0841,-1.2392,-1.4257,-1.6272,-1.8404,-2.0665,-2.1185,-2.1432,-2.1658,-2.2187,-2.2092,-2.1048,-2.2807,-2.5002,-2.751,-2.8711,-2.9818,-3.094,-3.2494,-3.3334,-3.3512,-3.432,-3.4725,-3.4761,-3.492,-3.4955,-3.4884,-3.4884,-3.4866,-3.4776,-3.4004,-3.3653,-3.3512,-3.3142,-3.2277,-3.1102,-2.9748,-2.8727,-2.7813,-2.6223,-2.531,-2.4462,-2.213,0.0,0.0,0.0,0.0,0.0,0.0,0.0,0.0,0.0,0.0,0.0,0.0,0.0,0.0,0.0,0.0,0.0,0.0,0.0,0.0,0.0,0.0,0.0,0.0,-3.3442,-3.5479,-3.6919,-3.7288,-3.7883,-3.9269,-4.013,-4.0889,-4.1552,-4.1604,-4.1604,-4.1604,-4.1604,-4.1639,-4.1745,0.0,0.0,0.0,0.0,-4.178,-4.1868,-4.257,-4.2938,-4.2938,-4.2938,-4.2938,-4.2903,-4.2184,-4.1815,-4.1745,-4.1745,-4.1692,-4.1604,-4.1604,-4.1604,-4.1604,-4.1604,-4.1604,-4.1604,-4.1604,-4.1604,-4.1604,0.0,-0.9702,-0.9702,-0.9702,-0.9595,-0.951,-0.9544,-1.0862,-1.2481,-1.4192,-1.636,-1.8409,-2.0164,-2.0785,-2.1359,-2.2032,-2.2046,-2.22,-2.2605,-2.5339,-2.7023,-2.7205,-2.9812,-3.1293,-3.1373,-3.2073,-3.2774,-3.3494,-3.4302,-3.4853,-3.5118,-3.6363,-3.6648,-3.6079,-3.6079,-3.5881,-3.5567,-3.5066,-3.4495,-3.3908,-3.4085,-3.314,-3.156,-3.1258,-3.0668,-2.9728,-2.7909,-2.7578,-2.7678,-2.5551,-2.4962,-2.4888,-2.3462,-2.2215,0.0,0.0,0.0,0.0,0.0,0.0,0.0,0.0,0.0,0.0,0.0,0.0,0.0,0.0,0.0,0.0,0.0,0.0,0.0,-3.2774,-3.5022,-3.6884,-3.776,-3.8989,-3.994,-4.0239,-4.092,-4.1446,-4.1587,-4.1604,-4.1604,-4.1604,-4.1604,-4.1885,-4.2535,-4.1955,0.0,-4.3412,-4.2886,-4.2851,-4.3447,-4.3605,-4.3693,-4.3693,0.0,0.0,-4.3676,-4.3518,-4.3131,-4.257,-4.257,-4.2201,-4.1604,-4.1604,-4.1604,-4.1604,-4.1604,-4.1604,-4.1604,-4.1604,-4.1604,-4.1604,-0.9706,-0.9702,-0.9702,-0.9702,-0.9649,-0.9603,-0.9603,-1.0977,-1.2584,-1.4234,-1.6142,-1.8076,-1.9993,-2.0174,-2.0379,-2.1006,-2.108,-2.2005,-2.4162,-2.6179,-2.7841,-2.9044,-3.0894,-3.1959,-3.2101,-3.2766,-3.3424,-3.4108,-3.5047,-3.5794,-3.6381,-3.7131,-3.7417,-3.7251,-3.7041,-3.6952,-3.6899,-3.6131,-3.543,-3.4839,-3.4782,-3.3953,-3.2741,-3.2565,-3.1912,-3.0921,-2.958,-2.9011,-2.8642,-2.6965,-2.6523,-2.6518,-2.5477,-2.4302,-2.3031,0.0,0.0,0.0,0.0,0.0,0.0,0.0,0.0,0.0,0.0,0.0,0.0,0.0,0.0,-2.8814,0.0,0.0,-3.3635,-3.5756,-3.6913,-3.7953,-3.9129,-3.9993,-4.0502,-4.0502,-4.1148,-4.1604,-4.1604,-4.1604,-4.1604,-4.1604,-4.1973,-4.2394,-4.2798,-4.278,-4.3096,-4.3869,-4.3535,-4.3535,-4.3904,-4.429,-4.4501,-4.4501,-4.4501,-4.4501,-4.4483,-4.4079,-4.3693,-4.336,-4.336,-4.3131,-4.2728,-4.2359,-4.1973,-4.1604,-4.1604,-4.1604,-4.1604,-4.1604,-4.1604,-4.1604,-0.9739,-0.9732,-0.9717,-0.9702,-0.9702,-0.9702,-0.9702,-1.1071,-1.2627,-1.4077,-1.5668,-1.742,-1.9339,-1.9141,-1.9091,-1.9674,-2.0255,-2.1963,-2.5201,-2.6442,-2.8268,-3.1075,-3.1778,-3.2346,-3.2874,-3.3471,-3.414,-3.4889,-3.5687,-3.6648,-3.7703,-3.7703,-3.7895,-3.8167,-3.7861,-3.7861,-3.803,-3.7194,-3.6432,-3.5763,-3.5467,-3.4746,-3.3823,-3.3396,-3.2672,-3.1763,-3.0894,-2.9828,-2.8682,-2.7638,-2.7324,-2.7259,-2.667,-2.5799,-2.4743,-2.3556,-2.2296,0.0,0.0,0.0,0.0,0.0,0.0,0.0,0.0,0.0,-2.8466,-3.016,-3.1321,-3.2705,-3.476,-3.5199,-3.6021,-3.8417,-3.8536,-3.8851,-4.0401,-4.0672,-4.0713,-4.0713,-4.1236,-4.1604,-4.1604,-4.1604,-4.1604,-4.1604,-4.2201,-4.271,-4.3009,-4.3447,-4.3886,-4.4325,-4.4202,-4.4202,-4.4343,-4.4992,-4.5326,-4.5326,-4.5326,-4.5326,-4.5291,-4.4641,-4.4273,-4.4115,-4.3957,-4.3904,-4.3834,-4.3114,-4.2429,-4.1832,-4.1657,-4.1604,-4.1604,-4.1604,-4.1604,-4.1604,0.0,-0.9823,-0.9772,-0.971,-0.9702,-0.9702,-0.9702,-1.1071,-1.243,-1.3317,-1.4835,-1.6193,-1.7149,-1.7266,-1.7749,-1.8989,-2.0656,-2.263,-2.4988,-2.6846,-2.8972,-3.1439,-3.2122,-3.2794,-3.3564,-3.3168,-3.3815,-3.5582,-3.5409,-3.64,-3.8486,-3.8486,-3.8502,-3.8533,-3.8502,-3.8346,-3.8118,-3.8284,-3.7497,-3.6172,-3.6416,-3.5571,-3.4074,-3.3327,-3.2809,-3.2354,-3.1243,-2.9859,-2.8526,-2.8386,-2.8027,-2.7633,-2.757,-2.7116,-2.633,-2.4789,-2.3648,-2.2922,-2.2888,-2.3473,-2.4627,-2.6833,-2.7,-2.7957,0.0,0.0,-3.2698,-3.5291,-3.6039,-3.6401,-3.6973,-3.7152,-3.7631,-3.9011,-3.9192,-3.9608,-4.0849,-4.1305,-4.1481,-4.1481,-4.1552,-4.1604,-4.1604,-4.1604,-4.1604,-4.1604,-4.1692,-4.2324,-4.3693,-4.3237,-4.3845,-4.5881,-4.5326,-4.5291,-4.5933,-4.6021,-4.6074,-4.6074,-4.6074,-4.6074,-4.6074,-4.5986,-4.5582,-4.4922,-4.4202,-4.3904,-4.3834,-4.3114,-4.2763,-4.2605,-4.1885,-4.1604,-4.1604,-4.1604,-4.1604,-4.1604,0.0,-0.9912,-0.9885,-0.9782,-0.9717,-0.9864,-1.0333,-1.1361,-1.2559,-1.3836,-1.4988,-1.6017,-1.6875,-1.7392,-1.7923,-1.8477,-2.061,-2.2706,-2.456,-2.6797,-2.9146,-3.161,-3.2268,-3.2928,-3.3748,-3.3508,-3.3908,-3.4989,-3.5017,-3.5766,-3.7206,-3.7683,-3.8022,-3.82,-3.8467,-3.8643,-3.8673,-3.8609,-3.7783,-3.6513,-3.6634,-3.5702,-3.4104,-3.3317,-3.2356,-3.1302,-3.0186,-2.9252,0.0,-2.7596,-2.7193,-2.7027,-2.7192,-2.6755,-2.608,-2.541,-2.5271,-2.556,-2.6591,-2.7093,-2.7706,0.0,-3.0392,-3.1775,-3.4179,-3.4884,-3.5443,-3.7063,-3.7665,-3.7992,-3.8327,-3.8093,-3.831,0.0,-3.9742,-4.0088,-4.1535,-4.129,-4.1114,-4.1558,-4.1223,-4.113,-4.1569,-4.1604,-4.1604,-4.1604,-4.2043,-4.278,-4.3834,-4.4044,-4.4758,-4.6161,-4.5898,-4.5881,-4.6196,-4.6196,-4.6196,-4.6196,-4.6196,-4.6196,-4.6196,-4.6196,-4.6021,-4.5705,-4.5372,-4.4992,-4.4536,-4.3763,-4.3202,-4.2728,-4.192,-4.1604,-4.1604,-4.1604,-4.1604,-4.1604,0.0,-0.9971,-0.9965,-0.9882,-0.9991,-1.0287,-1.081,-1.1576,-1.26,-1.3994,-1.4865,-1.5631,-1.6263,-1.7056,-1.7628,-1.7881,-1.9989,-2.2094,-2.3948,-2.6182,-2.8542,-3.1032,-3.1942,-3.2766,-3.3558,-3.3718,-3.4124,-3.4787,-3.4883,-3.5404,-3.6348,-3.6918,-3.7341,-3.7578,-3.7913,-3.8219,-3.8419,-3.819,-3.7424,-3.6383,-3.6383,-3.5349,-3.3751,-3.2741,-3.1478,-3.0174,-2.9381,-2.8517,-2.7576,-2.6605,-2.6291,-2.6321,-2.6506,-2.6163,-2.5801,-2.6219,-2.6776,-2.7501,-2.8709,-2.9378,0.0,-3.1273,-3.3262,-3.494,-3.5163,-3.6333,-3.7522,-3.8098,-3.8506,-3.8807,-3.9059,-3.8628,-3.8743,-4.0307,-4.0238,-4.0533,-4.2147,-4.1372,-4.0892,-4.1522,-4.0953,-4.0756,-4.137,-4.153,-4.1604,-4.1604,-4.2148,-4.2886,-4.3851,-4.4448,-4.522,-4.6161,-4.6196,-4.6196,-4.6196,-4.6196,-4.6196,-4.6196,-4.6196,-4.6196,-4.6196,-4.6196,-4.6196,-4.6196,-4.6196,-4.5898,-4.5343,-4.4325,-4.3588,-4.3009,-4.199,-4.1604,-4.1604,-4.1604,-4.1604,-4.1604,0.0,0.0,-0.9991,-0.9989,-1.0632,-1.1103,-1.0932,-1.1576,-1.2398,-1.3237,-1.4037,-1.4569,-1.4653,-1.5388,-1.622,-1.7059,-1.864,-2.0622,-2.3077,-2.4826,-2.6879,-2.9359,-3.0984,-3.221,-3.3008,-3.3528,-3.4344,-3.5466,-3.515,-3.5588,-3.6686,-3.671,-3.6723,-3.6736,-3.676,-3.676,-3.676,-3.676,-3.6296,-3.5547,-3.5547,-3.4525,-3.2871,-3.1273,-3.0158,-2.9434,-2.9396,-2.7844,-2.5773,-2.5745,-2.5708,-2.5736,-2.5736,-2.5726,0.0,-2.7575,-2.804,-2.8077,-2.8133,0.0,-3.1125,-3.3491,-3.538,-3.6829,-3.7596,-3.8432,-3.9027,-3.9064,-3.9069,-3.9087,-3.9101,-3.8807,-3.9095,-4.073,-4.063,-4.0926,-4.2556,-4.1815,-4.1214,-4.1559,-4.0953,-4.0634,0.0,-4.1368,-4.1604,-4.1604,-4.1622,-4.2306,-4.3816,-4.3921,-4.4641,-4.6144,-4.6196,-4.6196,-4.6196,-4.6196,-4.6196,-4.6196,-4.6196,-4.6196,-4.6196,-4.6196,-4.6196,-4.6196,-4.6196,-4.6196,-4.6056,-4.4536,-4.3886,-4.3711,-4.2184,-4.1604,-4.1604,-4.1604,-4.1604,-4.1604,0.0,0.0,0.0,-1.1566,-1.189,-1.2202,-1.2628,-1.2879,-1.3337,-1.4175,-1.4963,0.0,0.0,0.0,0.0,0.0,-1.9414,-2.0949,-2.2304,-2.3962,-2.5745,-2.765,-2.9322,-3.0586,-3.1385,-3.211,-3.2666,-3.3057,-3.3463,-3.387,-3.4284,-3.538,-3.59,-3.5937,-3.6458,-3.6699,-3.6699,-3.6699,-3.6551,-3.6197,-3.5101,-3.429,-3.3547,-3.1422,-2.9415,-2.7668,0.0,-2.608,-2.4816,-2.4241,-2.4046,-2.4139,-2.4714,-2.4908,-2.5317,-2.7464,-2.8096,-2.8579,-3.0772,0.0,-3.3436,-3.538,-3.6668,-3.7708,-3.8507,-3.8915,-3.8952,-3.8414,-3.8302,-3.8135,-3.7596,-3.7849,-3.8596,-3.9974,-4.0538,-4.1367,-4.2975,-4.199,-4.1427,-4.2279,-4.1274,0.0,0.0,0.0,0.0,-4.1604,-4.1604,-4.2271,-4.3816,-4.3904,-4.4606,-4.6144,-4.6196,-4.6196,-4.6196,-4.6196,-4.6196,-4.6196,-4.6196,-4.6196,-4.6196,-4.6196,-4.6196,-4.6196,-4.6196,-4.6196,-4.6126,-4.5115,-4.4378,-4.3799,-4.2798,-4.2078,-4.1604,-4.1604,-4.1604,-4.1604,0.0,0.0,0.0,0.0,0.0,0.0,0.0,0.0,0.0,0.0,0.0,0.0,0.0,0.0,0.0,0.0,0.0,-2.0715,-2.1513,-2.2848,-2.4212,-2.5522,-2.7185,-2.8319,-2.8839,-2.9638,-3.0344,-3.0939,-3.1459,-3.2017,-3.2593,-3.367,-3.4191,-3.4209,-3.4729,-3.4952,-3.4952,-3.4952,-3.4952,-3.4841,-3.3466,-3.2741,-3.2221,-2.9787,-2.7668,0.0,-2.4454,-2.3618,-2.3097,-2.2524,-2.272,-2.3295,-2.3851,-2.5048,-2.6563,-2.8114,-2.8969,-3.0084,-3.3076,-3.4284,-3.5138,-3.7058,-3.7949,-3.8451,-3.8971,-3.8878,-3.8432,-3.7634,-3.7225,-3.6792,-3.5974,-3.6222,-3.7081,-3.8652,-3.9687,-4.0946,-4.2725,-4.2141,-4.185,-4.2687,-4.1577,0.0,0.0,0.0,0.0,-4.1604,-4.1604,-4.2271,-4.3816,-4.3904,-4.4606,-4.6144,-4.6196,-4.6196,-4.6196,-4.6196,-4.6196,-4.6196,-4.6196,-4.6196,-4.6196,-4.6196,-4.6196,-4.6196,-4.6196,-4.6196,-4.6144,-4.5414,-4.4624,-4.3834,-4.3096,-4.2324,-4.1604,-4.1604,-4.1604,-4.1604,0.0,0.0,0.0,0.0,0.0,0.0,0.0,0.0,0.0,0.0,0.0,0.0,0.0,0.0,0.0,0.0,0.0,0.0,-2.0678,-2.1495,-2.2274,-2.3036,-2.4687,-2.5569,-2.5569,-2.6349,-2.7557,-2.9147,-2.9192,-3.001,-3.1552,-3.1589,-3.1626,-3.1682,-3.1682,-3.1682,-3.1682,-3.1682,-3.1682,-3.1608,-3.0753,-2.9954,-2.9016,-2.6581,-2.5113,-2.4072,-2.1707,-2.0827,-2.0808,-2.0901,-2.2052,-2.3444,-2.3444,-2.6191,-2.9425,-2.9489,-3.066,-3.2462,-3.4897,-3.5621,-3.6235,-3.8525,-3.9101,-3.9082,-3.9045,-3.8414,-3.7578,-3.6686,-3.5882,-3.5027,0.0,0.0,-3.4858,-3.6886,-3.8334,-3.9933,-4.1948,-4.2301,-4.2486,0.0,0.0,0.0,0.0,0.0,0.0,-4.1604,0.0,-4.2271,-4.3816,-4.3904,-4.4606,-4.6144,-4.6196,-4.6196,-4.6196,-4.6196,-4.6196,-4.6196,-4.6196,-4.6196,-4.6196,-4.6196,-4.6196,-4.6196,-4.6196,-4.6196,-4.6144,-4.5449,-4.4659,-4.3816,-4.3154,-4.2364,-4.1604,-4.1626,-4.1626,-4.1604,0.0,0.0,0.0,0.0,0.0,0.0,0.0,0.0,0.0,0.0,0.0,0.0,0.0,0.0,0.0,0.0,0.0,0.0,-1.9887,-2.066,-2.1198,-2.1402,-2.2969,-2.3842,-2.3842,-2.4677,-2.5317,-2.5745,-2.6358,-2.7148,-2.8152,-2.8765,-2.9396,-3.001,-3.001,-3.001,-3.001,-3.001,-3.001,-2.988,-2.843,-2.7724,-2.7334,-2.5503,-2.3896,-2.2542,-2.1922,-2.1309,-2.0975,-2.2182,0.0,0.0,0.0,-2.8021,-2.9638,0.0,0.0,-3.3993,-3.5882,-3.7262,-3.8321,-3.8952,-3.9101,-3.8934,-3.8339,-3.7578,-3.642,-3.4376,-3.3299,-3.2314,0.0,0.0,0.0,-3.5766,-3.8767,0.0,-4.2505,-4.2912,0.0,-4.3658,0.0,-4.2389,-4.2483,-4.2215,0.0,0.0,-4.1604,-4.2271,-4.3816,-4.3904,-4.4606,-4.6144,-4.6196,-4.6196,-4.6196,-4.6196,-4.6196,-4.6196,-4.6196,-4.6196,-4.6196,-4.6196,-4.6196,-4.6196,-4.6196,-4.6196,-4.6196,-4.6003,-4.5133,-4.3915,-4.4028,-4.3059,-4.1648,-4.1941,-4.1852,-4.1604,0.0,0.0,0.0,0.0,0.0,0.0,0.0,0.0,0.0,0.0,0.0,0.0,0.0,0.0,0.0,0.0,0.0,0.0,0.0,-2.0017,-2.027,-2.027,-2.1142,-2.1625,-2.1625,-2.2458,-2.306,-2.3405,-2.4204,-2.503,-2.5856,-2.6312,-2.6776,-2.7251,-2.7251,-2.7251,-2.7251,-2.7251,-2.7251,0.0,0.0,-2.5281,-2.5095,-2.3479,-2.229,-2.1421,-2.1068,-2.1577,-2.2662,0.0,0.0,-2.8783,-2.9508,-3.0549,-3.1831,-3.3466,0.0,-3.5646,-3.7299,-3.8414,-3.9101,-3.9101,-3.8822,-3.8265,-3.7113,-3.5937,-3.4395,-3.1924,-3.0753,0.0,0.0,0.0,0.0,0.0,0.0,0.0,-4.2054,-4.3087,-4.3761,0.0,-4.344,0.0,-4.2829,-4.244,-4.2029,0.0,-4.1604,-4.2361,-4.4102,-4.4213,-4.4898,-4.6448,-4.6501,-4.6423,-4.6196,-4.6196,-4.6196,-4.6196,-4.6196,-4.6196,-4.6196,-4.6196,-4.6196,-4.6196,0.0,-4.6319,-4.6501,-4.6501,-4.5703,-4.4488,-4.4707,-4.3698,-4.2154,-4.238,-4.232,-4.2133,0.0,0.0,0.0,0.0,0.0,0.0,0.0,0.0,0.0,0.0,0.0,0.0,0.0,0.0,0.0,0.0,0.0,0.0,0.0,0.0,-1.9609,-1.9609,-1.9609,-1.9609,-1.9609,-2.027,-2.0975,-2.168,-2.2386,-2.3155,-2.4016,-2.4016,-2.4072,-2.4165,-2.4165,-2.4165,-2.4165,-2.4165,-2.4109,-2.3933,-2.3192,-2.2813,-2.2571,0.0,-2.0641,-2.0585,-2.0084,-2.1752,-2.4481,0.0,-2.8412,-3.014,-3.1645,-3.3243,-3.4829,-3.6389,-3.6866,-3.7201,-3.8692,-3.9101,-3.9101,-3.9101,-3.8488,-3.7448,-3.5733,-3.4042,-3.2091,-2.9452,0.0,-2.7501,-2.6572,-2.7947,-3.001,-3.2462,0.0,-3.8637,-4.1237,-4.289,-4.3875,-4.3986,-4.3693,-4.3318,-4.2922,-4.256,-4.2157,-4.1719,-4.174,-4.2554,-4.4339,-4.445,-4.5186,-4.6784,-4.6945,-4.6788,-4.6319,-4.6277,-4.6277,-4.6277,-4.6277,-4.6343,-4.6398,-4.6398,-4.6398,-4.6398,0.0,0.0,-4.6981,-4.6892,-4.618,-4.518,-4.5072,-4.4112,-4.281,-4.281,-4.281,-4.281,0.0,0.0,0.0,0.0,0.0,0.0,0.0,0.0,0.0,0.0,-1.8454,-1.8539,0.0,0.0,0.0,0.0,0.0,0.0,0.0,0.0,0.0,-1.9609,-1.9609,-1.9609,-1.9609,-1.9739,-1.9887,-2.0017,-2.0166,-2.0648,-2.1447,-2.1447,-2.18,-2.2431,-2.2431,-2.2431,-2.2431,-2.2431,-2.206,-2.1428,-2.1272,-2.0808,-2.0196,-1.9906,0.0,0.0,-2.1161,-2.194,-2.3099,-2.7483,-3.0493,-3.2537,-3.3503,-3.4922,-3.6458,-3.7411,-3.7689,-3.7894,-3.8841,-3.9101,-3.9101,-3.9101,-3.8488,-3.7281,-3.4959,-3.3169,0.0,0.0,-2.6228,-2.5643,-2.4121,-2.6303,0.0,-3.1608,0.0,0.0,0.0,0.0,-4.3243,0.0,0.0,0.0,0.0,0.0,0.0,0.0,0.0,0.0,-4.3572,-4.3604,-4.4488,-4.6431,-4.712,-4.7248,-4.6771,-4.6771,-4.6771,-4.6771,-4.6771,-4.6999,-4.7356,-4.7356,-4.7356,-4.7356,-4.7356,0.0,-4.7431,-4.6759,-4.5988,-4.5126,-4.4455,-4.3642,-4.281,-4.281,-4.281,-4.281,0.0,0.0,0.0,0.0,0.0,0.0,0.0,-1.6853,-1.7738,-1.945,-1.9992,-2.0022,-1.9529,-1.9734,-1.9871,0.0,0.0,0.0,0.0,0.0,0.0,0.0,-1.9609,-1.9609,-1.9609,0.0,0.0,0.0,0.0,0.0,0.0,0.0,0.0,0.0,0.0,-2.0752,-2.0752,-2.0752,-2.0526,-2.0175,-2.0191,-1.9931,-1.9599,0.0,0.0,0.0,0.0,-2.1903,-2.3054,-2.5885,-2.9025,-3.2128,-3.4228,-3.5733,-3.6866,-3.7652,-3.7894,-3.8079,-3.8878,-3.9101,-3.9101,-3.9101,-3.7856,-3.6012,-3.3522,0.0,0.0,0.0,-2.4408,-2.4139,-2.3351,0.0,0.0,0.0,0.0,0.0,0.0,0.0,0.0,0.0,0.0,0.0,0.0,0.0,0.0,0.0,0.0,0.0,-4.3672,-4.4303,-4.5281,-4.6678,-4.6878,-4.7069,-4.727,-4.727,-4.727,-4.727,-4.727,-4.7378,-4.7611,-4.7611,-4.7611,-4.7593,-4.7156,0.0,-4.7226,-4.6422,-4.5753,-4.5222,-4.4837,-4.4157,-4.3423,-4.3423,-4.3423,-4.3423,0.0,0.0,0.0,0.0,0.0,0.0,0.0,-1.7446,-1.8677,-2.0581,-2.1216,-2.1282,-2.0732,-2.0489,-2.025,0.0,0.0,0.0,0.0,0.0,0.0,0.0,0.0,-1.9609,0.0,0.0,0.0,0.0,0.0,0.0,0.0,0.0,0.0,0.0,0.0,0.0,0.0,-1.9609,-1.9604,0.0,0.0,0.0,0.0,0.0,0.0,0.0,0.0,0.0,-2.2664,-2.4231,-2.6786,-2.9861,-3.315,-3.5231,-3.6593,-3.7411,-3.7764,-3.8079,-3.8878,-3.9101,-3.9101,-3.9101,-3.7281,-3.486,-3.237,-2.9266,0.0,0.0,-2.3073,-2.3147,-2.298,0.0,0.0,0.0,0.0,0.0,0.0,0.0,0.0,0.0,0.0,0.0,0.0,0.0,0.0,0.0,0.0,0.0,-4.3849,-4.5041,-4.5974,-4.6617,-4.6667,-4.6926,-4.7482,-4.7663,-4.7754,-4.7754,-4.7754,-4.7816,-4.7879,-4.7879,-4.7787,-4.7587,-4.6948,0.0,0.0,-4.6011,-4.554,-4.5268,-4.5002,-4.4536,-4.3989,-4.3908,-4.3923,-4.4005,0.0,0.0,0.0,0.0,0.0,0.0,0.0,-1.8327,-1.9769,-2.2254,-2.1947,-2.1769,-2.2476,-2.1785,-2.0958,0.0,0.0,0.0,0.0,0.0,0.0,0.0,0.0,0.0,0.0,0.0,0.0,0.0,0.0,0.0,0.0,0.0,0.0,0.0,0.0,0.0,0.0,0.0,0.0,0.0,0.0,0.0,0.0,0.0,0.0,0.0,0.0,0.0,0.0,0.0,0.0,-2.5633,-2.8913,-3.2555,-3.577,-3.6569,0.0,0.0,-3.8878,-3.9101,-3.9101,-3.9101,-3.7281,-3.486,-3.237,0.0,0.0,-2.2765,-2.2683,-2.298,-2.2237,-2.3535,-2.5485,0.0,0.0,-3.1329,0.0,0.0,0.0,0.0,0.0,0.0,0.0,0.0,0.0,0.0,0.0,0.0,0.0,-4.4668,-4.5368,-4.5442,-4.6837,-4.7405,-4.7056,-4.7826,-4.8248,-4.8248,-4.8248,-4.842,-4.8785,-4.8785,-4.8377,-4.7692,-4.7617,0.0,0.0,-4.5683,-4.5329,-4.518,-4.4034,-4.3751,-4.3974,-4.3594,-4.3677,-4.4005,0.0,0.0,0.0,0.0,0.0,0.0,-1.7449,-1.758,-1.8577,-2.162,-2.1293,-2.1096,-2.1927,-2.1686,-2.1122,-2.0293,0.0,0.0,0.0,0.0,0.0,0.0,0.0,0.0,0.0,0.0,0.0,0.0,0.0,0.0,0.0,0.0,0.0,0.0,0.0,0.0,0.0,0.0,0.0,0.0,0.0,0.0,0.0,0.0,0.0,0.0,0.0,0.0,0.0,0.0,0.0,0.0,-2.4687,-2.7417,0.0,0.0,-3.5033,-3.6073,-3.7894,-3.8729,-3.8971,-3.8488,-3.6519,-3.4079,-3.1626,0.0,-2.4807,-2.2487,-2.2256,-2.2386,-2.2052,-2.3368,-2.4964,-2.6423,-2.6544,-2.7994,-3.2407,0.0,0.0,0.0,0.0,0.0,0.0,0.0,0.0,0.0,0.0,0.0,0.0,-4.4241,-4.4748,-4.5268,-4.5918,-4.6632,-4.7421,-4.7773,-4.7939,-4.7939,-4.7939,-4.7787,-4.746,-4.746,-4.7274,-4.694,0.0,0.0,0.0,-4.4859,-4.4525,-4.4472,-4.3973,-4.386,-4.3989,-4.3809,-4.3857,-4.4005,0.0,0.0,0.0,0.0,0.0,-1.5673,-1.7122,-1.7276,-1.818,-2.0792,-2.0865,-2.0865,-2.1446,-2.1293,-2.0923,-2.0346,-2.0212,0.0,0.0,0.0,0.0,0.0,0.0,0.0,0.0,0.0,0.0,0.0,0.0,0.0,0.0,0.0,0.0,0.0,0.0,0.0,0.0,0.0,0.0,0.0,0.0,0.0,0.0,0.0,0.0,0.0,0.0,0.0,0.0,0.0,0.0,0.0,0.0,-2.3582,-2.6303,0.0,-3.2853,-3.4327,-3.6575,-3.7782,-3.8247,-3.7689,-3.5497,-3.2983,0.0,-2.7241,-2.3776,-2.259,-2.2163,-2.207,-2.2312,-2.3535,-2.4685,-2.5243,-2.5076,-2.621,-3.0065,0.0,0.0,0.0,0.0,0.0,0.0,0.0,0.0,0.0,0.0,0.0,0.0,-4.4005,-4.4283,-4.4896,-4.5157,-4.5844,-4.6977,-4.7237,-4.7348,-4.7348,-4.7348,-4.7051,-4.6494,-4.6494,-4.6364,-4.6104,0.0,0.0,0.0,-4.4246,-4.4005,-4.4005,-4.4005,-4.4005,-4.4005,-4.4005,-4.4005,-4.4005,0.0,0.0,0.0,0.0,0.0,0.0,-1.6388,-1.7914,-1.93,-2.0192,-2.1,-2.1485,-2.1504,-2.0788,-2.0308,-2.0308,-2.0308,0.0,0.0,0.0,0.0,0.0,0.0,0.0,0.0,0.0,-1.9998,-2.079,-2.079,0.0,0.0,0.0,0.0,0.0,0.0,0.0,0.0,0.0,0.0,0.0,0.0,0.0,0.0,0.0,0.0,0.0,0.0,0.0,0.0,0.0,0.0,0.0,0.0,-2.2015,-2.3025,-2.7984,-3.1125,-3.3392,-3.5064,-3.6105,-3.6705,-3.6718,-3.4246,-3.1608,0.0,-2.6767,-2.3203,-2.3184,-2.2553,-2.2237,-2.3036,-2.3906,-2.45,-2.4518,-2.5169,-2.6842,-3.014,0.0,0.0,0.0,0.0,0.0,0.0,0.0,0.0,0.0,0.0,0.0,0.0,-4.4005,-4.4005,-4.4005,-4.4841,-4.5305,-4.5324,-4.6104,-4.6513,-4.6513,-4.6513,-4.6513,-4.6494,-4.6494,-4.6067,0.0,0.0,0.0,0.0,-4.4005,-4.4005,-4.4005,-4.4005,-4.4005,-4.4005,-4.4005,-4.4005,-4.4005,0.0,0.0,0.0,0.0,0.0,0.0,0.0,-1.6441,-1.6939,-1.8396,-1.8284,-1.8307,-1.8917,-1.9228,-1.9402,-1.9407,-1.995,0.0,0.0,0.0,0.0,0.0,0.0,0.0,0.0,-2.0159,-2.053,-2.079,-2.1346,-2.1625,-2.1606,0.0,0.0,0.0,0.0,0.0,0.0,0.0,0.0,0.0,0.0,0.0,0.0,0.0,0.0,0.0,0.0,0.0,0.0,0.0,0.0,0.0,0.0,0.0,0.0,-2.3712,-2.647,0.0,-3.1552,-3.2741,-3.3224,-3.2667,-3.1348,-2.9787,-2.8393,-2.5541,-2.3036,-2.2497,-2.2182,-2.207,-2.233,-2.3535,-2.4853,-2.5968,-2.6349,-2.7278,0.0,0.0,0.0,0.0,0.0,0.0,0.0,0.0,0.0,0.0,0.0,0.0,0.0,-4.4005,-4.4005,-4.4005,-4.4265,-4.4692,-4.5287,-4.5547,-4.5677,-4.5677,-4.5677,-4.5361,-4.4785,-4.4785,0.0,0.0,0.0,0.0,0.0,-4.4005,-4.4005,-4.4005,-4.4005,-4.4005,-4.4005,-4.4005,-4.4005,-4.4005,0.0,0.0,0.0,0.0,0.0,0.0,0.0,-1.5832,-1.5951,-1.6713,-1.662,-1.6719,-1.7253,-1.7761,-1.8317,-1.8932,-1.9499,0.0,0.0,0.0,0.0,0.0,0.0,0.0,-1.9701,-2.0153,-2.0829,-2.1718,-2.2219,-2.2617,-2.294,-2.2439,-2.1688,0.0,0.0,0.0,0.0,0.0,0.0,0.0,0.0,0.0,0.0,0.0,0.0,0.0,0.0,0.0,0.0,0.0,0.0,0.0,0.0,0.0,0.0,0.0,-2.3007,-2.5262,-2.8374,-3.0028,-3.0772,-3.027,-2.9304,-2.8096,-2.6739,-2.4538,-2.2609,-2.2107,-2.1996,-2.2089,-2.2404,-2.3572,-2.4834,-2.5838,-2.6238,0.0,0.0,0.0,0.0,0.0,0.0,0.0,0.0,0.0,0.0,0.0,0.0,0.0,0.0,0.0,-4.4005,-4.4005,-4.4005,-4.4265,-4.4804,-4.4804,-4.4804,-4.4804,-4.4804,-4.4525,-4.4005,-4.4005,0.0,0.0,0.0,0.0,0.0,-4.4005,-4.4005,-4.4005,-4.4005,-4.4005,-4.4005,-4.4005,-4.4005,-4.4005,0.0,0.0,0.0,0.0,0.0,0.0,0.0,-1.5932,-1.613,-1.5309,-1.5865,-1.635,-1.6408,-1.6408,-1.7096,-1.8762,0.0,0.0,0.0,0.0,0.0,0.0,0.0,0.0,-1.9732,-1.9763,-2.0884,-2.3126,-2.3248,-2.3739,-2.4592,-2.4592,-2.3283,-2.0975,-2.0901,0.0,0.0,0.0,0.0,0.0,0.0,0.0,0.0,0.0,0.0,0.0,0.0,0.0,0.0,0.0,0.0,0.0,0.0,0.0,0.0,0.0,0.0,0.0,0.0,-2.7631,-2.8876,-2.8876,-2.7706,-2.6368,-2.5606,-2.3609,0.0,-2.1903,-2.1959,-2.2256,-2.3054,-2.3906,-2.4555,-2.4723,0.0,0.0,0.0,0.0,0.0,0.0,0.0,0.0,0.0,0.0,0.0,0.0,0.0,0.0,0.0,0.0,-4.4005,-4.4005,-4.4005,-4.4005,-4.4005,-4.4005,-4.4005,-4.4005,-4.4005,-4.4005,-4.4005,-4.4005,0.0,0.0,0.0,0.0,0.0,-4.4005,-4.4005,-4.4005,-4.4005,-4.4005,-4.4005,-4.4005,-4.4005,-4.4005,0.0,0.0,0.0,0.0,0.0,0.0,0.0,0.0,0.0,0.0,-1.4862,-1.484,-1.5504,-1.5582,-1.627,0.0,0.0,0.0,0.0,0.0,0.0,0.0,0.0,0.0,-2.002,-2.0457,-2.1269,-2.2443,-2.363,-2.4602,-2.5429,-2.5429,-2.4408,-2.2609,-2.1996,-2.0919,0.0,0.0,0.0,0.0,0.0,0.0,0.0,0.0,0.0,0.0,0.0,0.0,0.0,0.0,0.0,0.0,0.0,0.0,0.0,0.0,-2.0333,-2.1012,-2.1967,0.0,-2.3731,-2.3731,-2.3434,-2.3099,0.0,-2.1948,-2.1087,-2.1087,-2.1569,-2.2256,-2.3054,-2.3906,-2.5094,-2.6944,0.0,0.0,0.0,0.0,0.0,0.0,0.0,0.0,0.0,0.0,0.0,0.0,0.0,0.0,0.0,0.0,-4.4005,-4.4005,-4.4005,-4.4005,-4.4005,-4.4005,-4.4005,-4.4005,-4.4005,-4.4005,-4.4005,-4.4005,0.0,0.0,0.0,0.0,-4.4005,-4.4005,-4.4005,-4.4005,-4.4005,-4.4005,-4.4005,-4.4005,-4.4005,-4.4005,0.0,0.0,0.0,0.0,0.0,0.0,0.0,0.0,0.0,0.0,0.0,0.0,0.0,0.0,0.0,0.0,0.0,0.0,0.0,0.0,0.0,0.0,0.0,-2.0158,-2.0093,-2.0356,-2.1229,-2.2749,-2.3526,-2.4714,-2.6238,-2.5875,-2.4842,-2.3225,-2.1648,-2.0446,0.0,0.0,0.0,0.0,0.0,0.0,0.0,0.0,0.0,0.0,0.0,-1.9641,0.0,-1.9614,-1.9599,-1.9609,0.0,0.0,0.0,0.0,-1.9906,-2.0258,-2.0258,-2.167,-2.3145,-2.3145,-2.3145,-2.3052,-2.2646,-2.1643,-2.079,-2.079,-2.1439,-2.2256,-2.3054,-2.4204,0.0,0.0,0.0,0.0,0.0,0.0,0.0,0.0,0.0,0.0,0.0,0.0,0.0,0.0,0.0,0.0,0.0,0.0,-4.4005,-4.4005,-4.4005,-4.4005,-4.4005,-4.4005,-4.4005,-4.4005,-4.4005,-4.4005,-4.4005,-4.4005,-4.4005,0.0,0.0,0.0,-4.4005,-4.4005,-4.4005,-4.4005,-4.4005,-4.4005,-4.4005,-4.4005,-4.4005,-4.4005,0.0,0.0,0.0,0.0,0.0,0.0,0.0,0.0,0.0,0.0,0.0,0.0,0.0,0.0,0.0,0.0,0.0,0.0,0.0,0.0,0.0,0.0,-2.0308,-2.0295,-2.0307,-2.0053,-2.1021,-2.3254,-2.3372,-2.4572,-2.673,-2.6302,-2.5142,-2.3322,-2.0965,-1.9794,0.0,0.0,0.0,0.0,0.0,0.0,0.0,0.0,0.0,0.0,0.0,0.0,0.0,-1.9628,-1.9606,-1.9609,-1.9609,0.0,0.0,0.0,0.0,0.0,-1.9906,-2.2187,-2.4407,-2.4035,-2.4119,-2.4082,-2.3203,-2.1959,-2.0975,-2.0975,-2.1625,-2.246,-2.3407,-2.4835,0.0,0.0,0.0,0.0,0.0,0.0,0.0,0.0,0.0,0.0,0.0,0.0,0.0,0.0,0.0,0.0,0.0,0.0,0.0,-4.4005,-4.4005,-4.4005,-4.4005,-4.4005,-4.4005,-4.4005,-4.4005,-4.4005,-4.4005,-4.4005,-4.4005,0.0,0.0,0.0,-4.4005,-4.4005,-4.4005,-4.4005,-4.4005,-4.4005,-4.4005,-4.4005,-4.4005,-4.4005,0.0,0.0,0.0,0.0,0.0,0.0,0.0,0.0,0.0,0.0,0.0,0.0,0.0,0.0,0.0,0.0,0.0,0.0,0.0,0.0,0.0,-2.0299,-2.0299,-2.0612,-2.1272,-2.0488,-2.0892,-2.2546,-2.3836,-2.5014,-2.608,-2.7378,-2.6405,-2.3491,-2.1638,-2.0389,-1.9682,-1.962,0.0,0.0,0.0,0.0,0.0,0.0,0.0,0.0,0.0,0.0,0.0,-1.9686,-1.9652,-1.9609,-1.9609,0.0,0.0,0.0,0.0,0.0,-2.1254,-2.3033,-2.3998,-2.19,-2.2394,-2.3184,-2.2367,-2.1996,-2.181,-2.181,-2.246,-2.3489,0.0,-2.607,0.0,0.0,0.0,0.0,0.0,0.0,0.0,0.0,0.0,0.0,0.0,0.0,0.0,0.0,0.0,0.0,0.0,0.0,0.0,-4.4005,-4.4005,-4.4005,-4.4005,-4.4005,-4.4005,-4.4005,-4.4005,-4.4005,-4.4005,-4.4005,-4.4005,0.0,0.0,-4.4005,-4.4005,-4.4005,-4.4005,-4.4005,-4.4005,-4.4005,-4.4005,-4.4005,-4.4005,-4.4005,0.0,0.0,0.0,0.0,0.0,0.0,0.0,0.0,0.0,0.0,0.0,0.0,0.0,0.0,0.0,0.0,0.0,0.0,0.0,0.0,-1.9851,-2.0289,-2.0308,-2.0695,-2.154,-2.1528,-2.2257,-2.3803,-2.4998,-2.6151,-2.729,-2.6828,-2.531,-2.2874,-2.1166,-2.0138,-1.9695,-1.9635,-1.9604,0.0,0.0,0.0,0.0,0.0,0.0,0.0,0.0,0.0,0.0,0.0,-1.9653,-1.9599,-1.9597,0.0,0.0,0.0,0.0,0.0,-2.0493,-2.2227,-2.3508,-2.2386,-2.3657,-2.4984,-2.4185,-2.3665,-2.3461,-2.3906,-2.4296,0.0,0.0,0.0,0.0,0.0,0.0,0.0,0.0,0.0,0.0,0.0,0.0,0.0,0.0,0.0,0.0,0.0,0.0,0.0,0.0,0.0,0.0,0.0,-4.4005,-4.4005,-4.4005,-4.4005,-4.4005,-4.4005,-4.4005,-4.4005,-4.4005,-4.4005,-4.4005,-4.4005,0.0,-4.4005,-4.4005,-4.4005,-4.4005,-4.4005,-4.407,-4.4119,-4.4119,-4.4119,-4.407,-4.4005,0.0,0.0,0.0,0.0,0.0,0.0,0.0,0.0,0.0,0.0,0.0,0.0,0.0,0.0,0.0,0.0,0.0,0.0,0.0,-1.8874,-1.947,-2.0292,-2.0312,-2.082,-2.1879,-2.2464,-2.35,-2.5043,-2.6104,-2.7203,-2.8266,-2.6155,-2.4213,-2.2418,-2.0717,-1.9774,-1.9484,-1.9413,-1.9263,0.0,0.0,0.0,0.0,0.0,0.0,0.0,0.0,0.0,0.0,0.0,0.0,0.0,0.0,0.0,0.0,-1.9609,-1.9609,-1.9683,-2.0054,-2.1643,-2.3258,-2.3452,-2.5077,-2.6553,-2.6312,-2.5652,-2.5355,-2.6358,-2.6581,0.0,0.0,0.0,0.0,0.0,0.0,0.0,0.0,0.0,0.0,0.0,0.0,0.0,0.0,0.0,0.0,0.0,0.0,0.0,0.0,0.0,0.0,0.0,-4.4005,-4.4005,-4.4005,-4.4005,-4.4005,-4.4005,-4.4005,-4.4005,-4.4005,-4.4005,-4.4005,-4.4005,-4.4005,-4.402,-4.4055,-4.4055,-4.407,-4.4067,-4.418,-4.4229,-4.4229,-4.4229,-4.4165,-4.4067,0.0,0.0,0.0,0.0,0.0,0.0,0.0,0.0,0.0,0.0,0.0,0.0,0.0,0.0,0.0,0.0,0.0,0.0,0.0,-1.8239,-1.9493,-2.0341,-2.0399,-2.1159,-2.2767,-2.2856,-2.3645,-2.5194,-2.6806,-2.7647,-2.7713,-2.6139,-2.4451,-2.269,-2.0893,-1.9634,-1.8866,-1.8793,-1.8258,-1.76,-1.9161,0.0,0.0,0.0,0.0,0.0,0.0,0.0,0.0,0.0,0.0,0.0,0.0,0.0,-1.9609,-1.9609,-1.9609,-1.9924,-2.1421,-2.2497,-2.3388,-2.4194,-2.5094,-2.6163,-2.7594,-2.7297,-2.7185,-2.8802,-2.9118,0.0,0.0,0.0,0.0,0.0,0.0,0.0,0.0,0.0,0.0,0.0,0.0,0.0,0.0,0.0,0.0,0.0,0.0,0.0,0.0,0.0,0.0,0.0,0.0,-4.4005,-4.4005,-4.4005,-4.4005,-4.4005,-4.4005,-4.4005,-4.4005,-4.4005,-4.4005,-4.4005,-4.4005,-4.407,-4.4184,-4.4184,-4.4211,-4.4285,-4.4285,-4.4285,-4.4285,-4.4285,-4.4285,-4.427,0.0,0.0,0.0,0.0,0.0,0.0,0.0,0.0,0.0,0.0,0.0,0.0,0.0,0.0,0.0,0.0,0.0,0.0,0.0,-1.6887,-1.8161,-1.9532,-2.0112,-2.0956,-2.2128,-2.3179,-2.4465,-2.6013,-2.7182,-2.7242,-2.6251,-2.5114,-2.3681,-2.1999,-2.0679,-1.9926,-1.9573,-1.8992,-1.8821,-1.893,-1.9103,0.0,0.0,0.0,0.0,0.0,0.0,0.0,0.0,0.0,-1.8283,-1.8958,-1.8825,-1.9179,-1.9642,-1.9611,-1.9609,-1.9739,-2.0344,-2.1829,-2.3277,-2.3601,-2.5077,-2.6739,-2.7854,-2.8672,-2.9657,-3.131,-3.1645,0.0,0.0,0.0,0.0,0.0,0.0,0.0,0.0,0.0,0.0,0.0,0.0,0.0,0.0,0.0,0.0,0.0,0.0,0.0,0.0,0.0,0.0,0.0,0.0,-4.4005,-4.4005,-4.4005,-4.4005,-4.4005,-4.4005,-4.4005,-4.4005,-4.4005,-4.4005,-4.4005,-4.4085,-4.415,-4.4199,-4.4244,-4.4289,-4.43,-4.4358,-4.4354,-4.4354,-4.4354,-4.4344,-4.43,0.0,0.0,0.0,0.0,0.0,0.0,0.0,0.0,0.0,0.0,0.0,0.0,0.0,0.0,0.0,0.0,0.0,0.0,-1.5151,-1.5865,-1.7061,-1.9009,-1.9416,-2.0231,-2.1669,-2.2826,-2.4316,-2.6174,-2.6785,-2.6376,-2.5004,-2.3848,-2.2852,-2.1945,-2.0458,-1.9931,-2.0146,-1.9268,-1.9007,-1.9211,-1.9225,-1.9396,0.0,0.0,0.0,0.0,0.0,0.0,0.0,0.0,-1.7506,-1.8246,-1.8371,-1.8833,-1.9357,-1.9567,-1.9811,-1.998,-1.998,-2.1551,-2.3277,-2.3545,-2.5324,-2.7326,-2.8599,-2.9973,-3.1515,-3.341,-3.3566,-3.3466,-3.3745,0.0,0.0,0.0,0.0,0.0,0.0,0.0,0.0,0.0,0.0,0.0,0.0,0.0,0.0,0.0,0.0,0.0,0.0,0.0,0.0,0.0,0.0,-4.4005,-4.4005,-4.4005,-4.4005,-4.4005,-4.4036,-4.4036,-4.4005,-4.4005,-4.402,-4.407,-4.4169,-4.4229,-4.4274,-4.4314,-4.4344,-4.4373,-4.4397,-4.4426,-4.4426,-4.4426,-4.4397,-4.4358,0.0,0.0,0.0,0.0,0.0,0.0,0.0,0.0,0.0,0.0,0.0,0.0,0.0,0.0,0.0,0.0,0.0,0.0,-1.517,-1.5306,-1.6426,-1.8971,-1.8277,-1.9035,-2.163,-2.1707,-2.2942,-2.5488,-2.5488,-2.5047,-2.4138,-2.2422,-2.2063,-2.2778,-2.0241,-1.9606,-2.0347,-1.947,-1.8577,-1.787,-1.9512,-1.9712,0.0,0.0,0.0,0.0,0.0,0.0,0.0,0.0,-1.6787,-1.7534,-1.841,-1.8615,-1.8682,-1.9476,-2.0221,-2.0797,-2.0797,-2.1977,-2.3415,-2.4295,-2.5872,-2.7823,-3.0091,-3.1236,-3.2537,-3.5008,-3.4829,-3.4494,-3.5361,0.0,0.0,0.0,0.0,0.0,0.0,0.0,0.0,0.0,0.0,0.0,0.0,0.0,0.0,0.0,0.0,0.0,0.0,0.0,0.0,0.0,0.0,0.0,-4.3986,-4.3986,-4.3986,-4.4005,-4.4135,-4.4135,-4.4005,-4.4005,-4.407,-4.4199,-4.4199,-4.4289,-4.4397,-4.4397,-4.4426,-4.4501,-4.4501,-4.4501,-4.4501,-4.4501,-4.4501,-4.4501,0.0,0.0,0.0,0.0,0.0,0.0,0.0,0.0,0.0,0.0,0.0,0.0,0.0,0.0,0.0,0.0,0.0,0.0,-1.4274,-1.4955,-1.6155,-1.8103,-1.8529,-1.936,-2.0753,-2.1395,-2.2342,-2.3674,-2.4292,-2.3848,-2.2439,-2.249,-2.2023,-2.1149,-2.0998,-2.0727,-2.0337,-1.9474,-1.9268,-1.9516,-1.9458,-1.9613,-1.9883,0.0,0.0,0.0,0.0,0.0,0.0,0.0,0.0,0.0,-1.7558,-1.8621,-1.9646,-1.9699,-2.0289,-2.0943,-2.0943,-2.204,0.0,-2.5101,0.0,0.0,-3.1248,-3.2753,-3.442,-3.6706,-3.6983,-3.6705,-3.6402,0.0,0.0,0.0,0.0,0.0,0.0,0.0,0.0,0.0,0.0,0.0,0.0,0.0,0.0,0.0,0.0,0.0,0.0,0.0,0.0,0.0,0.0,0.0,-4.315,-4.3193,-4.3539,-4.4135,-4.4226,-4.4211,-4.4135,-4.4195,-4.424,-4.427,-4.4314,-4.4354,-4.4397,-4.444,-4.4487,-4.4501,-4.4501,-4.4501,-4.4501,-4.4501,-4.4501,-4.4501,0.0,0.0,0.0,0.0,0.0,0.0,0.0,0.0,0.0,0.0,-1.1894,-1.1967,0.0,0.0,0.0,0.0,0.0,0.0,0.0,-1.4682,-1.5688,-1.7716,-1.8007,-1.8838,-2.0363,-2.1259,-2.1762,-2.1913,-2.2787,-2.2517,-2.1201,-2.2033,-2.2052,-2.143,-2.1936,-2.1878,-2.1333,-2.0482,-2.0208,-2.0296,-1.9819,-1.9915,-2.0257,0.0,0.0,0.0,0.0,0.0,0.0,0.0,0.0,0.0,-1.682,-1.775,-1.8759,-1.9609,-2.043,-2.118,-2.1812,-2.3102,0.0,-2.6456,-2.8615,-3.0993,-3.3705,0.0,0.0,0.0,0.0,-3.7745,0.0,0.0,0.0,0.0,0.0,0.0,0.0,0.0,0.0,0.0,0.0,0.0,0.0,0.0,0.0,0.0,0.0,0.0,0.0,0.0,0.0,0.0,0.0,0.0,-4.2359,-4.2433,-4.2719,-4.3241,-4.331,-4.3324,-4.3318,-4.3986,-4.4314,-4.4344,-4.4416,-4.4426,-4.444,-4.4487,-4.4501,-4.4501,-4.4501,-4.4501,-4.4501,-4.4501,-4.4501,-4.4501,0.0,0.0,0.0,0.0,0.0,0.0,0.0,0.0,0.0,0.0,-1.2402,-1.2576,0.0,0.0,0.0,0.0,0.0,0.0,0.0,-1.4566,-1.5221,-1.7703,-1.7258,-1.8026,-2.0344,-2.1182,-2.1182,-2.0402,-2.1278,-2.1259,-2.0421,-2.1375,-2.211,-2.2691,-2.2826,-2.2768,-2.2517,-2.1762,-2.0969,-2.017,-2.0247,-2.0228,-2.0073,-1.928,0.0,0.0,0.0,0.0,0.0,0.0,0.0,0.0,-1.6223,-1.6464,-1.69,-1.9272,-2.0529,-2.1474,-2.3095,-2.4644,-2.6271,-2.82,-3.0137,0.0,-3.6692,-3.728,-3.7445,0.0,0.0,0.0,0.0,0.0,0.0,0.0,0.0,0.0,0.0,0.0,0.0,0.0,0.0,0.0,0.0,0.0,0.0,0.0,0.0,0.0,0.0,0.0,0.0,0.0,0.0,0.0,-4.1595,-4.168,-4.1726,0.0,-4.1884,-4.1906,-4.1962,-4.3427,-4.4115,-4.4186,-4.4247,-4.4275,-4.4257,-4.4284,-4.4298,-4.4298,-4.4325,-4.4339,-4.4339,-4.4339,-4.4339,-4.4325,0.0,0.0,0.0,0.0,0.0,0.0,0.0,0.0,0.0,0.0,0.0,0.0,0.0,0.0,0.0,0.0,0.0,0.0,0.0,-1.511,-1.5879,-1.7786,-1.8971,-1.9841,-2.0382,-2.0576,-2.0595,-2.0402,-2.1278,-2.1259,-2.044,-2.1933,-2.203,-2.1001,-2.23,-2.1797,-1.9902,-1.9728,-1.9167,-1.8413,-1.9106,-1.8971,-1.8335,-1.8142,-1.7562,0.0,0.0,0.0,0.0,0.0,0.0,0.0,-1.6243,-1.6946,-1.7694,-1.8756,-2.0146,-2.1705,-2.3359,-2.4461,0.0,0.0,-3.2561,-3.4805,-3.6587,-3.6755,0.0,0.0,0.0,0.0,0.0,0.0,0.0,0.0,0.0,0.0,0.0,0.0,0.0,0.0,0.0,0.0,0.0,0.0,0.0,0.0,0.0,0.0,0.0,0.0,0.0,0.0,0.0,-4.02,-4.0821,-4.0902,-4.1261,0.0,-4.1951,-4.1991,-4.1978,-4.234,-4.249,-4.2517,-4.253,-4.2549,-4.2543,-4.2706,-4.2772,-4.2784,-4.2951,-4.3017,-4.3017,-4.3017,-4.3017,-4.2987,0.0,0.0,0.0,0.0,0.0,0.0,0.0,0.0,0.0,0.0,0.0,0.0,0.0,0.0,0.0,0.0,0.0,0.0,0.0,-1.5309,-1.6051,-1.7772,-1.9082,-1.9783,-1.9783,-1.9783,-1.9783,-1.9783,-2.0231,-2.0659,-2.1043,-2.2304,-2.2668,-2.2258,-2.3132,-2.2342,-2.0331,-1.9899,-1.8971,-1.7833,-1.8297,-1.8219,-1.7755,-1.7371,-1.6965,-1.6484,-1.5615,0.0,0.0,0.0,0.0,0.0,0.0,0.0,-1.6798,-1.7963,-1.925,-2.0687,-2.2727,0.0,0.0,-3.0947,0.0,-3.5606,-3.6573,-3.668,0.0,0.0,0.0,0.0,0.0,0.0,0.0,0.0,0.0,0.0,0.0,0.0,0.0,0.0,0.0,0.0,0.0,0.0,0.0,0.0,0.0,0.0,0.0,0.0,0.0,0.0,-3.9431,-3.9649,-4.0061,-4.0139,-4.0384,-4.0802,-4.0841,-4.0854,-4.0891,-4.1648,-4.2004,-4.2004,-4.2004,-4.2064,-4.2152,-4.2267,-4.2375,-4.2455,-4.2551,-4.2592,-4.2592,-4.2592,-4.2592,-4.2582,0.0,0.0,0.0,0.0,0.0,0.0,0.0,0.0,0.0,0.0,0.0,0.0,0.0,0.0,0.0,0.0,0.0,0.0,0.0,-1.5454,-1.613,-1.7539,-1.8416,-1.8874,-1.8874,-1.8874,-1.8951,-1.9106,-1.8951,-1.9999,-2.2133,-2.2652,-2.3287,-2.3983,-2.3983,-2.2961,-2.1182,-2.0328,-1.8951,-1.7388,-1.7523,-1.7504,-1.7313,-1.6793,-1.6503,-1.6271,-1.5557,-1.5306,-1.5306,-1.5306,0.0,0.0,0.0,0.0,-1.5532,-1.7105,-1.8156,-1.928,-2.157,0.0,-2.7536,-3.1534,-3.3913,0.0,-3.6382,0.0,0.0,0.0,0.0,0.0,0.0,0.0,0.0,0.0,0.0,0.0,0.0,0.0,0.0,0.0,0.0,0.0,0.0,0.0,0.0,0.0,0.0,0.0,0.0,0.0,-3.9431,-3.9425,-3.9495,-3.952,-3.952,-3.9583,-3.9589,-3.9589,-3.9638,-3.9662,-3.97,-4.108,-4.1669,-4.165,-4.1669,-4.1779,-4.1938,-4.1971,-4.21,-4.2231,-4.2288,-4.2297,-4.2297,-4.2297,-4.2297,-4.2269,0.0,0.0,0.0,0.0,0.0,0.0,0.0,0.0,0.0,0.0,-1.2891,-1.287,-1.2804,-1.4253,0.0,0.0,0.0,0.0,-1.5375,0.0,0.0,-1.6751,-1.7544,-1.7968,-1.7968,-1.7968,-1.8335,-1.9106,-1.8335,-1.9999,-2.3848,-2.3194,-2.2961,-2.3077,-2.3077,-2.172,-1.9399,-1.8529,-1.7178,-1.569,-1.6464,-1.631,-1.569,-1.6348,-1.6135,-1.5461,-1.5344,-1.5306,-1.5306,-1.5306,-1.5303,0.0,0.0,0.0,0.0,0.0,-1.7285,-1.8345,-2.0127,0.0,-2.8346,0.0,-3.3115,-3.4629,0.0,0.0,0.0,0.0,0.0,0.0,0.0,0.0,0.0,0.0,0.0,0.0,0.0,0.0,0.0,0.0,0.0,0.0,0.0,0.0,0.0,0.0,0.0,0.0,0.0,-3.952,-3.952,-3.9564,-3.9577,-3.9596,-3.9596,-3.9608,-3.9589,-3.9589,-3.9777,-3.9859,-3.9859,-4.0259,-4.0363,-4.0181,-4.0364,-4.0453,-4.0502,-4.0665,-4.0759,-4.08,-4.0974,-4.1041,-4.1041,-4.1041,-4.1041,-4.1041,0.0,0.0,0.0,0.0,0.0,0.0,0.0,0.0,0.0,0.0,0.0,-1.3555,-1.3534,-1.4658,0.0,0.0,0.0,0.0,-1.5401,-1.5734,0.0,-1.6584,-1.6931,-1.7139,-1.7139,-1.7139,-1.7313,-1.77,-1.7313,-1.9073,-2.2807,-2.2865,-2.3654,-2.4985,-2.4041,-2.2474,-2.0447,-1.8587,-1.712,-1.6019,-1.5903,-1.6193,-1.6636,-1.6077,-1.6213,-1.6578,-1.5635,-1.5306,-1.5306,-1.5306,-1.5615,0.0,0.0,0.0,0.0,0.0,-1.6416,-1.7747,-2.0866,-2.4411,-2.7821,0.0,-3.1892,-3.3163,0.0,0.0,0.0,0.0,0.0,0.0,0.0,0.0,0.0,0.0,0.0,0.0,0.0,0.0,0.0,0.0,0.0,0.0,0.0,0.0,0.0,0.0,0.0,0.0,-3.9946,-3.9914,-3.9914,-3.9946,-3.9946,-3.9946,-3.9946,-3.9815,-3.9766,-3.9766,-3.9969,-4.007,-4.008,-4.0278,-4.026,-4.007,-4.0167,-4.0269,-4.0372,-4.0465,-4.0569,-4.0673,-4.0771,-4.0797,-4.0797,-4.0797,-4.0797,-4.0797,0.0,0.0,0.0,0.0,0.0,0.0,0.0,0.0,0.0,0.0,0.0,0.0,-1.4102,0.0,0.0,0.0,0.0,0.0,-1.5073,0.0,0.0,0.0,-1.6271,-1.6264,-1.6271,-1.6056,-1.6152,-1.66,-1.6387,-1.8244,-2.2017,-2.2613,-2.4254,-2.6644,-2.5178,-2.3484,-2.1533,-1.9151,-1.7658,-1.6849,-1.6193,-1.6675,-1.7736,-1.7141,-1.7564,-1.8297,-1.7042,-1.631,-1.5903,0.0,0.0,0.0,0.0,0.0,0.0,0.0,0.0,0.0,0.0,0.0,-2.6057,-2.8781,-3.0449,-3.1791,0.0,0.0,0.0,0.0,0.0,0.0,0.0,0.0,0.0,0.0,0.0,0.0,0.0,0.0,0.0,0.0,0.0,0.0,0.0,0.0,0.0,0.0,0.0,0.0,-3.9546,-3.9546,-3.9546,-3.9546,-3.9546,-3.9661,-3.9871,-3.9936,-3.9969,-3.9969,-4.0186,-4.0278,-4.0286,-4.0481,-4.0489,-4.0347,-4.0347,-4.0441,-4.0576,-4.0576,-4.066,-4.0797,-4.0797,-4.0797,-4.0797,-4.0797,-4.0797,-4.0797,0.0,0.0,0.0,0.0,0.0,0.0,0.0,0.0,0.0,0.0,0.0,0.0,-1.4102,-1.488,-1.5073,-1.4238,-1.4176,0.0,0.0,0.0,0.0,0.0,0.0,0.0,-1.5364,-1.4564,-1.4948,-1.66,-1.5768,-1.7935,-2.2845,-2.2884,-2.4254,-2.6663,-2.5816,-2.4041,-2.1572,-1.9786,-1.8529,-1.7736,-1.7697,-1.7716,-1.8065,-2.0469,-2.0911,-2.0247,-2.017,0.0,0.0,0.0,0.0,0.0,0.0,0.0,0.0,0.0,0.0,0.0,0.0,-2.0543,0.0,-2.605,0.0,0.0,0.0,0.0,0.0,0.0,0.0,0.0,0.0,0.0,0.0,0.0,0.0,0.0,0.0,0.0,0.0,0.0,0.0,0.0,0.0,0.0,0.0,0.0,0.0,0.0,-3.7762,-3.7744,-3.7744,-3.7744,-3.7744,-3.8135,-3.8965,-3.9785,-4.0186,-4.0196,-4.0381,-4.0481,-4.0489,-4.068,-4.0784,-4.0771,-4.0771,-4.0778,-4.0784,-4.0784,-4.079,-4.0797,-4.0797,-4.0797,-4.0797,-4.0797,-4.0797,-4.0797,0.0,0.0,0.0,0.0,0.0,0.0,0.0,0.0,0.0,0.0,0.0,0.0,0.0,-1.5214,-1.5273,-1.4961,-1.4921,0.0,0.0,0.0,0.0,0.0,0.0,0.0,-1.5306,-1.4448,-1.431,-1.4929,-1.4622,-1.6247,-1.9651,-2.0772,-2.2358,-2.4273,-2.4544,-2.4157,-2.3116,-2.0308,-1.9573,-2.0215,-1.907,-1.996,-2.1836,-2.114,-2.203,-2.3457,0.0,0.0,0.0,0.0,0.0,0.0,-1.6658,-1.6484,-1.6694,-1.5615,-1.6058,0.0,0.0,0.0,0.0,-2.3686,0.0,0.0,0.0,0.0,0.0,0.0,0.0,0.0,0.0,0.0,0.0,0.0,0.0,0.0,0.0,0.0,0.0,0.0,0.0,0.0,0.0,0.0,0.0,0.0,0.0,0.0,-3.798,-3.8,-3.8,-3.8,-3.8,-3.8065,-3.8265,-3.8707,-3.8842,-3.8733,-3.8919,-3.9013,-3.9052,-3.9689,-3.9965,-4.0004,-4.0565,-4.0797,-4.0797,-4.0797,-4.0797,-4.0797,-4.0797,-4.0797,-4.0797,-4.0797,-4.0797,-4.0797,0.0,0.0,0.0,0.0,0.0,0.0,0.0,0.0,-1.5391,-1.5391,0.0,0.0,0.0,0.0,-1.5273,-1.498,-1.4961,-1.4961,-1.4961,-1.5233,0.0,0.0,0.0,0.0,-1.5308,-1.4454,-1.3999,-1.3999,-1.3999,-1.5161,-1.7429,-1.8858,-2.0598,-2.2497,-2.2494,-2.3132,-2.4022,-2.1469,-2.1046,-2.1998,-2.083,-2.1739,-2.3693,-2.3151,-2.4002,-2.5356,0.0,0.0,0.0,0.0,0.0,0.0,-1.7816,-1.6984,-1.6733,-1.5635,-1.631,-1.7407,-1.7393,0.0,0.0,0.0,0.0,0.0,0.0,0.0,0.0,0.0,0.0,0.0,0.0,0.0,0.0,0.0,0.0,0.0,0.0,0.0,0.0,0.0,0.0,0.0,0.0,0.0,0.0,0.0,0.0,0.0,-3.7367,-3.7367,-3.7367,-3.7367,-3.7613,-3.7706,-3.757,-3.7996,-3.8131,-3.7994,-3.8131,-3.8193,-3.8212,-3.8798,-3.9056,-3.9094,-3.9669,-4.0249,-4.0797,-4.0797,-4.0797,-4.0797,-4.0797,-4.0797,-4.0797,-4.0797,-4.0797,-4.0797,0.0,0.0,0.0,0.0,0.0,0.0,0.0,0.0,-1.5391,-1.5391,0.0,0.0,0.0,0.0,0.0,-1.4258,-1.418,-1.418,-1.4141,-1.4922,0.0,0.0,0.0,0.0,-1.5308,-1.445,-1.3999,-1.396,-1.396,-1.4832,-1.6542,-1.7352,-1.9112,-2.1553,-1.9844,-2.0966,-2.4022,-2.3132,-2.2845,-2.2961,-2.2884,-2.2942,-2.3445,0.0,0.0,0.0,-2.7469,-2.6443,0.0,0.0,0.0,0.0,0.0,-1.6713,-1.5364,-1.5344,-1.5981,-1.6696,0.0,0.0,0.0,0.0,0.0,0.0,0.0,0.0,0.0,0.0,0.0,0.0,0.0,0.0,0.0,0.0,0.0,0.0,0.0,0.0,0.0,0.0,0.0,0.0,0.0,0.0,0.0,0.0,0.0,-3.5704,-3.5704,-3.5704,-3.5704,-3.5704,-3.6458,-3.6864,-3.6864,-3.769,-3.8135,-3.8135,-3.8135,-3.8135,-3.8135,-3.8154,-3.8154,-3.8154,-3.8193,-3.9166,-4.0739,-4.0758,-4.0777,-4.0797,-4.0797,-4.0797,-4.0797,-4.0797,-4.0797,-4.0797,0.0,0.0,0.0,0.0,0.0,-1.3769,-1.3769,-1.4707,-1.5391,0.0,0.0,0.0,-1.5469,-1.5957,-1.623,-1.5996,-1.5977,-1.5703,-1.5078,-1.5273,-1.5409,-1.5402,-1.5404,-1.5378,-1.5308,-1.445,-1.3689,-1.3053,-1.3053,-1.3633,-1.4736,-1.5591,-1.7352,-1.9805,-1.9322,-1.9976,-2.1349,-1.9844,-2.1372,-2.4621,-2.2768,-2.4238,0.0,0.0,0.0,0.0,0.0,-2.8494,-2.7755,0.0,-2.565,-2.3886,0.0,-1.8509,-1.6984,-1.6406,-1.7719,-1.8954,-1.71,0.0,0.0,0.0,0.0,0.0,0.0,0.0,0.0,0.0,0.0,0.0,0.0,0.0,0.0,0.0,0.0,0.0,0.0,0.0,0.0,0.0,0.0,0.0,0.0,0.0,0.0,0.0,-3.5704,-3.5704,-3.5704,-3.5704,-3.5704,-3.5704,-3.5916,-3.6033,-3.6033,-3.6265,-3.6381,-3.6381,-3.6381,-3.6381,-3.64,-3.7,-3.727,-3.729,-3.7922,-3.8464,-3.8972,-3.9597,-4.0236,-4.0797,-4.0797,-4.0797,-4.0797,-4.0797,-4.0797,-4.0797,0.0,0.0,0.0,-1.3398,-1.4392,-1.5173,-1.5175,-1.5917,-1.6483,0.0,0.0,0.0,-1.6543,-1.7265,-1.7637,-1.7266,-1.6914,-1.6484,-1.5977,-1.5605,-1.539,-1.5407,-1.5396,-1.5376,-1.5349,-1.4826,-1.4118,-1.3245,-1.3245,-1.3322,-1.3477,-1.4351,-1.5746,-1.7506,-1.7506,-1.8181,-1.9203,-1.7484,0.0,0.0,-2.3964,0.0,0.0,-2.7886,-2.8722,0.0,0.0,0.0,-3.0211,-2.936,-2.7252,0.0,0.0,0.0,0.0,-1.7448,-1.8916,-2.0463,-1.8241,-1.9264,-2.0695,0.0,0.0,0.0,0.0,0.0,0.0,0.0,0.0,0.0,0.0,0.0,0.0,0.0,0.0,0.0,0.0,0.0,0.0,0.0,0.0,0.0,0.0,0.0,0.0,0.0,-3.5704,-3.5704,-3.5704,-3.5704,-3.5704,-3.5704,-3.5704,-3.5704,-3.5704,-3.5704,-3.5704,-3.5704,-3.5704,-3.5704,-3.5723,-3.6187,-3.64,-3.6439,-3.6942,-3.7348,-3.769,-3.8199,-3.9133,-4.0255,-4.0255,-4.0487,-4.0797,-4.0797,-4.0797,-4.0797,0.0,0.0,-1.4391,-1.4391,-1.5758,-1.6889,-1.6968,-1.7554,-1.8062,0.0,-1.8299,-1.8359,-1.8555,-1.9101,-1.9179,-1.8496,-1.7461,-1.6836,-1.6836,-1.5937,-1.5391,-1.5391,-1.5407,-1.5395,-1.5396,-1.5326,-1.4863,-1.4007,-1.4001,-1.3593,-1.286,-1.3631,-1.4467,-1.5306,-1.5306,-1.6135,-1.7446,-1.6348,0.0,-2.2961,-2.5236,-2.6532,0.0,0.0,-2.9553,0.0,-3.1405,-3.1947,-3.1811,-3.0907,-2.8006,0.0,0.0,0.0,0.0,0.0,-2.0002,-2.1611,-1.9863,-2.0659,-2.192,0.0,0.0,0.0,-2.319,-2.3171,0.0,0.0,0.0,0.0,0.0,0.0,0.0,0.0,0.0,0.0,0.0,0.0,0.0,0.0,0.0,0.0,0.0,0.0,-3.5414,-3.5414,-3.5414,-3.5414,-3.5414,-3.5491,-3.5549,-3.5549,-3.5646,-3.5704,-3.5704,-3.5704,-3.5704,-3.5704,-3.5704,-3.5704,-3.5704,-3.5704,-3.5704,-3.5704,-3.5704,-3.611,-3.6767,-3.6767,-3.7793,-3.9365,-3.9365,-3.9887,-4.0661,-4.0661,-4.0719,-4.0797,0.0,-1.5601,-1.6187,-1.6188,-1.7045,-1.798,-1.8687,-1.8335,-1.8491,-1.9901,-2.0097,-2.0625,-2.2031,-2.1074,-2.0566,-2.1094,-1.9062,-1.7754,-1.7754,-1.6269,-1.5391,-1.5391,-1.5407,-1.5401,-1.5398,-1.5339,-1.4877,-1.4,-1.4,-1.3902,-1.3747,-1.3921,-1.4467,-1.5306,-1.5306,-1.548,-1.5942,-1.8374,0.0,-2.1978,-2.2478,0.0,-2.9882,-3.0211,-3.1178,-3.2391,-3.2739,-3.2856,-3.2623,0.0,-2.9573,-2.7909,0.0,0.0,0.0,0.0,0.0,-2.3348,-2.1646,-2.2439,-2.3229,-2.1179,0.0,0.0,0.0,-2.1046,0.0,0.0,0.0,0.0,0.0,0.0,0.0,0.0,0.0,0.0,0.0,0.0,0.0,0.0,0.0,0.0,0.0,0.0,-3.361,-3.361,-3.361,-3.361,-3.361,-3.4272,-3.4645,-3.4645,-3.5342,-3.5704,-3.5704,-3.5704,-3.5704,-3.5704,-3.5704,-3.5704,-3.5704,-3.5704,-3.5704,-3.5704,-3.5704,-3.5781,-3.5936,-3.5936,-3.6922,-3.845,-3.845,-3.8992,-3.9752,-3.9752,-4.0197,-4.0797,-1.5403,-1.6458,-1.7356,-1.7357,-1.8429,-1.9581,-2.0463,-2.0229,-2.0405,-2.1677,-2.2225,-2.2656,-2.3105,-2.2754,-2.2324,-2.1934,-2.0293,-1.8926,-1.8066,-1.6777,-1.5859,-1.543,-1.5409,-1.5406,-1.5402,-1.5367,-1.5128,-1.4649,-1.4254,-1.3833,-1.3408,-1.3812,-1.4471,-1.5324,-1.5756,-1.6406,-1.7274,0.0,-2.0115,-2.1881,-2.399,0.0,-3.0598,-3.0598,-3.1913,-3.3692,-3.3262,-3.3378,-3.3499,-3.1777,-3.0636,0.0,0.0,-2.6111,-2.5689,0.0,-2.4138,-2.5082,0.0,-2.3886,-2.4544,-2.3264,0.0,0.0,0.0,0.0,0.0,0.0,0.0,0.0,0.0,0.0,0.0,0.0,0.0,0.0,0.0,0.0,0.0,0.0,0.0,0.0,0.0,0.0,-3.3107,-3.3107,-3.3107,-3.3107,-3.3107,-3.3513,-3.375,-3.375,-3.4176,-3.4601,-3.5051,-3.5051,-3.5264,-3.5704,-3.5704,-3.5704,-3.5704,-3.5704,-3.5704,-3.5704,-3.5704,-3.5704,-3.5704,-3.5704,-3.6207,-3.7,-3.7386,-3.8083,-3.8856,-3.8856,-3.9127,-3.9495,-1.5402,-1.6807,-1.7958,-1.7783,-1.9325,-2.0849,-2.1536,-2.1653,-2.2006,-2.2964,-2.4156,-2.4626,-2.3925,-2.4335,-2.4237,-2.3222,-2.1738,-2.0312,-1.9062,-1.7715,-1.6719,-1.6172,-1.5664,-1.5566,-1.5893,-1.5579,-1.537,-1.5328,-1.4502,-1.3738,-1.3056,-1.3712,-1.4487,-1.5357,-1.6389,-1.7709,-1.9087,0.0,0.0,-2.2733,0.0,-2.87,-3.0153,-3.0636,-3.2218,-3.412,-3.3747,-3.4052,-3.4386,-3.2658,0.0,-3.0651,-2.8034,-2.769,0.0,0.0,0.0,0.0,0.0,0.0,0.0,0.0,0.0,-2.4931,0.0,0.0,0.0,-2.4776,0.0,0.0,0.0,0.0,0.0,0.0,0.0,0.0,0.0,0.0,0.0,0.0,0.0,0.0,0.0,0.0,-3.1947,-3.2101,-3.2121,-3.2198,-3.2353,-3.2662,-3.2856,-3.2856,-3.301,-3.3436,-3.4137,-3.4156,-3.4587,-3.5458,-3.5458,-3.5535,-3.5704,-3.5704,-3.5704,-3.5704,-3.5704,-3.5704,-3.5704,-3.5704,-3.5704,-3.5762,-3.6419,-3.7193,-3.7941,-3.7941,-3.8057,-3.8193,-1.5402,-1.6807,-1.7763,-1.6982,-1.8934,-2.0633,-2.0731,-2.0751,-2.1318,-2.2883,-2.5209,-2.6676,-2.6578,-2.5953,-2.6109,-2.7457,-2.4001,-2.197,-2.2498,0.0,-1.8144,-1.8828,-1.6641,-1.6113,-1.7676,-1.6188,-1.5401,-1.5398,-1.452,-1.4058,-1.3958,-1.4054,-1.4544,-1.5463,-1.7047,-1.8293,-1.9282,0.0,-2.2732,0.0,-2.6431,-2.748,0.0,-3.081,-3.2361,-3.353,-3.4974,-3.5514,-3.5297,0.0,-3.3022,-3.2525,0.0,-2.9113,0.0,0.0,0.0,0.0,0.0,0.0,0.0,0.0,-2.6536,0.0,0.0,0.0,-2.4815,-2.3461,0.0,0.0,0.0,0.0,0.0,0.0,0.0,0.0,0.0,0.0,0.0,0.0,0.0,0.0,0.0,0.0,0.0,-2.8513,-2.8571,-2.8919,-2.9689,-3.1134,-3.1947,-3.1947,-3.2701,-3.3146,-3.3242,-3.3242,-3.3692,-3.4549,-3.4549,-3.4955,-3.5704,-3.5704,-3.5704,-3.5704,-3.5704,-3.5704,-3.5704,-3.5704,-3.5704,-3.5704,-3.58,-3.6323,-3.7058,-3.7058,-3.7535,-3.8193,-1.5402,-1.6807,-1.7724,-1.6845,-1.8856,-2.077,-2.128,-2.304,-2.4388,-2.4585,-2.5992,-2.7183,-2.769,-2.7437,0.0,0.0,0.0,-2.4351,0.0,0.0,-2.0193,-2.0057,-1.8515,-1.7773,-1.8007,-1.6797,-1.5915,-1.5402,-1.4523,-1.4091,-1.4101,-1.4101,-1.5348,-1.7648,-1.8343,-2.0243,-2.29,0.0,-2.3367,0.0,0.0,0.0,0.0,-3.0743,-3.2795,-3.4169,-3.5377,-3.5774,-3.5499,0.0,-3.3284,0.0,0.0,0.0,0.0,0.0,0.0,0.0,0.0,0.0,0.0,0.0,0.0,0.0,0.0,0.0,-2.4679,0.0,0.0,0.0,0.0,0.0,0.0,0.0,0.0,0.0,0.0,0.0,0.0,0.0,0.0,0.0,0.0,0.0,0.0,0.0,0.0,-2.7851,-2.9229,-2.9979,-3.0578,-3.1101,-3.1463,-3.1869,-3.2333,-3.2353,-3.2778,-3.3654,-3.3654,-3.4098,-3.4955,-3.4955,-3.5226,-3.5704,-3.5704,-3.5704,-3.5704,-3.5704,-3.5704,-3.5704,-3.5704,-3.5916,-3.6207,-3.6207,-3.6439,-3.6748,-1.5753,-1.6787,-1.7431,-1.6805,-1.866,-2.0614,-2.173,-2.4407,-2.6145,-2.5756,-2.6673,-2.7766,-2.8879,-2.8996,0.0,0.0,-2.8683,-2.7141,0.0,0.0,-2.2651,-2.2027,-2.0486,0.0,0.0,-1.7753,-1.6621,-1.5759,-1.4648,-1.4218,-1.4449,-1.4214,-1.5813,-1.8895,-1.9375,-2.171,-2.5194,0.0,0.0,-2.6138,-2.7147,-2.8117,-2.9221,-3.1512,-3.3436,-3.5003,-3.563,-3.5845,-3.5619,-3.4166,-3.3684,0.0,-3.1893,0.0,0.0,0.0,0.0,0.0,-2.8977,0.0,0.0,0.0,0.0,0.0,0.0,0.0,0.0,0.0,0.0,0.0,0.0,0.0,0.0,0.0,0.0,0.0,0.0,0.0,0.0,0.0,0.0,0.0,0.0,0.0,0.0,0.0,0.0,0.0,-2.8509,-2.9031,-2.9592,-3.0211,-3.0482,-3.0888,-3.1463,-3.1463,-3.1908,-3.2739,-3.2739,-3.3325,-3.4394,-3.4394,-3.4877,-3.5704,-3.5704,-3.5704,-3.5704,-3.5704,-3.5704,-3.5704,-3.5704,-3.5704,-3.5704,-3.5704,-3.5704,-3.5704,-1.6669,-1.6708,-1.6727,-1.6708,-1.8152,-1.9928,-2.1646,-2.3364,-2.4789,0.0,0.0,0.0,0.0,0.0,0.0,0.0,0.0,-3.0315,-2.9459,0.0,-2.5576,0.0,0.0,-2.0934,0.0,0.0,-1.7538,-1.6659,-1.4941,-1.4531,-1.5332,-1.4492,-1.5508,-1.8105,-1.9805,-2.2009,-2.4495,-2.528,-2.7492,-3.0427,-2.9706,-3.1422,-3.4375,0.0,-3.4358,-3.5788,-3.5931,0.0,0.0,-3.4941,-3.4662,0.0,0.0,0.0,0.0,0.0,0.0,0.0,0.0,0.0,0.0,-2.8712,0.0,0.0,0.0,0.0,-2.6416,0.0,0.0,0.0,0.0,0.0,-2.3886,-2.3039,-2.2903,0.0,0.0,0.0,0.0,0.0,0.0,0.0,0.0,0.0,0.0,0.0,0.0,0.0,-2.6687,-2.8373,-2.9306,-2.9345,-3.0153,-3.0617,-3.0636,-3.0636,-3.1043,-3.1831,-3.1831,-3.2745,-3.4394,-3.4394,-3.4877,-3.5704,-3.5704,-3.5704,-3.5704,-3.5704,-3.5704,-3.5704,-3.5704,-3.5704,-3.5704,-3.5704,-3.5704,-3.5704,-1.8426,-1.8426,-1.823,0.0,0.0,-2.1588,-2.3285,-2.5004,0.0,0.0,0.0,0.0,0.0,0.0,-3.4489,0.0,0.0,-3.2773,-3.135,-2.9398,0.0,0.0,0.0,-2.384,0.0,0.0,-1.9861,-1.8415,-1.7831,-1.7402,-1.7109,-1.6816,-1.7773,-1.9766,-2.0937,-2.3203,0.0,0.0,0.0,0.0,0.0,-3.2968,-3.5527,0.0,0.0,-3.5949,-3.5976,-3.5996,0.0,-3.5644,-3.5176,-3.4647,-3.4336,-3.3649,-3.2962,-3.2937,-3.2903,0.0,0.0,0.0,-3.3044,-3.0411,0.0,0.0,0.0,0.0,0.0,0.0,0.0,0.0,0.0,0.0,-2.4099,-2.3809,-2.2826,-2.1511,0.0,0.0,0.0,0.0,0.0,0.0,0.0,0.0,0.0,0.0,0.0,0.0,0.0,-2.7813,-2.8707,-2.9287,-3.0153,-3.0598,-3.0598,-3.0598,-3.0733,-3.1004,-3.1004,-3.1584,-3.2687,-3.2687,-3.346,-3.4839,-3.4839,-3.5168,-3.5704,-3.5704,-3.5704,-3.5704,-3.5704,-3.5693,-3.5703,-3.5692,-3.5704,-3.5704,-2.0124,-2.0202,0.0,0.0,0.0,0.0,0.0,0.0,0.0,0.0,-3.1133,0.0,-3.5369,0.0,-3.6597,0.0,-3.6404,-3.5214,-3.3163,-3.2013,0.0,-3.006,-2.8404,0.0,0.0,0.0,0.0,-2.0229,-1.9606,-1.9002,-1.8455,-1.8144,-1.8925,-2.0644,-2.1504,-2.3633,-2.6621,0.0,-2.9549,0.0,0.0,-3.4491,0.0,0.0,-3.5994,-3.5996,0.0,-3.5994,-3.5994,-3.5994,-3.5621,-3.5151,-3.5151,-3.4569,-3.3867,-3.3867,-3.3826,-3.3722,-3.3429,-3.395,0.0,-3.1711,-3.1143,0.0,-2.7831,0.0,0.0,0.0,0.0,0.0,0.0,0.0,-2.4571,-2.4274,-2.3047,-2.1317,0.0,0.0,0.0,0.0,0.0,0.0,0.0,0.0,-2.1375,-2.2787,0.0,0.0,0.0,0.0,-2.7948,-2.8803,-2.9669,-3.0288,-3.0598,-3.0598,-3.0598,-3.0598,-3.0598,-3.1023,-3.1792,-3.1792,-3.2585,-3.3944,-3.4278,-3.4724,-3.5301,-3.5587,-3.5708,-3.5741,-3.5741,-3.5736,-3.5733,-3.5703,-3.5703,-3.5703,0.0,0.0,0.0,0.0,-2.2817,0.0,0.0,0.0,-3.1075,0.0,-3.371,-3.5486,-3.7223,-3.7458,-3.7809,-3.8591,-3.8669,0.0,-3.5057,-3.4842,0.0,0.0,-3.0976,-3.0156,-2.8518,-2.6743,0.0,-2.216,-2.0366,-1.9468,-1.941,-1.8531,-1.9019,-2.0641,-2.1541,0.0,-2.5876,-2.8494,-3.1091,-3.3607,-3.5327,-3.5991,-3.5991,-3.6006,-3.6009,-3.5994,-3.5992,-3.5991,-3.5991,-3.5991,-3.5991,-3.5991,-3.5991,-3.5424,-3.476,-3.476,-3.476,-3.4584,-3.3744,-3.4081,-3.4276,-3.2635,0.0,0.0,0.0,0.0,-2.9115,0.0,0.0,0.0,0.0,0.0,0.0,-2.4491,-2.3533,-2.1743,0.0,0.0,0.0,0.0,0.0,0.0,0.0,0.0,-2.0173,-2.2594,-2.213,0.0,0.0,0.0,-2.7054,-2.7972,-2.8842,-2.9727,-3.0598,-3.0598,-3.0598,-3.0598,-3.0598,-3.1004,-3.1734,-3.1739,-3.2227,-3.3098,-3.3964,-3.439,-3.4567,-3.538,-3.5735,-3.5794,-3.5794,-3.5797,-3.5791,-3.5737,-3.5702,-3.5702,-2.2857,-2.3814,-2.4653,0.0,-2.4398,-2.514,0.0,0.0,0.0,0.0,-3.5154,-3.7282,-3.8961,-3.9741,-3.9956,-3.9527,-3.9488,0.0,0.0,0.0,0.0,-3.4724,-3.3416,-3.2226,-3.1153,-2.883,0.0,-2.569,-2.3292,-2.1829,-2.1204,-2.0347,-2.0172,-2.066,0.0,0.0,-2.5876,-2.8493,-3.144,-3.4463,-3.5551,-3.6002,0.0,0.0,-3.6001,-3.6008,-3.6007,-3.6006,-3.6006,-3.6006,-3.6003,-3.5998,-3.5998,-3.5841,-3.5666,-3.5666,-3.5666,-3.5627,-3.5392,-3.5474,-3.5364,-3.4238,-3.3496,-3.2695,0.0,0.0,0.0,0.0,0.0,0.0,0.0,0.0,0.0,-2.5321,-2.3906,-2.2381,0.0,0.0,0.0,0.0,0.0,0.0,0.0,0.0,-2.0344,-2.0982,0.0,0.0,0.0,0.0,0.0,-2.7952,-2.8842,-2.9727,-3.0598,-3.0598,-3.0598,-3.0598,-3.0598,-3.0714,-3.0907,-3.0913,-3.1375,-3.2256,-3.3183,-3.3935,-3.4569,-3.5429,-3.5788,-3.5799,-3.5799,-3.5822,-3.5878,-3.5799,-3.5768,-3.5778,-2.475,0.0,0.0,-2.7405,0.0,0.0,-2.9747,0.0,0.0,-3.4255,-3.6482,0.0,-3.9175,-4.0367,-4.0894,-4.0405,-4.0366,0.0,0.0,0.0,0.0,-3.6617,-3.5621,-3.4705,-3.3827,-3.1289,0.0,-2.7562,0.0,-2.3056,-2.1884,-2.1008,-2.0598,-2.0677,0.0,-2.3861,0.0,-2.9112,-3.2234,-3.4788,-3.5642,0.0,0.0,-3.5994,-3.5995,-3.6,-3.6,-3.6,-3.6,-3.6,-3.5996,-3.5992,-3.5992,-3.5992,-3.5992,-3.5992,-3.5992,-3.5992,-3.5992,-3.5992,-3.5879,-3.5345,-3.4874,-3.4209,-3.291,-3.2988,-3.2969,0.0,0.0,0.0,0.0,0.0,0.0,0.0,0.0,0.0,0.0,0.0,0.0,0.0,0.0,0.0,0.0,0.0,0.0,0.0,0.0,0.0,0.0,0.0,0.0,-2.7952,-2.8474,-2.9326,-3.0598,-3.0598,-3.0598,-3.0598,-3.0598,-3.0606,-3.0595,-3.0593,-3.0889,-3.1432,-3.2344,-3.3225,-3.4077,-3.4935,-3.5528,-3.5889,-3.5889,-3.5914,-3.5937,-3.5908,-3.5871,-3.5849,0.0,0.0,0.0,0.0,0.0,0.0,0.0,-3.3417,0.0,-3.6129,0.0,-3.8923,-3.8923,-4.0231,-4.1109,-4.1109,0.0,-4.0485,-3.9021,-3.9585,-3.9273,-3.7692,-3.7633,-3.7165,-3.6187,-3.3612,0.0,0.0,0.0,0.0,-2.2036,-2.1061,-2.0652,-2.0847,0.0,0.0,0.0,-3.0099,-3.3105,0.0,-3.5641,-3.5992,-3.5992,-3.5992,-3.5992,-3.5992,-3.5992,-3.5992,-3.5992,-3.5992,-3.5992,-3.5992,-3.5992,-3.5992,-3.5992,-3.5992,-3.5992,-3.5992,-3.5992,-3.5992,-3.5992,-3.5992,-3.5992,-3.5603,-3.4087,-3.3736,-3.3522,-3.2779,-3.1278,-3.0518,0.0,0.0,0.0,0.0,0.0,0.0,0.0,0.0,0.0,0.0,0.0,0.0,0.0,0.0,0.0,0.0,0.0,0.0,0.0,0.0,0.0,-2.7778,-2.7933,0.0,-3.0404,0.0,-3.0607,-3.0601,-3.0606,-3.0603,-3.0613,-3.0622,-3.0662,-3.0767,-3.1765,-3.2642,-3.3475,-3.4392,-3.5254,-3.6009,-3.6009,-3.6009,-3.6009,-3.6009,-3.5957,-3.5911,0.0,0.0,0.0,0.0,0.0,-3.4725,-3.6169,-3.6521,-3.6989,-3.8006,-3.9606,-4.066,-4.066,-4.0914,-4.1109,-4.1109,-4.1109,0.0,0.0,0.0,0.0,-3.9409,-3.9351,-3.8648,-3.7106,-3.451,-3.2245,0.0,0.0,0.0,-2.2857,-2.1316,-2.0983,-2.1705,0.0,0.0,-2.8831,-3.1134,0.0,-3.4783,-3.5641,-3.5992,-3.5992,-3.5992,-3.5992,-3.5992,-3.5992,-3.5992,-3.5992,-3.5992,-3.5992,-3.5992,-3.5992,-3.5992,-3.5992,-3.5992,-3.5992,-3.5992,-3.5992,-3.5992,-3.5992,-3.5992,-3.5992,-3.5914,-3.5603,-3.5545,-3.5506,-3.5349,-3.3945,-3.26,-3.2173,0.0,0.0,0.0,0.0,0.0,0.0,0.0,0.0,0.0,0.0,0.0,0.0,0.0,0.0,0.0,0.0,0.0,0.0,0.0,0.0,0.0,-2.7619,0.0,0.0,0.0,-3.0606,-3.0593,-3.0669,-3.0673,-3.0689,-3.0742,-3.0774,-3.0875,-3.2459,-3.3253,-3.3523,-3.5105,-3.5844,-3.5996,-3.5996,-3.5996,-3.5998,-3.6003,-3.5988,-3.5974,0.0,0.0,0.0,0.0,0.0,0.0,0.0,-4.0034,0.0,-3.9958,-4.0602,-4.1109,-4.1109,-4.191,-4.2456,-4.2456,-4.2045,-4.1771,-4.1771,-4.1343,-4.0914,-4.0483,-4.0034,0.0,-3.8609,-3.607,-3.367,-3.1465,0.0,0.0,-2.3072,-2.1842,-2.1509,-2.1978,0.0,-2.6371,0.0,0.0,0.0,-3.4783,-3.5641,-3.5992,-3.5992,-3.5992,-3.5992,-3.5992,-3.5992,-3.5992,-3.5992,-3.5992,-3.5992,-3.5992,-3.5992,-3.5992,-3.5992,-3.5992,-3.5992,-3.5992,-3.5992,-3.5992,-3.5992,-3.5992,-3.5992,-3.5992,-3.5992,-3.5992,-3.5992,-3.5992,-3.4606,-3.2872,-3.112,-2.941,0.0,0.0,0.0,0.0,0.0,0.0,0.0,0.0,0.0,0.0,0.0,0.0,0.0,0.0,0.0,0.0,0.0,0.0,0.0,0.0,0.0,0.0,0.0,0.0,0.0,-3.0649,-3.0672,-3.0714,-3.0748,-3.0797,-3.0801,-3.0856,-3.1685,-3.2557,-3.3533,-3.529,-3.5992,-3.5992,-3.5992,-3.5992,-3.5992,-3.5998,-3.6001,-3.6007,0.0,-3.4042,0.0,0.0,-3.8141,0.0,-4.1168,-4.2864,-4.3411,-4.1851,-4.1656,-4.1656,-4.1656,-4.2886,-4.3705,-4.3705,-4.3079,-4.2689,-4.2689,-4.1869,-4.1382,-4.1382,-4.0542,-3.9995,-3.98,-3.7495,-3.4998,0.0,0.0,0.0,0.0,-2.2622,-2.2349,0.0,0.0,0.0,0.0,0.0,-3.3651,-3.533,-3.6208,-3.6558,-3.6558,-3.6558,-3.6558,-3.6558,-3.6558,-3.6558,-3.6519,-3.6344,-3.6148,-3.5992,-3.5992,-3.5992,-3.5992,-3.5992,-3.5992,-3.5992,-3.5992,-3.5992,-3.5992,-3.5992,-3.5992,-3.5992,-3.5992,-3.5992,-3.5953,-3.5758,-3.4333,-3.2403,-3.0045,-2.9186,0.0,0.0,0.0,0.0,0.0,0.0,0.0,0.0,0.0,0.0,0.0,0.0,0.0,0.0,0.0,0.0,-2.0334,-2.1827,0.0,0.0,0.0,-2.8404,-2.9047,0.0,-3.0714,0.0,-3.0723,-3.0751,-3.0801,-3.0801,-3.0798,-3.08,-3.0995,-3.2069,-3.3806,-3.5368,-3.5992,-3.5992,-3.5992,-3.5992,-3.5992,-3.5992,-3.5996,-3.6002,0.0,0.0,0.0,0.0,0.0,0.0,0.0,-4.3762,-4.4543,-4.3587,-4.3452,-4.3452,-4.3452,-4.3608,-4.3705,-4.3705,-4.3626,-4.3587,-4.3587,-4.2767,-4.2279,-4.2279,-4.1439,-4.06,-3.9819,-3.8082,-3.5896,0.0,0.0,0.0,0.0,0.0,0.0,0.0,0.0,0.0,0.0,-3.371,-3.5467,-3.7126,-3.8006,-3.8357,-3.8357,-3.8357,-3.8357,-3.8357,-3.8357,-3.8357,-3.824,-3.7438,-3.6656,-3.5992,-3.5992,-3.5992,-3.5992,-3.5992,-3.5992,-3.5992,-3.5992,-3.5992,-3.5992,-3.5992,-3.5992,-3.5992,-3.5992,-3.5992,-3.5778,-3.4979,-3.3437,-3.1681,-2.9924,-3.0139,-3.0061,0.0,0.0,0.0,0.0,0.0,0.0,0.0,0.0,0.0,0.0,0.0,0.0,0.0,0.0,0.0,-2.0311,-2.129,-2.2976,-2.5527,0.0,-2.8149,-2.8207,-2.9868,-3.0721,-3.0796,-3.08,-3.078,-3.0805,-3.0805,-3.0804,-3.0839,-3.1641,-3.2968,-3.4647,-3.5602,-3.5992,-3.5992,-3.5992,-3.5992,-3.5992,-3.5992,-3.5992,-3.5994,0.0,0.0,0.0,0.0,0.0,0.0,0.0,-4.5324,-4.5656,-4.5304,-4.5265,-4.5265,-4.5265,-4.5265,-4.5265,-4.5265,-4.4777,-4.4484,-4.4484,-4.3665,-4.3177,-4.3177,-4.2357,-4.1713,-4.1361,-3.9683,-3.7536,0.0,0.0,0.0,0.0,0.0,0.0,0.0,0.0,-3.2518,-3.453,-3.574,-3.695,-3.8103,-3.8454,-3.8591,-3.8591,-3.8591,-3.8591,-3.8591,-3.8591,-3.8591,-3.8552,-3.8201,-3.7849,-3.7379,-3.6324,-3.6363,-3.6677,-3.6148,-3.5992,-3.5992,-3.5992,-3.5992,-3.5992,-3.5992,-3.5992,-3.5992,-3.5992,-3.5992,-3.5758,-3.4881,-3.33,-3.1738,-3.0548,-3.0196,-3.0021,0.0,0.0,0.0,0.0,0.0,0.0,0.0,0.0,0.0,0.0,0.0,0.0,0.0,0.0,0.0,0.0,-2.0485,0.0,-2.4699,0.0,-2.8152,-2.8152,-2.9888,-3.0779,-3.0801,-3.0798,-3.081,-3.08,-3.08,-3.08,-3.0878,-3.2265,-3.328,-3.4022,-3.5426,-3.5992,-3.5992,-3.5992,-3.5992,-3.5992,-3.5992,-3.5992,-3.5992,-4.2201,0.0,-4.1986,0.0,-4.3957,-4.4172,-4.6027,-4.63,-4.63,-4.63,-4.63,-4.63,-4.63,-4.63,-4.63,-4.63,-4.5734,-4.5382,-4.5382,-4.4563,-4.4075,-4.4075,-4.3255,0.0,-4.2786,-4.1069,-3.9175,-3.7124,-3.5133,0.0,0.0,0.0,0.0,0.0,-3.3494,-3.4997,-3.6441,-3.7555,-3.8394,-3.8982,-3.9235,-3.9333,-3.9333,-3.9333,-3.9333,-3.9333,-3.9333,-3.9333,-3.9294,-3.904,-3.9118,-3.9021,-3.7301,-3.7184,-3.7516,-3.6636,-3.6383,-3.6324,-3.607,-3.5992,-3.5992,-3.5992,-3.5992,-3.5992,-3.5992,-3.5992,-3.568,-3.4549,-3.2929,-3.1524,-3.0917,-3.0333,-3.006,-3.0392,0.0,0.0,0.0,0.0,0.0,0.0,0.0,-2.4696,-2.408,0.0,0.0,0.0,0.0,0.0,0.0,0.0,0.0,0.0,0.0,0.0,0.0,-3.0058,-3.0799,-3.0799,-3.0809,-3.08,-3.08,-3.08,-3.0937,-3.127,-3.2752,-3.3552,-3.3904,-3.5387,-3.5992,-3.5992,-3.5992,-3.5992,-3.5992,-3.5992,-3.5992,-3.5992,-4.4777,-4.4932,-4.5226,-4.6105,-4.6261,-4.6261,-4.63,-4.63,-4.63,-4.63,-4.63,-4.63,-4.63,-4.63,-4.63,-4.63,-4.628,-4.628,-4.628,-4.548,-4.4971,0.0,0.0,-4.3686,-4.3686,-4.1988,-4.0659,-3.9741,0.0,0.0,-3.4608,0.0,-3.3807,-3.4686,-3.5563,-3.6461,-3.7399,-3.9058,-3.978,-3.9858,-4.0719,-4.107,-4.107,-4.107,-4.107,-4.107,-4.107,-4.107,-4.0934,-4.0073,-4.0366,-4.0777,-3.9099,-3.8572,-3.8415,-3.7536,-3.7282,-3.7106,-3.6226,-3.5992,-3.5992,-3.5992,-3.5992,-3.5992,-3.5992,-3.5992,-3.5504,-3.3767,-3.203,-3.08,-3.08,-3.0781,-3.0528,-2.9749,0.0,0.0,0.0,0.0,0.0,0.0,0.0,-2.313,-2.3112,0.0,0.0,0.0,0.0,0.0,0.0,0.0,0.0,-2.6762,-2.7733,0.0,-2.9472,-3.0361,-3.0801,-3.0801,-3.08,-3.08,-3.08,-3.08,-3.127,-3.213,-3.3027,-3.3886,-3.4744,-3.5641,-3.5992,-3.5992,-3.5992,-3.5992,-3.5992,-3.5992,-3.5992,-3.5992,-4.5831,-4.589,-4.5968,-4.6241,-4.63,-4.63,-4.63,-4.63,-4.63,-4.63,-4.63,-4.63,-4.63,-4.63,-4.63,0.0,-4.63,-4.63,0.0,-4.6046,-4.589,-4.589,-4.5051,-4.4582,-4.4582,-4.345,-4.2454,-4.1576,0.0,0.0,0.0,-3.6189,-3.6813,-3.8199,-3.8473,-3.9078,-3.9938,-4.0464,-4.0698,-4.0717,-4.0992,-4.1109,-4.1109,-4.1109,-4.1109,-4.1109,-4.1109,-4.1109,-4.1051,-4.0777,-4.0875,-4.1012,-4.0465,-3.9899,-3.9253,-3.8435,-3.777,-3.7243,-3.697,-3.6441,-3.5992,-3.5992,-3.5992,-3.5992,-3.5992,-3.5075,-3.4079,-3.3513,-3.201,-3.08,-3.08,-3.08,-3.0722,-3.047,-2.924,0.0,0.0,0.0,0.0,0.0,0.0,-2.4868,0.0,-2.3309,0.0,0.0,0.0,0.0,0.0,0.0,0.0,0.0,-2.7497,0.0,-2.9562,-3.0395,-3.08,-3.08,-3.08,-3.08,-3.08,-3.08,-3.1289,-3.215,-3.3027,-3.3886,-3.4764,-3.5641,-3.5992,-3.5992,-3.5992,-3.5992,-3.5992,-3.5992,-3.5992,-3.5992,-4.6294,-4.6294,-4.6296,-4.63,-4.63,-4.63,-4.63,-4.63,-4.63,-4.63,-4.63,-4.63,-4.63,-4.63,0.0,-4.63,-4.63,-4.63,-4.63,-4.63,-4.63,-4.63,-4.5773,-4.55,-4.55,0.0,0.0,-4.3372,-4.1967,-4.0737,-3.9702,-3.9702,-4.0268,-4.1244,-4.0912,-4.1088,-4.1596,-4.1596,-4.1596,-4.1615,-4.1949,-4.189,-4.1596,-4.1596,-4.1382,-4.1109,-4.1109,-4.1109,-4.1109,-4.1109,-4.1109,-4.1109,-4.1109,-4.0738,-4.0132,-3.9294,-3.8668,-3.8102,-3.7477,-3.6891,-3.6402,-3.607,-3.5992,-3.5992,-3.5992,-3.4899,-3.3806,-3.3474,-3.2264,-3.1192,-3.0859,-3.08,-3.0703,-3.0392,-2.9201,-2.8186,-2.7854,0.0,0.0,0.0,0.0,0.0,0.0,-2.4516,0.0,0.0,0.0,0.0,0.0,0.0,0.0,-2.6616,-2.8054,0.0,-3.004,-3.0548,-3.08,-3.08,-3.08,-3.08,-3.08,-3.1133,-3.1758,-3.2636,-3.3515,-3.4374,-3.5232,-3.5778,-3.5992,-3.5992,-3.5992,-3.5992,-3.5992,-3.5992,-3.5992,-3.5992,-4.6253,-4.6272,0.0,0.0,-4.6275,0.0,-4.63,-4.63,-4.63,-4.63,-4.63,-4.63,-4.63,-4.63,-4.63,-4.63,0.0,0.0,0.0,-4.63,-4.63,-4.63,-4.63,-4.63,-4.63,-4.5519,-4.5068,-4.499,-4.4192,-4.3762,-4.3705,-4.3705,-4.3705,-4.3666,-4.2845,-4.2494,-4.2494,-4.2494,-4.2494,-4.2552,-4.3372,-4.3216,-4.2494,-4.2492,-4.1986,-4.1264,-4.1205,-4.1186,-4.1186,-4.1127,-4.1108,-4.1108,-4.1108,-4.1108,-4.0932,-4.0132,-3.9858,-3.9468,-3.7906,-3.7399,-3.7106,-3.6285,-3.6031,-3.5992,-3.5992,-3.533,-3.4471,-3.365,-3.2753,-3.1856,-3.1036,-3.0839,-3.0548,-2.9729,-2.8869,-2.7991,-2.7113,0.0,0.0,0.0,0.0,0.0,0.0,-2.5316,-2.5453,0.0,0.0,0.0,0.0,0.0,-2.5843,-2.8225,-2.9143,-2.9982,-3.0781,-3.08,-3.08,-3.08,-3.0859,-3.0898,-3.0917,-3.1797,-3.2675,-3.3533,-3.4354,-3.5193,-3.5992,-3.5992,-3.5992,-3.5992,-3.5992,-3.5992,-3.5992,-3.5992,-3.5992,-3.5992,0.0,0.0,-4.5954,-4.6053,-4.6075,-4.6122,-4.6284,-4.6296,-4.63,-4.63,-4.63,-4.63,-4.63,-4.63,-4.63,-4.63,-4.63,-4.63,-4.63,-4.63,-4.63,-4.63,-4.63,-4.63,-4.63,-4.6105,-4.5675,-4.499,-4.4797,-4.4348,-4.3705,-4.3705,-4.3705,-4.3686,-4.3489,-4.3391,-4.3391,-4.3391,-4.3391,-4.3411,-4.3626,-4.3587,-4.3391,-4.3384,-4.3263,-4.301,-4.2338,-4.208,-4.1983,-4.1317,-4.1103,-4.1103,-4.1103,-4.1103,-4.1068,-4.0851,-4.0327,-3.9702,-3.9312,-3.8277,-3.7243,-3.7048,-3.648,-3.5992,-3.5992,-3.533,-3.4647,-3.4432,-3.3163,-3.2032,-3.1836,-3.125,-3.0548,-2.9729,-2.8869,-2.7991,-2.7113,-2.6254,0.0,0.0,-2.6293,-2.6606,-2.6391,-2.6567,-2.6606,0.0,0.0,0.0,0.0,-2.7757,-2.8342,-2.8303,-2.9143,-2.9982,-3.0781,-3.08,-3.08,-3.08,-3.1465,-3.1797,-3.1816,-3.2695,-3.3573,-3.4393,-3.4608,-3.5193,-3.5992,-3.5992,-3.5992,-3.5992,-3.5992,-3.5992,-3.5992,-3.5992,-3.5992,-3.5992,-4.5809,-4.5809,-4.5814,-4.5894,-4.5901,-4.5949,-4.606,-4.6076,-4.6064,-4.6064,-4.6122,-4.6162,-4.6162,-4.6247,-4.63,-4.63,-4.63,-4.63,-4.63,-4.63,-4.63,-4.63,-4.63,-4.63,-4.63,-4.63,-4.6066,-4.5597,-4.5597,-4.5343,-4.4894,-4.4894,-4.4894,-4.4875,-4.4461,-4.4286,-4.4289,-4.4261,-4.4278,-4.4321,-4.4688,-4.4608,-4.4255,-4.4248,-4.4012,-4.3641,-4.3166,-4.2988,-4.2851,-4.1993,-4.1681,-4.1622,-4.123,-4.1093,-4.1096,-4.1092,-4.0762,-4.0313,-3.9909,-3.9149,-3.8252,-3.7495,-3.6931,-3.648,-3.609,-3.5621,-3.5174,-3.4783,-3.3944,-3.3047,-3.2247,-3.1719,-3.088,-2.9279,-2.8615,-2.7854,-2.6586,-2.6,0.0,-2.6254,-2.6703,-2.7152,-2.7562,-2.7582,-2.7582,-2.7582,0.0,0.0,-2.7621,-2.922,-2.9767,-2.8928,-2.9708,-3.0353,-3.08,-3.08,-3.08,-3.08,-3.168,-3.2091,-3.215,-3.3417,-3.4256,-3.4725,-3.5115,-3.5563,-3.5992,-3.5992,-3.5992,-3.5992,-3.5992,-3.5992,-3.5992,-3.5992,-3.5992,-3.5992,-4.572,-4.5728,-4.5722,-4.5757,-4.5751,-4.5757,-4.5802,-4.5808,-4.5789,-4.5789,-4.5901,-4.5974,-4.6006,-4.6156,-4.6271,-4.6298,-4.6298,-4.6298,-4.63,-4.63,-4.63,-4.63,-4.63,-4.63,-4.63,-4.63,-4.6298,-4.6298,-4.6296,-4.6277,-4.6277,-4.6277,-4.6277,-4.6257,-4.5506,-4.5174,-4.518,-4.5121,-4.5138,-4.5245,-4.5919,-4.5757,-4.5092,-4.5109,-4.466,-4.4058,-4.3938,-4.3877,-4.3743,-4.2866,-4.2573,-4.2437,-4.1557,-4.1284,-4.1264,-4.1147,-4.1108,-4.0935,-4.0207,-3.9897,-3.9394,-3.7726,-3.73,-3.7066,-3.6207,-3.5992,-3.5797,-3.5057,-3.4783,-3.4217,-3.2597,-3.2187,-3.1269,-2.8713,-2.8302,-2.7697,-2.5941,0.0,-2.6175,-2.6918,-2.723,-2.7679,-2.842,-2.8498,-2.8557,-2.8674,-2.924,-2.9339,0.0,-3.0039,-3.0489,-2.9807,-3.0431,-3.08,-3.08,-3.08,-3.08,-3.08,-3.1816,-3.2304,-3.2363,-3.41,-3.4901,-3.494,-3.568,-3.5992,-3.5992,-3.5992,-3.5992,-3.5992,-3.5992,-3.5992,-3.5992,-3.5992,-3.5992,-3.5992,-4.538,-4.538,-4.5419,-4.5533,-4.5552,-4.5603,-4.577,-4.5796,-4.5789,-4.5789,-4.5813,-4.5869,-4.5996,-4.6037,-4.6102,-4.6284,-4.6308,-4.6292,-4.63,-4.63,-4.63,-4.63,-4.63,-4.63,-4.63,-4.6292,-4.6308,-4.6308,-4.6238,-4.6214,-4.6214,-4.6214,-4.6214,-4.6214,-4.6075,-4.6016,-4.6019,-4.5994,-4.5994,-4.6014,-4.615,-4.6128,-4.5991,-4.5997,-4.5916,-4.5718,-4.4985,-4.4705,-4.4589,-4.3708,-4.3416,-4.326,-4.2383,-4.2107,-4.1974,-4.1292,-4.1097,-4.1064,-4.0933,-4.0355,-3.9403,-3.7716,-3.7308,-3.7076,-3.6205,-3.5992,-3.5953,-3.5836,-3.5213,-3.4393,-3.3377,-3.2592,-3.1264,-2.8712,-2.8297,-2.769,-2.594,0.0,-2.684,-2.6977,-2.8304,-2.9241,-2.9397,-2.9397,-2.9689,-3.0351,-2.9904,-2.9846,-3.0371,-3.0664,-3.0742,-3.0626,-3.0722,-3.08,-3.08,-3.08,-3.08,-3.082,-3.242,-3.3201,-3.326,-3.4997,-3.5797,-3.5817,-3.5934,-3.5992,-3.5992,-3.5992,-3.5992,-3.5992,-3.5992,-3.5992,-3.5992,-3.5992,-3.5992,-3.5992,-4.5307,-4.5307,-4.5319,-4.5381,-4.5391,-4.5419,-4.5509,-4.5524,-4.5533,-4.5533,-4.56,-4.5657,-4.5725,-4.583,-4.5964,-4.6121,-4.6148,-4.6167,-4.6243,-4.6275,-4.63,-4.63,-4.63,-4.63,-4.63,-4.629,-4.6303,-4.6303,-4.6233,-4.6206,-4.6206,-4.6206,-4.6206,-4.6206,-4.6121,-4.6087,-4.6091,-4.5983,-4.5954,-4.5983,-4.5954,-4.5925,-4.5925,-4.5934,-4.6003,-4.6048,-4.5646,-4.5539,-4.5478,-4.4598,-4.4306,-4.415,-4.327,-4.2685,-4.2237,-4.1867,-4.1448,-4.1106,-4.11,-4.0816,-4.0199,-3.8955,-3.8294,-3.773,-3.6856,-3.6309,-3.5999,-3.6004,-3.5674,-3.5128,-3.4269,-3.3389,-3.2254,-3.0614,-2.9556,0.0,0.0,-2.7687,-2.7824,-2.8292,-2.9053,-2.9739,-3.0191,-3.0251,-3.0409,-3.0761,-3.047,-3.0411,-3.0781,-3.08,-3.08,-3.08,-3.08,-3.08,-3.08,-3.08,-3.1036,-3.1524,-3.2791,-3.365,-3.4139,-3.5426,-3.5992,-3.5992,-3.5992,-3.5992,-3.5992,-3.5992,-3.5992,-3.5992,-3.5992,-3.5992,-3.5992,-3.5992,-3.5992,-3.5992,-4.5307,-4.5307,-4.5307,-4.5307,-4.5307,-4.5307,-4.5307,-4.5307,-4.5307,-4.5307,-4.5381,-4.5479,-4.5503,-4.5633,-4.5796,-4.5944,-4.5978,-4.6041,-4.6144,-4.6238,-4.6275,-4.6275,-4.6275,-4.6275,-4.6296,-4.6284,-4.6277,-4.6277,-4.6223,-4.6198,-4.6198,-4.6164,-4.6154,-4.6151,-4.5993,-4.5929,-4.592,-4.5777,-4.5724,-4.5764,-4.5717,-4.5703,-4.5703,-4.5703,-4.5796,-4.5919,-4.5919,-4.6032,-4.6053,-4.5371,-4.5172,-4.505,-4.4189,-4.3445,-4.2822,-4.2413,-4.1721,-4.1087,-4.1052,-4.1087,-4.0883,-3.9944,-3.9073,-3.8227,-3.7349,-3.6533,-3.5955,-3.5994,-3.5997,-3.5724,-3.4866,-3.4144,-3.3282,-3.2007,0.0,0.0,0.0,-2.8806,-2.8748,-2.9429,-2.9684,-3.0078,-3.0731,-3.0809,-3.0792,-3.0796,-3.0798,-3.0799,-3.0799,-3.0799,-3.0799,-3.0799,-3.08,-3.08,-3.08,-3.0995,-3.1446,-3.211,-3.3183,-3.4042,-3.4725,-3.5602,-3.5992,-3.5992,-3.5992,-3.5992,-3.5992,-3.5992,-3.5992,-3.5992,-3.5992,-3.5992,-3.5992,-3.5992,-3.5992,-3.5992,-4.5307,-4.5307,-4.5307,-4.5307,-4.5307,-4.5307,-4.5307,-4.5307,-4.5307,-4.5307,-4.5298,-4.5351,-4.55,-4.5516,-4.5595,-4.5803,-4.5928,-4.5998,-4.6005,-4.6138,-4.6211,-4.6211,-4.6211,-4.6236,-4.6306,-4.6242,-4.6209,-4.6209,-4.619,-4.6203,-4.6199,-4.606,-4.6017,-4.6012,-4.5809,-4.5731,-4.5731,-4.571,-4.571,-4.571,-4.571,-4.5703,-4.5703,-4.5703,-4.571,-4.5724,-4.5724,-4.5853,-4.5993,-4.5934,-4.5996,-4.5946,-4.5089,-4.4757,-4.4384,-4.2763,-4.1734,-4.1078,-4.0943,-4.1,-4.0831,-3.9703,-3.8869,-3.8085,-3.7214,-3.6388,-3.5849,-3.5977,-3.6005,-3.5732,-3.4856,-3.4653,-3.3791,-3.1299,0.0,0.0,-2.8512,-2.8943,-2.9429,-2.9487,-3.0211,-3.0719,-3.0799,-3.0799,-3.0799,-3.0799,-3.0809,-3.0794,-3.0794,-3.0794,-3.0794,-3.0794,-3.0798,-3.08,-3.08,-3.1602,-3.2032,-3.213,-3.3807,-3.4647,-3.4725,-3.5602,-3.5992,-3.5992,-3.5992,-3.5992,-3.5992,-3.5992,-3.5992,-3.5992,-3.5992,-3.5992,-3.5992,-3.5992,-3.5992,-3.5992,-4.5307,-4.5307,-4.5307,-4.5307,-4.5307,-4.5307,-4.5307,-4.5307,-4.5307,-4.5307,-4.5307,-4.5319,-4.538,-4.539,-4.5438,-4.5607,-4.5657,-4.5736,-4.582,-4.5867,-4.5987,-4.6184,-4.6206,-4.6209,-4.6233,-4.6215,-4.6164,-4.6076,-4.6069,-4.6008,-4.59,-4.5834,-4.5809,-4.5803,-4.565,-4.5579,-4.5571,-4.5491,-4.5446,-4.5446,-4.5446,-4.5446,-4.5446,-4.5446,-4.5498,-4.5579,-4.5579,-4.5679,-4.5809,-4.5809,-4.584,-4.5822,-4.5512,-4.5041,-4.4333,-4.2665,-4.1959,-4.1572,-4.0953,-4.0869,-4.0852,-4.0341,-3.958,-3.8747,-3.788,-3.7093,-3.6398,-3.585,-3.5846,-3.5829,-3.5443,-3.5015,-3.4545,-3.4031,0.0,-3.2352,-3.2199,-3.2026,-3.1928,-3.1928,-3.2201,-3.2205,-3.1664,-3.1605,-3.1375,-3.0837,-3.0803,-3.0804,-3.0804,-3.0804,-3.0804,-3.0804,-3.0806,-3.1066,-3.1602,-3.1934,-3.2638,-3.371,-3.4374,-3.4979,-3.5524,-3.5856,-3.5992,-3.5992,-3.5992,-3.5992,-3.5992,-3.5992,-3.5992,-3.5992,-3.5992,-3.5992,-3.5992,-3.5992,-3.6009,-3.6004,-4.5307,-4.5307,-4.5307,-4.5307,-4.5307,-4.5307,-4.5307,-4.5307,-4.5307,-4.5307,-4.5307,-4.5307,-4.5307,-4.5307,-4.5339,-4.5428,-4.5482,-4.5549,-4.5623,-4.5682,-4.5838,-4.6125,-4.6144,-4.6144,-4.6131,-4.6088,-4.5993,-4.5917,-4.5914,-4.5841,-4.5703,-4.566,-4.563,-4.5623,-4.5509,-4.5438,-4.5428,-4.535,-4.5307,-4.5307,-4.5307,-4.5307,-4.5307,-4.5307,-4.5361,-4.5438,-4.5438,-4.5524,-4.563,-4.563,-4.5667,-4.5703,-4.5703,-4.5142,-4.4285,-4.3185,-4.2471,-4.1881,-4.1203,-4.0893,-4.0736,-4.0614,-3.9951,-3.9174,-3.8569,-3.7845,-3.7024,-3.6156,-3.6088,-3.6098,-3.5795,-3.5343,-3.5112,-3.5412,-3.4497,-3.386,-3.4174,-3.371,-3.3354,-3.3395,-3.3397,-3.3166,-3.2569,-3.2257,-3.1852,-3.1256,-3.0948,-3.093,-3.1182,-3.1205,-3.1322,-3.1611,-3.1615,-3.2033,-3.2903,-3.2632,-3.3258,-3.4703,-3.4976,-3.5425,-3.5992,-3.6009,-3.6009,-3.5992,-3.6009,-3.6009,-3.5992,-3.6006,-3.6006,-3.6007,-3.6006,-3.6004,-3.6004,-3.6004,-3.6001,-3.5995,-4.5307,-4.5307,-4.5307,-4.5307,-4.5307,-4.5307,-4.5307,-4.5307,-4.5307,-4.5307,-4.5307,-4.5307,-4.5307,-4.5307,-4.5307,-4.5307,-4.5419,-4.549,-4.549,-4.5615,-4.5783,-4.5993,-4.5993,-4.5993,-4.5998,-4.5796,-4.5703,-4.5703,-4.5703,-4.5703,-4.5696,-4.5555,-4.549,-4.5481,-4.5361,-4.5307,-4.5307,-4.5307,-4.5307,-4.5307,-4.5307,-4.5307,-4.5307,-4.5307,-4.5307,-4.5307,-4.5307,-4.5381,-4.549,-4.549,-4.5587,-4.5703,-4.5703,-4.5155,-4.4516,-4.4497,-4.3272,-4.1885,-4.174,-4.1123,-4.0468,-4.0337,-3.9755,-3.9219,-3.9204,-3.8531,-3.7702,-3.6953,-3.6808,-3.6557,-3.5756,-3.5655,-3.5441,-3.4645,-3.4509,-3.4248,-3.3523,-3.3297,-3.3276,-3.3409,-3.3414,-3.3414,-3.3414,-3.2618,-3.2111,-3.2111,-3.13,-3.119,-3.2065,-3.2116,-3.2506,-3.3371,-3.3401,-3.3819,-3.4698,-3.3832,-3.3856,-3.4713,-3.5589,-3.6004,-3.5991,-3.6002,-3.6004,-3.5991,-3.6002,-3.6004,-3.601,-3.5994,-3.599,-3.5997,-3.6009,-3.6005,-3.6005,-3.6005,-3.6005,-3.6005,-4.5307,-4.5307,-4.5307,-4.5307,-4.5307,-4.5307,-4.5307,-4.5307,-4.5307,-4.5307,-4.5307,-4.5307,-4.5307,-4.5307,-4.5307,-4.5307,-4.5339,-4.5361,-4.5361,-4.5491,-4.5587,-4.565,-4.5743,-4.5796,-4.5783,-4.5737,-4.5653,-4.5555,-4.5555,-4.5507,-4.541,-4.5371,-4.5361,-4.5361,-4.5309,-4.5307,-4.5307,-4.5307,-4.5307,-4.5307,-4.5307,-4.5307,-4.5307,-4.5307,-4.5307,-4.5307,-4.5307,-4.5329,-4.5361,-4.5361,-4.5381,-4.5419,-4.5419,-4.5256,-4.4958,-4.4446,-4.3912,-4.325,-4.2027,-4.1519,-4.1171,-4.0471,-4.0137,-3.9818,-3.9206,-3.8933,-3.8554,-3.7629,-3.7089,-3.6708,-3.6427,-3.596,-3.5558,-3.5306,-3.5267,-3.52,-3.4981,-3.4919,-3.4909,-3.4942,-3.4942,-3.469,-3.4089,-3.3794,-3.3386,-3.2781,-3.2495,-3.2456,-3.2727,-3.2736,-3.2852,-3.3119,-3.3128,-3.354,-3.4421,-3.4347,-3.4707,-3.5469,-3.5741,-3.5861,-3.5864,-3.5751,-3.5774,-3.5844,-3.5767,-3.5725,-3.5733,-3.5817,-3.5855,-3.5864,-3.5955,-3.6005,-3.6005,-3.6005,-3.596,-3.5934,-4.5307,-4.5307,-4.5307,-4.5307,-4.5307,-4.5307,-4.5307,-4.5307,-4.5307,-4.5307,-4.5307,-4.5307,-4.5307,-4.5307,-4.5307,-4.5307,-4.5307,-4.5307,-4.5307,-4.539,-4.5419,-4.5419,-4.549,-4.5563,-4.5615,-4.5563,-4.5498,-4.5419,-4.5419,-4.5371,-4.5307,-4.5307,-4.5307,-4.5307,-4.5307,-4.5307,-4.5307,-4.5307,-4.5307,-4.5307,-4.5307,-4.5307,-4.5307,-4.5307,-4.5307,-4.5307,-4.5307,-4.5307,-4.5307,-4.5307,-4.5307,-4.5307,-4.5307,-4.5307,-4.5213,-4.4777,-4.4384,-4.3904,-4.2887,-4.212,-4.1489,-4.0912,-4.054,-4.0148,-3.9642,-3.9588,-3.9363,-3.8407,-3.7928,-3.745,-3.6753,-3.6304,-3.5918,-3.5577,-3.5519,-3.5537,-3.5582,-3.5548,-3.5537,-3.5582,-3.5607,-3.5394,-3.4867,-3.4494,-3.3947,-3.3072,-3.2995,-3.3149,-3.3503,-3.3522,-3.3677,-3.4025,-3.4025,-3.4281,-3.4809,-3.4964,-3.5277,-3.5725,-3.5725,-3.5729,-3.5714,-3.5645,-3.5635,-3.5714,-3.5645,-3.5597,-3.5611,-3.5696,-3.5717,-3.5729,-3.5806,-3.584,-3.5843,-3.5869,-3.5852,-3.583,-4.5307,-4.5307,-4.5307,-4.5307,-4.5307,-4.5307,-4.5307,-4.5307,-4.5307,-4.5307,-4.5307,-4.5307,-4.5307,-4.5307,-4.5307,-4.5307,-4.5307,-4.5307,-4.5307,-4.5307,-4.5307,-4.5307,-4.5307,-4.5361,-4.5482,-4.5361,-4.5307,-4.5307,-4.5307,-4.5307,-4.5307,-4.5307,-4.5307,-4.5307,-4.5307,-4.5307,-4.5307,-4.5307,-4.5307,-4.5307,-4.5307,-4.5307,-4.5307,-4.5307,-4.5307,-4.5307,-4.5307,-4.5307,-4.5307,-4.5307,-4.5307,-4.5307,-4.5307,-4.5307,-4.5307,-4.5307,-4.4743,-4.4102,-4.4025,-4.2889,-4.1686,-4.1533,-4.096,-4.0377,-4.032,-4.0301,-4.0072,-3.9279,-3.9049,-3.8534,-3.6997,-3.6707,-3.6428,-3.5628,-3.5435,-3.5425,-3.5543,-3.5457,-3.5425,-3.5543,-3.5554,-3.5554,-3.5554,-3.4853,-3.4055,-3.3252,-3.3194,-3.3548,-3.4345,-3.4384,-3.4737,-3.5535,-3.5554,-3.5554,-3.5554,-3.5554,-3.5577,-3.557,-3.557,-3.5586,-3.5587,-3.557,-3.5576,-3.5587,-3.557,-3.557,-3.5572,-3.5588,-3.5588,-3.559,-3.5593,-3.5607,-3.5599,-3.5674,-3.5685,-3.5717,-4.5307,-4.5307,-4.5307,-4.5307,-4.5307,-4.5307,-4.5307,-4.5307,-4.5307,-4.5307,-4.5307,-4.5307,-4.5307,-4.5307,-4.5307,-4.5307,-4.5307,-4.5307,-4.5307,-4.5307,-4.5307,-4.5307,-4.5307,-4.5309,-4.533,-4.5309,-4.5307,-4.5307,-4.5307,-4.5307,-4.5307,-4.5307,-4.5307,-4.5307,-4.5307,-4.5307,-4.5307,-4.5307,-4.5307,-4.5307,-4.5307,-4.5307,-4.5307,-4.5307,-4.5307,-4.5307,-4.5307,-4.5307,-4.5307,-4.5307,-4.5307,-4.5307,-4.5307,-4.5307,-4.5307,-4.5307,-4.5163,-4.4876,-4.4178,-4.372,-4.3138,-4.182,-4.1361,-4.1074,-4.0435,-4.0301,-4.0244,-4.0053,-3.9489,-3.8897,-3.8534,-3.7413,-3.6482,-3.6291,-3.5686,-3.5254,-3.5274,-3.527,-3.5254,-3.5274,-3.53,-3.53,-3.53,-3.512,-3.4921,-3.4749,-3.473,-3.4806,-3.4986,-3.5005,-3.5082,-3.5274,-3.53,-3.53,-3.53,-3.53,-3.5348,-3.5432,-3.5432,-3.5438,-3.5438,-3.5336,-3.5343,-3.5438,-3.5328,-3.5296,-3.5292,-3.5398,-3.5445,-3.5445,-3.5554,-3.5607,-3.5593,-3.5614,-3.5625,-3.564,-4.5793,-4.587,-4.5755,-4.5383,-4.5621,-4.5736,-4.5364,-4.5307,-4.5307,-4.5307,-4.5307,-4.5307,-4.5307,-4.564,-4.587,-4.587,-4.5507,-4.5307,-4.5307,-4.5307,-4.5307,-4.5307,-4.5307,-4.5307,-4.5307,-4.5307,-4.5307,-4.5307,-4.5307,-4.5307,-4.5307,-4.5307,-4.5307,-4.5307,-4.5307,-4.5307,-4.5307,-4.5307,-4.5307,-4.5307,-4.5307,-4.5307,-4.5307,-4.5307,-4.5307,-4.5307,-4.5307,-4.5307,-4.5307,-4.5307,-4.5307,-4.5307,-4.5307,-4.5307,-4.5307,-4.5307,-4.5307,-4.5201,-4.4743,-4.4312,-4.3796,-4.2908,-4.2087,-4.1285,-4.0473,-4.0301,-4.0301,-4.0301,-3.9938,-3.9489,-3.9088,-3.8285,-3.7436,-3.6634,-3.6118,-3.566,-3.5267,-3.5209,-3.5209,-3.5209,-3.5209,-3.5209,-3.5209,-3.5209,-3.5209,-3.5209,-3.5209,-3.5209,-3.5209,-3.5209,-3.5209,-3.5209,-3.5209,-3.5209,-3.5209,-3.5209,-3.5231,-3.5304,-3.5304,-3.5304,-3.5304,-3.5231,-3.5239,-3.5296,-3.5231,-3.5209,-3.5209,-3.5285,-3.5304,-3.5311,-3.5371,-3.5417,-3.5431,-3.5476,-3.5562,-3.5618,-4.6596,-4.6729,-4.6519,-4.5831,-4.629,-4.65,-4.5831,-4.5736,-4.5736,-4.5736,-4.5736,-4.5736,-4.5736,-4.6328,-4.6729,-4.6729,-4.5984,-4.5507,-4.5507,-4.5383,-4.5307,-4.5307,-4.5307,-4.5307,-4.5307,-4.5307,-4.5307,-4.5307,-4.5307,-4.5307,-4.5307,-4.5307,-4.5307,-4.5307,-4.5307,-4.5307,-4.5307,-4.5307,-4.5307,-4.5307,-4.5307,-4.5307,-4.5307,-4.5307,-4.5307,-4.5307,-4.5307,-4.5307,-4.5307,-4.5307,-4.5307,-4.5307,-4.5307,-4.5307,-4.5307,-4.5307,-4.5307,-4.5307,-4.5307,-4.4762,-4.4178,-4.4045,-4.2851,-4.1514,-4.0692,-4.0396,-4.0301,-4.0301,-4.0301,-4.0072,-3.9355,-3.9107,-3.8553,-3.7149,-3.6691,-3.6252,-3.5526,-3.5278,-3.5209,-3.5209,-3.5209,-3.5209,-3.5209,-3.5209,-3.5209,-3.5209,-3.5209,-3.5209,-3.5209,-3.5209,-3.5209,-3.5209,-3.5209,-3.5209,-3.5209,-3.5209,-3.5209,-3.5209,-3.5209,-3.5209,-3.5209,-3.5209,-3.5209,-3.5209,-3.5209,-3.5209,-3.5209,-3.5209,-3.5209,-3.5209,-3.5209,-3.5209,-3.5207,-3.5326,-3.5432,-3.5531,-4.7597,-4.7616,-4.7578,-4.7483,-4.754,-4.7578,-4.7483,-4.7463,-4.7463,-4.7463,-4.7463,-4.7463,-4.7463,-4.7559,-4.7616,-4.7616,-4.6844,-4.6347,-4.6347,-4.5679,-4.5307,-4.5307,-4.5307,-4.5307,-4.5307,-4.5307,-4.5307,-4.5307,-4.5307,-4.5307,-4.5307,-4.5307,-4.5307,-4.5307,-4.5307,-4.5307,-4.5307,-4.5307,-4.5307,-4.5307,-4.5307,-4.5307,-4.5307,-4.5307,-4.5307,-4.5307,-4.5307,-4.5307,-4.5307,-4.5307,-4.5307,-4.5307,-4.5307,-4.5307,-4.5307,-4.5307,-4.5307,-4.5307,-4.5307,-4.5201,-4.4934,-4.4178,-4.331,-4.2393,-4.1533,-4.0807,-4.0301,-4.0301,-4.0301,-4.0263,-4.0148,-3.9508,-3.8935,-3.8706,-3.7455,-3.6462,-3.6347,-3.5679,-3.5209,-3.5209,-3.5209,-3.5209,-3.5209,-3.5209,-3.5209,-3.5209,-3.5209,-3.5209,-3.5209,-3.5209,-3.5209,-3.5209,-3.5209,-3.5209,-3.5209,-3.5209,-3.5209,-3.5209,-3.5209,-3.5209,-3.5209,-3.5209,-3.5209,-3.5209,-3.5209,-3.5209,-3.5209,-3.5209,-3.5209,-3.5209,-3.5209,-3.5209,-3.5209,-3.5215,-3.5239,-3.5278,-4.843,-4.8525,-4.8372,-4.7884,-4.82,-4.8353,-4.7865,-4.7788,-4.7788,-4.7788,-4.7788,-4.7788,-4.7788,-4.7788,-4.8009,-4.8487,-4.7742,-4.7234,-4.7234,-4.6443,-4.5965,-4.5965,-4.5545,-4.5307,-4.5307,-4.5307,-4.5307,-4.5307,-4.5307,-4.5307,-4.5307,-4.5307,-4.5307,-4.5307,-4.5307,-4.5307,-4.5307,-4.5307,-4.5307,-4.5307,-4.5307,-4.5307,-4.5307,-4.5307,-4.5307,-4.5307,-4.5307,-4.5307,-4.5307,-4.5307,-4.5307,-4.5307,-4.5307,-4.5307,-4.5307,-4.5307,-4.5307,-4.5307,-4.5307,-4.5307,-4.5201,-4.4819,-4.4093,-4.3252,-4.2412,-4.1571,-4.0845,-4.0377,-4.0301,-4.0301,-4.0301,-3.9995,-3.9565,-3.9088,-3.8381,-3.757,-3.6634,-3.6175,-3.5755,-3.5267,-3.5209,-3.5209,-3.5209,-3.5209,-3.5209,-3.5209,-3.5209,-3.5209,-3.5209,-3.5209,-3.5209,-3.5209,-3.5209,-3.5209,-3.5209,-3.5209,-3.5209,-3.5209,-3.5209,-3.5209,-3.5209,-3.5209,-3.5209,-3.5209,-3.5209,-3.5209,-3.5209,-3.5209,-3.5209,-3.5209,-3.5209,-3.5209,-3.5209,-3.5209,-3.5209,-3.5218]},{"header":{"parameterUnit":"m.s-1","parameterCategory":1,"la1":30.6,"la2":28.766,"lo1":-90.7593,"lo2":-88.6598,"dy":0.0162,"dx":0.0183,"nx":116,"ny":114,"refTime":"2024-06-02T00:00:00:Z","depth":0,"parameterNumber":3,"parameterNumberName":"V-component_of_WINDS"},"data":[0.0,0.0,0.0,0.0,0.0,0.0,0.0,0.0,0.0,0.0,0.0,0.0,0.0,0.0,0.0,0.0,0.0,0.0,0.0,0.0,0.0,0.0,0.0,0.0,0.0,0.0,0.0,0.0,0.0,0.0,0.0,0.0,0.0,0.0,0.0,0.0,0.0,0.0,0.0,0.0,0.0,0.0,0.0,0.0,0.0,0.0,0.0,0.0,0.0,0.0,0.0,0.0,0.0,0.0,0.0,0.0,0.0,0.0,0.0,0.0,0.0,0.0,0.0,0.0,0.0,0.0,0.0,0.0,0.0,0.0,0.0,0.0,0.0,0.0,0.0,0.0,0.0,0.0,0.0,0.0,0.0,0.0,0.0,0.0,0.0,0.0,0.0,0.0,0.0,0.0,0.0,0.0,0.0,0.0,0.0,0.0,0.0,0.0,0.0,0.0,0.0,0.0,0.0,0.0,0.0,0.0,0.0,0.0,0.0,0.0,0.0,0.0,0.0,0.0,0.0,0.0,0.0,0.0,0.0,0.0,0.0,0.0,0.0,0.0,0.0,0.0,0.0,0.0,0.0,0.0,0.0,0.0,0.0,0.0,0.0,0.0,0.0,0.0,0.0,0.0,0.0,0.0,0.0,0.0,0.0,0.0,0.0,0.0,0.0,0.0,0.0,0.0,0.0,0.0,0.0,0.0,0.0,0.0,0.0,0.0,0.0,0.0,0.0,0.0,0.0,0.0,0.0,0.0,0.0,0.0,0.0,0.0,0.0,0.0,0.0,0.0,0.0,0.0,0.0,0.0,0.0,0.0,0.0,0.0,0.0,0.0,0.0,0.0,0.0,0.0,0.0,0.0,0.0,0.0,0.0,0.0,0.0,0.0,0.0,0.0,0.0,0.0,0.0,0.0,0.0,0.0,0.0,0.0,0.0,0.0,0.0,0.0,0.0,0.0,0.0,0.0,0.0,0.0,0.0,0.0,0.0,0.0,0.0,0.0,0.0,0.0,0.0,0.0,0.0,0.0,0.0,0.0,0.0,0.0,0.0,0.0,0.0,0.0,0.0,0.0,0.0,0.0,0.0,0.0,0.0,0.0,0.0,0.0,0.0,0.0,0.0,0.0,0.0,0.0,0.0,0.0,0.0,0.0,0.0,0.0,0.0,0.0,0.0,0.0,0.0,0.0,0.0,0.0,0.0,0.0,0.0,0.0,0.0,0.0,0.0,0.0,0.0,0.0,0.0,0.0,0.0,0.0,0.0,0.0,0.0,0.0,0.0,0.0,0.0,0.0,0.0,0.0,0.0,0.0,0.0,0.0,0.0,0.0,0.0,0.0,0.0,0.0,0.0,0.0,0.0,0.0,0.0,0.0,0.0,0.0,0.0,0.0,0.0,0.0,0.0,0.0,0.0,0.0,0.0,0.0,0.0,0.0,0.0,0.0,0.0,0.0,0.0,0.0,0.0,0.0,0.0,0.0,0.0,0.0,0.0,0.0,0.0,0.0,0.0,0.0,0.0,0.0,0.0,0.0,0.0,0.0,0.0,0.0,0.0,0.0,0.0,0.0,0.0,0.0,0.0,0.0,0.0,0.0,0.0,0.0,0.0,0.0,0.0,0.0,0.0,0.0,0.0,0.0,0.0,0.0,0.0,0.0,0.0,0.0,0.0,0.0,0.0,0.0,0.0,0.0,0.0,0.0,0.0,0.0,0.0,0.0,0.0,0.0,0.0,0.0,0.0,0.0,0.0,0.0,0.0,0.0,0.0,0.0,0.0,0.0,0.0,0.0,0.0,0.0,0.0,0.0,0.0,0.0,0.0,0.0,0.0,0.0,0.0,0.0,0.0,0.0,0.0,0.0,0.0,0.0,0.0,0.0,0.0,0.0,0.0,0.0,0.0,0.0,0.0,0.0,0.0,0.0,0.0,0.0,0.0,0.0,0.0,0.0,0.0,0.0,0.0,0.0,0.0,0.0,0.0,0.0,0.0,0.0,0.0,0.0,0.0,0.0,0.0,0.0,0.0,0.0,0.0,0.0,0.0,0.0,0.0,0.0,0.0,0.0,0.0,0.0,0.0,0.0,0.0,0.0,0.0,0.0,0.0,0.0,0.0,0.0,0.0,0.0,0.0,0.0,0.0,0.0,0.0,0.0,0.0,0.0,0.0,0.0,0.0,0.0,0.0,0.0,0.0,0.0,0.0,0.0,0.0,0.0,0.0,0.0,0.0,0.0,0.0,0.0,0.0,0.0,0.0,0.0,0.0,0.0,0.0,0.0,0.0,0.0,0.0,0.0,0.0,0.0,0.0,0.0,0.0,0.0,0.0,0.0,0.0,0.0,0.0,0.0,0.0,0.0,0.0,0.0,0.0,0.0,0.0,0.0,0.0,0.0,0.0,0.0,0.0,0.0,0.0,0.0,0.0,0.0,0.0,0.0,0.0,0.0,0.0,0.0,0.0,0.0,0.0,0.0,0.0,0.0,0.0,0.0,0.0,0.0,0.0,0.0,0.0,0.0,0.0,0.0,0.0,0.0,0.0,0.0,0.0,0.0,0.0,0.0,0.0,0.0,0.0,0.0,0.0,0.0,0.0,0.0,0.0,0.0,0.0,0.0,0.0,0.0,0.0,0.0,0.0,0.0,0.0,0.0,0.0,0.0,0.0,0.0,0.0,0.0,0.0,0.0,0.0,0.0,0.0,0.0,0.0,0.0,0.0,0.0,0.0,0.0,0.0,0.0,0.0,0.0,0.0,0.0,0.0,0.0,0.0,0.0,0.0,0.0,0.0,0.0,0.0,0.0,0.0,0.0,0.0,0.0,0.0,0.0,0.0,0.0,0.0,0.0,0.0,0.0,0.0,0.0,0.0,0.0,0.0,0.0,0.0,0.0,0.0,0.0,0.0,0.0,0.0,0.0,0.0,0.0,0.0,0.0,0.0,0.0,0.0,0.0,0.0,0.0,0.0,0.0,0.0,0.0,0.0,0.0,0.0,0.0,0.0,0.0,0.0,0.0,0.0,0.0,0.0,0.0,0.0,0.0,0.0,0.0,0.0,0.0,0.0,0.0,0.0,0.0,0.0,0.0,0.0,0.0,0.0,0.0,0.0,0.0,0.0,0.0,0.0,0.0,0.0,0.0,0.0,0.0,0.0,0.0,0.0,0.0,0.0,0.0,0.0,0.0,0.0,0.0,0.0,0.0,0.0,0.0,0.0,0.0,0.0,0.0,0.0,0.0,0.0,0.0,0.0,0.0,0.0,0.0,0.0,0.0,0.0,0.0,0.0,0.0,0.0,0.0,0.0,0.0,0.0,0.0,0.0,0.0,0.0,0.0,0.0,0.0,0.0,0.0,0.0,0.0,0.0,0.0,0.0,0.0,0.0,0.0,0.0,0.0,0.0,0.0,0.0,0.0,0.0,0.0,0.0,0.0,0.0,0.0,0.0,0.0,0.0,0.0,0.0,0.0,0.0,0.0,0.0,0.0,0.0,0.0,0.0,0.0,0.0,0.0,0.0,0.0,0.0,0.0,0.0,0.0,0.0,0.0,0.0,0.0,0.0,0.0,0.0,0.0,0.0,0.0,0.0,0.0,0.0,0.0,0.0,0.0,0.0,0.0,0.0,0.0,0.0,0.0,0.0,0.0,0.0,0.0,0.0,0.0,0.0,0.0,0.0,0.0,0.0,0.0,0.0,0.0,0.0,0.0,0.0,0.0,0.0,0.0,0.0,0.0,0.0,0.0,0.0,0.0,0.0,0.0,0.0,0.0,0.0,0.0,0.0,0.0,0.0,0.0,0.0,0.0,0.0,0.0,0.0,0.0,0.0,0.0,0.0,0.0,0.0,0.0,0.0,0.0,0.0,0.0,0.0,0.0,0.0,0.0,0.0,0.0,0.0,0.0,0.0,0.0,0.0,0.0,0.0,0.0,0.0,0.0,0.0,0.0,0.0,0.0,0.0,0.0,0.0,0.0,0.0,0.0,0.0,0.0,0.0,0.0,0.0,0.0,0.0,0.0,0.0,0.0,0.0,0.0,0.0,0.0,0.0,0.0,0.0,0.0,0.0,0.0,0.0,0.0,0.0,0.0,0.0,0.0,0.0,0.0,0.0,0.0,0.0,0.0,0.0,0.0,0.0,0.0,0.0,0.0,0.0,0.0,0.0,0.0,0.0,0.0,0.0,0.0,0.0,0.0,0.0,0.0,0.0,0.0,0.0,0.0,0.0,0.0,0.0,0.0,0.0,0.0,0.0,0.0,0.0,0.0,0.0,0.0,0.0,0.0,0.0,0.0,0.0,0.0,0.0,0.0,0.0,0.0,0.0,0.0,0.0,0.0,0.0,0.0,0.0,0.0,0.0,0.0,0.0,0.0,0.0,0.0,0.0,0.0,0.0,0.0,0.0,0.0,0.0,0.0,0.0,0.0,0.0,0.0,0.0,0.0,0.0,0.0,0.0,0.0,0.0,0.0,0.0,0.0,0.0,0.0,0.0,0.0,0.0,0.0,0.0,0.0,0.0,0.0,0.0,0.0,0.0,0.0,0.0,0.0,0.0,0.0,0.0,0.0,0.0,0.0,0.0,0.0,0.0,0.0,0.0,0.0,0.0,0.0,0.0,0.0,0.0,0.0,0.0,0.0,0.0,0.0,0.0,0.0,0.0,0.0,0.0,0.0,0.0,0.0,0.0,0.0,0.0,0.0,0.0,0.0,0.0,0.0,0.0,0.0,0.0,0.0,0.0,0.0,0.0,0.0,0.0,0.0,0.0,0.0,0.0,0.0,0.0,0.0,0.0,0.0,0.0,0.0,0.0,0.0,0.0,0.0,0.0,0.0,0.0,0.0,0.0,0.0,0.0,0.0,0.0,0.0,0.0,0.0,0.0,0.0,0.0,0.0,0.0,0.0,0.0,0.0,0.0,0.0,0.0,0.0,0.0,0.0,0.0,0.0,0.0,0.0,0.0,0.0,0.0,0.0,0.0,0.0,0.0,0.0,0.0,0.0,0.0,0.0,0.0,0.0,0.0,0.0,0.0,0.0,0.0,0.0,0.0,0.0,0.0,0.0,0.0,0.0,0.0,0.0,0.0,0.0,0.0,0.0,0.0,0.0,0.0,0.0,0.0,0.0,0.0,0.0,0.0,0.0,0.0,0.0,0.0,0.0,0.0,0.0,0.0,0.0,0.0,0.0,0.0,0.0,0.0,0.0,0.0,0.0,0.0,0.0,0.0,0.0,0.0,0.0,0.0,0.0,0.0,0.0,0.0,0.0,0.0,0.0,0.0,0.0,0.0,0.0,0.0,0.0,0.0,0.0,0.0,0.0,0.0,0.0,0.0,0.0,0.0,0.0,0.0,0.0,0.0,0.0,0.0,0.0,0.0,0.0,0.0,0.0,0.0,0.0,0.0,0.0,0.0,0.0,0.0,0.0,0.0,0.0,0.0,0.0,0.0,0.0,0.0,0.0,0.0,0.0,0.0,0.0,0.0,0.0,0.0,0.0,0.0,0.0,0.0,0.0,0.0,0.0,0.0,0.0,0.0,0.0,0.0,0.0,0.0,0.0,0.0,0.0,0.0,0.0,0.0,0.0,0.0,0.0,0.0,0.0,0.0,0.0,0.0,0.0,0.0,0.0,0.0,0.0,0.0,0.0,0.0,0.0,0.0,0.0,0.0,0.0,0.0,0.0,0.0,0.0,0.0,0.0,0.0,0.0,0.0,0.0,0.0,0.0,0.0,0.0,0.0,0.0,0.0,0.0,0.0,0.0,0.0,0.0,0.0,0.0,0.0,0.0,0.0,0.0,0.0,0.0,0.0,0.0,0.0,0.0,0.0,0.0,0.0,0.0,0.0,0.0,0.0,0.0,0.0,0.0,0.0,0.0,0.0,0.0,0.0,0.0,0.0,0.0,0.0,0.0,0.0,0.0,0.0,0.0,0.0,0.0,0.0,0.0,0.0,0.0,0.0,0.0,0.0,0.0,0.0,0.0,0.0,0.0,0.0,0.0,0.0,0.0,0.0,0.0,0.0,0.0,0.0,0.0,0.0,0.0,0.0,0.0,0.0,0.0,0.0,0.0,0.0,0.0,0.0,0.0,0.0,0.0,0.0,0.0,0.0,0.0,0.0,0.0,-1.0428,0.0,0.0,0.0,0.0,0.0,0.0,0.0,0.0,0.0,0.0,0.0,0.0,0.0,0.0,0.0,0.0,0.0,0.0,0.0,0.0,0.0,0.0,0.0,0.0,-0.6036,-0.6429,-0.6858,-0.7062,-0.7172,-0.7196,0.0,0.0,0.0,0.0,0.0,-0.6297,-0.6412,-0.6523,-0.662,-0.6924,-0.7336,-0.7834,-0.762,-0.7126,-0.641,0.0,0.0,0.0,0.0,0.0,0.0,0.0,0.0,0.0,0.0,0.0,0.0,0.0,0.0,0.0,0.0,0.0,0.0,0.0,0.0,0.0,0.0,0.0,0.0,0.0,0.0,0.0,0.0,0.0,0.0,0.0,0.0,0.0,0.0,0.0,0.0,0.0,0.0,0.0,0.0,0.0,0.0,0.0,0.0,0.0,0.0,0.0,0.0,0.0,0.0,0.0,0.0,0.0,0.0,0.0,0.0,0.0,0.0,0.0,0.0,0.0,0.0,0.0,0.0,0.0,0.0,0.0,0.0,0.0,0.0,0.0,-1.1499,0.0,0.0,0.0,0.0,0.0,0.0,0.0,0.0,0.0,0.0,0.0,0.0,0.0,0.0,0.0,0.0,0.0,0.0,0.0,0.0,0.0,-0.5589,-0.6048,-0.6767,-0.7266,-0.7412,-0.7725,-0.7753,-0.7333,-0.7305,0.0,0.0,0.0,-0.7077,-0.6807,-0.7029,-0.7331,-0.771,-0.8085,-0.8879,-0.9969,-0.9932,-0.9255,-0.8056,-0.7526,0.0,0.0,0.0,0.0,0.0,0.0,0.0,0.0,0.0,0.0,0.0,0.0,0.0,0.0,0.0,0.0,0.0,0.0,0.0,0.0,0.0,0.0,0.0,0.0,0.0,0.0,0.0,0.0,0.0,0.0,0.0,0.0,0.0,0.0,0.0,0.0,0.0,0.0,0.0,0.0,0.0,0.0,0.0,0.0,0.0,0.0,0.0,0.0,0.0,0.0,0.0,0.0,0.0,0.0,0.0,0.0,0.0,0.0,0.0,0.0,0.0,0.0,0.0,-1.5411,-1.5771,-1.5703,-1.5703,-1.5703,-1.5634,-1.4401,-1.3639,-1.3249,0.0,0.0,0.0,0.0,0.0,0.0,0.0,0.0,0.0,0.0,0.0,0.0,0.0,0.0,0.0,0.0,0.0,0.0,0.0,0.0,-0.5689,-0.6434,-0.6931,-0.7503,-0.8251,-0.8388,-0.8207,-0.7746,-0.7719,0.0,-0.7214,-0.7196,-0.7342,-0.7637,-0.7684,-0.7966,-0.8546,-0.9395,-1.0405,-1.149,-1.1208,-1.1122,-1.1157,-0.9816,-0.9238,-0.917,0.0,0.0,0.0,0.0,0.0,0.0,0.0,0.0,0.0,0.0,0.0,0.0,0.0,0.0,0.0,0.0,0.0,0.0,0.0,0.0,0.0,0.0,0.0,0.0,0.0,0.0,0.0,0.0,0.0,0.0,0.0,0.0,0.0,0.0,0.0,0.0,0.0,0.0,0.0,0.0,0.0,-0.9529,-1.0311,0.0,0.0,0.0,0.0,0.0,0.0,0.0,0.0,0.0,0.0,0.0,0.0,0.0,-1.411,-1.4915,-1.5951,-1.6499,-1.6522,-1.7629,-1.798,-1.7624,-1.7624,-1.7624,-1.7615,-1.7419,0.0,-1.4427,-1.3982,0.0,0.0,0.0,0.0,0.0,0.0,0.0,0.0,0.0,0.0,0.0,0.0,0.0,0.0,0.0,0.0,0.0,0.0,0.0,0.0,0.0,-0.7934,-0.8674,-0.882,-0.9253,-0.9225,-0.8564,-0.8317,-0.7998,-0.7555,-0.7527,-0.7618,-0.7801,-0.8431,-0.9354,-1.0559,-1.1335,-1.2209,-1.3079,-1.2937,-1.2946,-1.3053,-1.2423,-1.143,-1.0166,-0.944,0.0,0.0,0.0,0.0,0.0,0.0,0.0,0.0,0.0,0.0,0.0,0.0,0.0,0.0,0.0,0.0,0.0,0.0,0.0,0.0,0.0,0.0,0.0,0.0,0.0,0.0,0.0,0.0,0.0,0.0,0.0,0.0,0.0,0.0,0.0,0.0,0.0,0.0,0.0,-0.9259,-1.0591,-1.0687,-1.0918,-1.0816,0.0,0.0,0.0,0.0,0.0,0.0,0.0,0.0,0.0,-1.5035,-1.548,-1.6139,-1.7098,-1.7612,-1.7971,-1.8194,-1.8905,-1.911,-1.8956,-1.8956,-1.8956,-1.8939,-1.8768,-1.8117,-1.7145,-1.5909,-1.5077,-1.4495,0.0,0.0,0.0,0.0,-1.3583,-1.3554,0.0,0.0,0.0,0.0,0.0,0.0,0.0,0.0,0.0,0.0,0.0,0.0,-0.7613,-0.8885,-0.9657,-0.9566,-1.0109,-1.0164,-0.9446,-0.9032,-0.8609,-0.8145,-0.8027,-0.8072,-0.8282,-0.9533,-1.0889,-1.2286,-1.2952,-1.3596,-1.4247,-1.4247,-1.4247,-1.4247,-1.4247,-1.3202,-1.137,-1.0798,-1.0026,-0.9125,0.0,0.0,0.0,0.0,0.0,0.0,0.0,0.0,0.0,0.0,0.0,0.0,0.0,0.0,0.0,0.0,0.0,0.0,0.0,0.0,0.0,0.0,0.0,0.0,0.0,0.0,0.0,0.0,0.0,0.0,0.0,0.0,0.0,0.0,0.0,0.0,0.0,-1.0538,-1.1636,-1.1336,-1.2105,-1.2344,0.0,0.0,0.0,0.0,0.0,0.0,-1.4213,-1.5317,-1.6233,-1.6884,-1.7295,-1.7946,-1.887,-1.8879,-1.9076,-1.9461,-1.9752,-1.9836,-1.9836,-1.9836,-1.9836,-1.9828,-1.9581,-1.9461,-1.9333,-1.7668,-1.6742,-1.631,-1.5651,-1.5334,-1.53,-1.566,-1.5625,-1.5531,0.0,0.0,0.0,0.0,0.0,0.0,0.0,0.0,0.0,0.0,0.0,-0.7647,-0.8866,-0.9409,-0.9997,-1.0745,-1.0855,-1.0698,-1.0263,-0.9859,-0.9455,-0.9041,-0.8673,-0.8811,-0.9592,-1.1208,-1.2395,-1.3047,-1.3726,-1.4256,-1.4658,-1.4658,-1.4658,-1.4658,-1.4658,-1.4179,-1.3297,-1.2191,-1.1516,-1.0992,-0.9168,0.0,0.0,0.0,0.0,0.0,0.0,0.0,0.0,0.0,0.0,0.0,0.0,0.0,0.0,0.0,0.0,0.0,0.0,0.0,0.0,0.0,0.0,0.0,0.0,0.0,0.0,0.0,0.0,0.0,0.0,0.0,0.0,0.0,0.0,0.0,0.0,0.0,0.0,-1.2897,-1.4153,0.0,0.0,0.0,0.0,-1.3982,-1.5018,-1.5822,-1.6227,-1.7278,-1.8034,-1.8459,-1.8853,-1.9264,-1.964,-1.964,-1.9872,-2.0232,-2.0257,-2.0266,-2.0266,-2.0266,-2.0266,-2.0266,-2.024,-2.0232,-2.0146,-1.8965,-1.8254,-1.7846,-1.7483,-1.7115,-1.685,-1.7218,-1.7385,-1.7428,0.0,0.0,0.0,0.0,0.0,-0.4585,-0.4507,-0.5015,-0.5543,-0.5938,-0.7183,-0.8306,-0.9014,-1.0144,-1.098,-1.1265,-1.1522,-1.1504,-1.1099,-1.0447,-1.0015,-0.9879,-0.9395,-0.9821,-1.1295,-1.2263,-1.3261,-1.4256,-1.4638,-1.5018,-1.5403,-1.5403,-1.5403,-1.5403,-1.5403,-1.5103,-1.453,-1.3391,-1.256,-1.1893,-1.0471,-0.9461,0.0,0.0,0.0,0.0,0.0,0.0,0.0,0.0,0.0,0.0,0.0,0.0,0.0,0.0,0.0,0.0,0.0,0.0,0.0,0.0,0.0,0.0,0.0,0.0,0.0,0.0,0.0,0.0,0.0,0.0,0.0,0.0,0.0,0.0,0.0,0.0,0.0,-1.3699,-1.4821,0.0,0.0,-1.4958,-1.5437,-1.5497,-1.6556,-1.7398,-1.7806,-1.8648,-1.9153,-1.9281,-1.9692,-1.9958,-2.0095,-2.0095,-2.0163,-2.0292,-2.0292,-2.0292,-2.0292,-2.0292,-2.0292,-2.0292,-2.0292,-2.0292,-2.0266,-1.9855,-1.947,-1.905,-1.8716,-1.8527,-1.8382,-1.8561,-1.8604,-1.8629,0.0,0.0,0.0,0.0,-0.4303,-0.4446,-0.4285,-0.5022,-0.5724,-0.6065,-0.7612,-0.8894,-0.9424,-1.0516,-1.136,-1.1673,-1.1773,-1.1794,-1.17,-1.1081,-1.0704,-1.0704,-1.0616,-1.1208,-1.2572,-1.3366,-1.4183,-1.4996,-1.5266,-1.5548,-1.5805,-1.5805,-1.5805,-1.5805,-1.5805,-1.5651,-1.5352,-1.4461,-1.3648,-1.2869,-1.1738,-1.0892,-1.0217,0.0,0.0,0.0,0.0,0.0,0.0,0.0,0.0,0.0,0.0,0.0,0.0,0.0,0.0,0.0,0.0,0.0,0.0,0.0,0.0,0.0,0.0,0.0,0.0,0.0,0.0,0.0,0.0,0.0,0.0,0.0,0.0,0.0,0.0,0.0,-1.4718,-1.4871,-1.5968,-1.6499,-1.5874,-1.6499,-1.7038,-1.7269,-1.8068,-1.8674,-1.8965,-1.9537,-1.9879,-1.9879,-2.0163,-2.0292,-2.0292,-2.0292,-2.0292,-2.0292,-2.0292,-2.0292,-2.0292,-2.0292,-2.0292,-2.0292,-2.0292,-2.0292,-2.0292,-2.0292,-2.0146,-1.9862,-1.965,-1.9555,-1.9555,-1.9555,-1.9555,-1.953,0.0,0.0,0.0,-0.3792,-0.4183,-0.4335,-0.3886,-0.5045,-0.6053,-0.6263,-0.7939,-0.9381,-1.0086,-1.0533,-1.1123,-1.2015,-1.1628,-1.1553,-1.2051,-1.1691,-1.1494,-1.1489,-1.2278,-1.2941,-1.3431,-1.4541,-1.5144,-1.5232,-1.5625,-1.5814,-1.5805,-1.5822,-1.5831,-1.5814,-1.5814,-1.5814,-1.5788,-1.5403,-1.4812,-1.405,-1.2903,-1.2218,-1.1729,0.0,0.0,0.0,0.0,0.0,0.0,0.0,0.0,0.0,0.0,0.0,0.0,0.0,0.0,0.0,0.0,0.0,0.0,0.0,0.0,0.0,0.0,0.0,0.0,0.0,0.0,0.0,0.0,0.0,0.0,0.0,0.0,0.0,-1.3562,-1.4881,-1.5994,-1.6398,-1.7746,-1.8468,-1.8068,-1.8751,-1.9239,-1.9239,-1.9547,-1.9717,-1.9717,-2.0095,-2.0292,-2.0292,-2.0292,-2.0292,-2.0292,-2.0292,-2.0292,-2.0292,-2.0292,-2.0292,-2.0292,-2.0292,-2.0292,-2.0292,-2.0292,-2.0292,-2.0292,-2.0292,-2.0292,-2.0292,-2.0292,-2.0292,-2.0292,-2.0292,-2.0292,-2.024,0.0,0.0,-0.3584,-0.3584,-0.3973,-0.424,-0.4107,-0.4972,-0.574,-0.6038,-0.7887,-0.9327,-0.9723,-1.0924,-1.1825,-1.2067,-1.1977,-1.1778,-1.1553,-1.1228,-1.1145,-1.1353,-1.2518,-1.3428,-1.4053,-1.4926,-1.5462,-1.5643,-1.5975,-1.6054,-1.5814,-1.6353,-1.6428,-1.6154,-1.6199,-1.6199,-1.6129,-1.5797,-1.5523,-1.5232,-1.4084,-1.3245,-1.2595,0.0,0.0,0.0,0.0,0.0,0.0,0.0,0.0,0.0,0.0,0.0,0.0,0.0,0.0,0.0,0.0,0.0,0.0,0.0,0.0,0.0,0.0,0.0,0.0,0.0,0.0,0.0,0.0,0.0,0.0,0.0,0.0,-1.4744,-1.4744,-1.6054,-1.715,-1.7526,-1.8425,-1.8973,-1.887,-1.9299,-1.9546,-1.9546,-1.9932,-2.0146,-2.0146,-2.024,-2.0292,-2.0292,-2.0292,-2.0292,-2.0292,-2.0292,-2.0292,-2.0292,-2.0292,-2.0292,-2.0292,-2.0292,-2.0292,-2.0292,-2.0292,-2.0292,-2.0292,-2.0292,-2.0292,-2.0292,-2.0292,-2.0292,-2.0292,-2.0292,-2.0292,-2.0275,0.0,-0.3495,-0.3495,-0.3495,-0.3796,-0.4004,-0.3918,-0.4739,-0.5447,-0.5685,-0.7423,-0.8891,-0.953,-1.0246,-1.0993,-1.1786,-1.1249,-1.0877,-1.0845,-1.0755,-1.1148,-1.2167,-1.3053,-1.3936,-1.4871,-1.5582,-1.5982,-1.6019,-1.6359,-1.6436,-1.6276,-1.6713,-1.6798,-1.6539,-1.6584,-1.6584,-1.6513,-1.6146,-1.6028,-1.5959,-1.4781,-1.4144,-1.3853,-1.3314,-1.2595,-1.1789,-1.1251,-1.096,-1.0639,-0.9404,0.0,0.0,0.0,0.0,0.0,0.0,0.0,0.0,0.0,0.0,0.0,0.0,0.0,0.0,0.0,0.0,0.0,0.0,0.0,0.0,0.0,0.0,0.0,0.0,-1.5052,-1.6036,-1.6317,-1.715,-1.7912,-1.8451,-1.9042,-1.947,-1.9624,-1.9847,-1.9975,-1.9975,-2.0172,-2.0292,-2.0292,-2.0292,-2.0292,-2.0292,-2.0292,-2.0292,-2.0292,-2.0454,-2.054,-2.054,-2.054,-2.054,-2.0531,-2.0369,-2.0292,0.0,-2.0292,-2.0292,-2.0292,-2.0292,-2.0292,0.0,0.0,0.0,0.0,0.0,-2.0292,-2.0292,0.0,-0.3495,-0.3495,-0.3495,-0.3671,-0.3748,-0.3563,-0.4449,-0.5196,-0.5313,-0.6803,-0.8266,-0.9336,-0.9074,-0.9486,-1.1184,-1.014,-0.9635,-1.0266,-1.0334,-1.1263,-1.3232,-1.3618,-1.4382,-1.5553,-1.6201,-1.6484,-1.63,-1.6693,-1.6843,-1.6767,-1.6843,-1.686,-1.6826,-1.6826,-1.6864,-1.6915,-1.6448,-1.6232,-1.6164,-1.4973,-1.4752,-1.5002,-1.4349,-1.3856,-1.3415,-1.2754,-1.231,-1.1865,-1.0674,0.0,0.0,0.0,0.0,0.0,0.0,0.0,0.0,0.0,0.0,0.0,0.0,0.0,0.0,0.0,0.0,0.0,0.0,0.0,0.0,0.0,0.0,0.0,0.0,-1.6265,-1.7256,-1.7957,-1.8136,-1.8477,-1.9153,-1.9573,-1.9888,-2.0266,-2.0292,-2.0292,-2.0292,-2.0292,-2.0309,-2.036,0.0,0.0,0.0,0.0,-2.0377,-2.042,-2.0763,-2.0942,-2.0942,-2.0942,-2.0942,-2.0925,-2.0574,-2.0394,-2.036,-2.036,-2.0335,-2.0292,-2.0292,-2.0292,-2.0292,-2.0292,-2.0292,-2.0292,-2.0292,-2.0292,-2.0292,0.0,-0.3495,-0.3495,-0.3495,-0.3671,-0.3782,-0.3748,-0.4347,-0.4979,-0.5483,-0.6693,-0.7767,-0.8481,-0.9065,-0.965,-1.0244,-1.0398,-1.0619,-1.0904,-1.0431,-1.0747,-1.2077,-1.3234,-1.4179,-1.4797,-1.573,-1.6251,-1.6381,-1.673,-1.6531,-1.5865,-1.6476,-1.6557,-1.6252,-1.6252,-1.6684,-1.7299,-1.6212,-1.563,-1.5364,-1.4424,-1.4152,-1.43,-1.4163,-1.3855,-1.3469,-1.3349,-1.3451,-1.3425,-1.1847,-1.0919,-1.0245,-0.9183,-0.8004,0.0,0.0,0.0,0.0,0.0,0.0,0.0,0.0,0.0,0.0,0.0,0.0,0.0,0.0,0.0,0.0,0.0,0.0,0.0,-1.5941,-1.7034,-1.794,-1.8417,-1.9016,-1.9426,-1.9571,-1.9958,-2.0215,-2.0283,-2.0292,-2.0292,-2.0292,-2.0292,-2.0429,-2.0746,-2.0463,0.0,-2.1174,-2.0917,-2.09,-2.1191,-2.1268,-2.1311,-2.1311,0.0,0.0,-2.1302,-2.1225,-2.1037,-2.0763,-2.0763,-2.0583,-2.0292,-2.0292,-2.0292,-2.0292,-2.0292,-2.0292,-2.0292,-2.0292,-2.0292,-2.0292,-0.3485,-0.3495,-0.3495,-0.3495,-0.3584,-0.365,-0.365,-0.4159,-0.4768,-0.5375,-0.6237,-0.7189,-0.8179,-0.8305,-0.8624,-0.9435,-0.9413,-0.954,-1.0008,-0.9788,-1.0306,-1.1845,-1.2995,-1.3979,-1.4714,-1.5323,-1.5987,-1.6636,-1.6623,-1.6454,-1.615,-1.6532,-1.6366,-1.5764,-1.6202,-1.6404,-1.6428,-1.6039,-1.5451,-1.4699,-1.3701,-1.3246,-1.3228,-1.3656,-1.3793,-1.3767,-1.3558,-1.376,-1.3854,-1.2324,-1.1395,-1.0748,-0.9876,-0.8606,-0.7428,0.0,0.0,0.0,0.0,0.0,0.0,0.0,0.0,0.0,0.0,0.0,0.0,0.0,0.0,-1.2641,0.0,0.0,-1.6224,-1.6721,-1.7656,-1.8511,-1.9085,-1.9452,-1.97,-1.97,-2.0069,-2.0292,-2.0292,-2.0292,-2.0292,-2.0292,-2.0472,-2.0677,-2.0874,-2.0865,-2.102,-2.1396,-2.1234,-2.1234,-2.1413,-2.1602,-2.1704,-2.1704,-2.1704,-2.1704,-2.1696,-2.1499,-2.1311,-2.1148,-2.1148,-2.1037,-2.084,-2.066,-2.0472,-2.0292,-2.0292,-2.0292,-2.0292,-2.0292,-2.0292,-2.0292,-0.333,-0.3411,-0.3453,-0.3495,-0.3495,-0.3495,-0.3495,-0.4016,-0.4596,-0.5124,-0.5722,-0.6557,-0.7765,-0.7252,-0.7328,-0.8631,-0.8209,-0.8239,-0.911,-0.9234,-1.0045,-1.1696,-1.2638,-1.3522,-1.4422,-1.4859,-1.5514,-1.6408,-1.6264,-1.6173,-1.6198,-1.6198,-1.5794,-1.5179,-1.5876,-1.5876,-1.5413,-1.5597,-1.5091,-1.4087,-1.2997,-1.2347,-1.2144,-1.2736,-1.3242,-1.3646,-1.3393,-1.3437,-1.3451,-1.2305,-1.1458,-1.0841,-1.0472,-0.9294,-0.8099,-0.8255,-0.7596,0.0,0.0,0.0,0.0,0.0,0.0,0.0,0.0,0.0,-0.9594,-1.0495,-1.1984,-1.3214,-1.3649,-1.5442,-1.6893,-1.7004,-1.7969,-1.8897,-1.9325,-1.9618,-1.9802,-1.9802,-2.0112,-2.0292,-2.0292,-2.0292,-2.0292,-2.0292,-2.0583,-2.0831,-2.0977,-2.1191,-2.1405,-2.1619,-2.1559,-2.1559,-2.1627,-2.1944,-2.2107,-2.2107,-2.2107,-2.2107,-2.209,-2.1773,-2.1593,-2.1516,-2.1439,-2.1413,-2.1379,-2.1028,-2.0694,-2.0403,-2.0317,-2.0292,-2.0292,-2.0292,-2.0292,-2.0292,0.0,-0.3074,-0.3294,-0.3474,-0.3495,-0.3495,-0.3495,-0.4016,-0.4509,-0.4814,-0.5381,-0.5934,-0.639,-0.6242,-0.657,-0.7745,-0.7774,-0.8293,-0.9623,-0.9672,-1.0046,-1.0979,-1.185,-1.2506,-1.2842,-1.4036,-1.4659,-1.4693,-1.5351,-1.5217,-1.4294,-1.4294,-1.4252,-1.4168,-1.4252,-1.472,-1.5352,-1.4552,-1.3926,-1.3344,-1.2362,-1.1686,-1.1236,-1.107,-1.1498,-1.2177,-1.2504,-1.233,-1.1925,-1.1649,-1.097,-1.0194,-1.0137,-0.9436,-0.8524,-0.8084,-0.7741,-0.7448,-0.7299,-0.7457,-0.7824,-0.8557,-0.8675,-0.9016,0.0,0.0,-1.1579,-1.1723,-1.3251,-1.4385,-1.3824,-1.5342,-1.6558,-1.6059,-1.7758,-1.8945,-1.8455,-1.9425,-2.0232,-2.0232,-2.0266,-2.0292,-2.0292,-2.0292,-2.0292,-2.0292,-2.0335,-2.0643,-2.1311,-2.1088,-2.1444,-2.2439,-2.2107,-2.209,-2.2465,-2.2508,-2.2534,-2.2534,-2.2534,-2.2534,-2.2534,-2.2491,-2.2294,-2.191,-2.1559,-2.1413,-2.1379,-2.1028,-2.0857,-2.078,-2.0429,-2.0292,-2.0292,-2.0292,-2.0292,-2.0292,0.0,-0.2702,-0.2799,-0.3202,-0.3393,-0.3566,-0.3761,-0.4135,-0.4555,-0.4985,-0.5418,-0.579,-0.6059,-0.618,-0.6435,-0.6908,-0.7273,-0.7846,-0.8757,-0.9162,-0.9717,-1.0538,-1.1506,-1.2148,-1.2409,-1.2989,-1.3571,-1.4181,-1.4059,-1.3864,-1.3588,-1.3762,-1.3511,-1.306,-1.3717,-1.3922,-1.3837,-1.3957,-1.3426,-1.2439,-1.208,-1.16,-1.1081,-1.0785,-1.0709,-1.0778,-1.1174,-1.1486,0.0,-1.0732,-1.0201,-0.9804,-0.9396,-0.892,-0.8411,-0.8195,-0.8181,-0.8305,-0.8544,-0.8705,-0.8902,0.0,-0.9802,-1.0286,-1.1105,-1.1587,-1.1945,-1.2087,-1.3292,-1.411,-1.3291,-1.467,-1.6016,0.0,-1.7435,-1.8428,-1.8547,-1.9364,-1.9555,-1.8448,-1.9277,-2.0061,-2.0275,-2.0292,-2.0292,-2.0292,-2.0506,-2.0865,-2.1379,-2.1482,-2.189,-2.2577,-2.2448,-2.2439,-2.2594,-2.2594,-2.2594,-2.2594,-2.2594,-2.2594,-2.2594,-2.2594,-2.2508,-2.2354,-2.2191,-2.1944,-2.1722,-2.1345,-2.1071,-2.084,-2.0446,-2.0292,-2.0292,-2.0292,-2.0292,-2.0292,0.0,-0.2394,-0.2415,-0.281,-0.3126,-0.3479,-0.3935,-0.4228,-0.4555,-0.5007,-0.5356,-0.5593,-0.5679,-0.5956,-0.6156,-0.6201,-0.6737,-0.7339,-0.7955,-0.8539,-0.9239,-1.0045,-1.0959,-1.1563,-1.1842,-1.2148,-1.2631,-1.331,-1.2999,-1.2886,-1.2916,-1.3119,-1.2857,-1.221,-1.3054,-1.3067,-1.2529,-1.315,-1.2795,-1.1778,-1.1778,-1.1486,-1.0966,-1.0599,-1.019,-0.9841,-1.0117,-1.045,-1.062,-0.965,-0.931,-0.9224,-0.874,-0.8469,-0.8321,-0.8487,-0.8668,-0.8903,-0.9293,-0.951,0.0,-1.0124,-1.0767,-1.1353,-1.1425,-1.1805,-1.2192,-1.2379,-1.3071,-1.3457,-1.2833,-1.3964,-1.5261,-1.5979,-1.6822,-1.7624,-1.8272,-1.8909,-1.869,-1.7093,-1.8556,-1.9713,-1.9788,-2.0087,-2.0292,-2.0292,-2.0557,-2.0917,-2.1388,-2.1679,-2.2055,-2.2577,-2.2594,-2.2594,-2.2594,-2.2594,-2.2594,-2.2594,-2.2594,-2.2594,-2.2594,-2.2594,-2.2594,-2.2594,-2.2594,-2.2448,-2.2115,-2.1619,-2.1259,-2.0977,-2.048,-2.0292,-2.0292,-2.0292,-2.0292,-2.0292,0.0,0.0,-0.2307,-0.2318,-0.2651,-0.3157,-0.3885,-0.4228,-0.4482,-0.4688,-0.5005,-0.5141,-0.4956,-0.5223,-0.5506,-0.5708,-0.6214,-0.6875,-0.7665,-0.8097,-0.8669,-0.9504,-1.0067,-1.0466,-1.0725,-1.175,-1.2078,-1.1566,-1.2318,-1.2428,-1.192,-1.1972,-1.1932,-1.1892,-1.1944,-1.1944,-1.1944,-1.1944,-1.1793,-1.1507,-1.1507,-1.1176,-1.0641,-1.0124,-0.9763,-0.9528,-0.9516,-0.9047,-0.8405,-0.8365,-0.8353,-0.8331,-0.8331,-0.8297,0.0,-0.8927,-0.9077,-0.9089,-0.9107,0.0,-1.0075,-1.0882,-1.1453,-1.1922,-1.2216,-1.2487,-1.2681,-1.2693,-1.2741,-1.2747,-1.2705,-1.3457,-1.4278,-1.4925,-1.58,-1.6587,-1.7248,-1.7857,-1.792,-1.7002,-1.8556,-1.9381,0.0,-1.9566,-2.0292,-2.0292,-2.03,-2.0634,-2.1371,-2.1422,-2.1773,-2.2568,-2.2594,-2.2594,-2.2594,-2.2594,-2.2594,-2.2594,-2.2594,-2.2594,-2.2594,-2.2594,-2.2594,-2.2594,-2.2594,-2.2594,-2.2525,-2.1722,-2.1405,-2.1319,-2.0574,-2.0292,-2.0292,-2.0292,-2.0292,-2.0292,0.0,0.0,0.0,-0.2511,-0.2677,-0.2972,-0.3576,-0.3968,-0.4269,-0.4469,-0.4952,0.0,0.0,0.0,0.0,0.0,-0.6425,-0.6883,-0.7328,-0.7786,-0.8303,-0.8951,-0.9492,-0.9901,-1.016,-1.0705,-1.089,-1.0701,-1.1156,-1.1292,-1.1098,-1.1453,-1.1621,-1.1633,-1.1802,-1.188,-1.188,-1.188,-1.1832,-1.1718,-1.1363,-1.1141,-1.09,-1.0172,-0.9522,-0.8957,0.0,-0.8411,-0.8003,-0.7876,-0.7842,-0.7872,-0.8,-0.8033,-0.8165,-0.889,-0.9095,-0.9251,-0.9961,0.0,-1.0864,-1.1453,-1.1914,-1.2252,-1.2512,-1.2644,-1.2656,-1.2481,-1.2445,-1.2391,-1.2216,-1.2572,-1.329,-1.4549,-1.5106,-1.5621,-1.6228,-1.7393,-1.7372,-1.518,-1.7733,0.0,0.0,0.0,0.0,-2.0292,-2.0292,-2.0617,-2.1371,-2.1413,-2.1756,-2.2568,-2.2594,-2.2594,-2.2594,-2.2594,-2.2594,-2.2594,-2.2594,-2.2594,-2.2594,-2.2594,-2.2594,-2.2594,-2.2594,-2.2594,-2.256,-2.2004,-2.1645,-2.1362,-2.0874,-2.0523,-2.0292,-2.0292,-2.0292,-2.0292,0.0,0.0,0.0,0.0,0.0,0.0,0.0,0.0,0.0,0.0,0.0,0.0,0.0,0.0,0.0,0.0,0.0,-0.6781,-0.7042,-0.7424,-0.7838,-0.8293,-0.88,-0.9167,-0.9336,-0.9594,-0.9823,-1.0015,-1.0184,-1.0364,-1.0551,-1.09,-1.1068,-1.1074,-1.1242,-1.1315,-1.1315,-1.1315,-1.1315,-1.1279,-1.0833,-1.0599,-1.043,-0.9642,-0.8957,0.0,-0.7916,-0.7645,-0.7477,-0.7346,-0.7437,-0.7625,-0.775,-0.8109,-0.8567,-0.9101,-0.9378,-0.9739,-1.0707,-1.1098,-1.1375,-1.2041,-1.233,-1.2493,-1.2662,-1.2632,-1.2487,-1.2228,-1.2095,-1.191,-1.1645,-1.1769,-1.2407,-1.4068,-1.4249,-1.45,-1.5498,-1.6494,-1.6327,-1.4179,-1.701,0.0,0.0,0.0,0.0,-2.0292,-2.0292,-2.0617,-2.1371,-2.1413,-2.1756,-2.2568,-2.2594,-2.2594,-2.2594,-2.2594,-2.2594,-2.2594,-2.2594,-2.2594,-2.2594,-2.2594,-2.2594,-2.2594,-2.2594,-2.2594,-2.2568,-2.215,-2.1764,-2.1379,-2.102,-2.0643,-2.0292,-2.0292,-2.0292,-2.0292,0.0,0.0,0.0,0.0,0.0,0.0,0.0,0.0,0.0,0.0,0.0,0.0,0.0,0.0,0.0,0.0,0.0,0.0,-0.6769,-0.7036,-0.7291,-0.754,-0.8021,-0.8277,-0.8277,-0.853,-0.8921,-0.94,-0.945,-0.9715,-1.0214,-1.0226,-1.0238,-1.0256,-1.0256,-1.0256,-1.0256,-1.0256,-1.0256,-1.0232,-0.9955,-0.9697,-0.9358,-0.8573,-0.8099,-0.7763,-0.7079,-0.6817,-0.6811,-0.6842,-0.7218,-0.7674,-0.7674,-0.851,-0.949,-0.9546,-0.9925,-1.0509,-1.1297,-1.1531,-1.173,-1.2518,-1.2705,-1.2699,-1.2687,-1.2481,-1.221,-1.192,-1.1615,-1.1339,0.0,0.0,-1.1663,-1.338,-1.3153,-1.3361,-1.5061,-1.5292,-1.4889,0.0,0.0,0.0,0.0,0.0,0.0,-2.0292,0.0,-2.0617,-2.1371,-2.1413,-2.1756,-2.2568,-2.2594,-2.2594,-2.2594,-2.2594,-2.2594,-2.2594,-2.2594,-2.2594,-2.2594,-2.2594,-2.2594,-2.2594,-2.2594,-2.2594,-2.2568,-2.2167,-2.1782,-2.1371,-2.099,-2.0605,-2.0292,-2.0246,-2.0246,-2.0292,0.0,0.0,0.0,0.0,0.0,0.0,0.0,0.0,0.0,0.0,0.0,0.0,0.0,0.0,0.0,0.0,0.0,0.0,-0.6486,-0.6763,-0.6939,-0.7006,-0.7491,-0.7776,-0.7776,-0.7988,-0.8165,-0.8303,-0.8501,-0.8788,-0.9113,-0.9312,-0.9516,-0.9715,-0.9715,-0.9715,-0.9715,-0.9715,-0.9715,-0.9672,-0.9203,-0.8975,-0.8848,-0.8225,-0.7736,-0.7352,-0.7176,-0.6975,-0.6866,-0.7261,0.0,0.0,0.0,-0.9071,-0.9594,0.0,0.0,-1.1045,-1.1615,-1.2107,-1.2451,-1.2656,-1.2705,-1.265,-1.2457,-1.221,-1.179,-1.1128,-1.0779,-1.046,0.0,0.0,0.0,-1.1967,-1.2783,0.0,-1.417,-1.5091,0.0,-1.4291,0.0,-1.745,-1.7218,-1.841,0.0,0.0,-2.0292,-2.0617,-2.1371,-2.1413,-2.1756,-2.2568,-2.2594,-2.2594,-2.2594,-2.2594,-2.2594,-2.2594,-2.2594,-2.2594,-2.2594,-2.2594,-2.2594,-2.2594,-2.2594,-2.2594,-2.2594,-2.25,-2.2013,-2.13,-2.0472,-2.0193,-2.0201,-1.9446,-1.9683,-2.0292,0.0,0.0,0.0,0.0,0.0,0.0,0.0,0.0,0.0,0.0,0.0,0.0,0.0,0.0,0.0,0.0,0.0,0.0,0.0,-0.6528,-0.6635,-0.6635,-0.6921,-0.7079,-0.7079,-0.7297,-0.7465,-0.7605,-0.7864,-0.8102,-0.8339,-0.8518,-0.8668,-0.8789,-0.8789,-0.8789,-0.8789,-0.8789,-0.8789,0.0,0.0,-0.8214,-0.8154,-0.7629,-0.7243,-0.7012,-0.6896,-0.7037,-0.7363,0.0,0.0,-0.9318,-0.9552,-0.9889,-1.0304,-1.0833,0.0,-1.1582,-1.2119,-1.2481,-1.2705,-1.2705,-1.2614,-1.2433,-1.2059,-1.1633,-1.1134,-1.0334,-0.9955,0.0,0.0,0.0,0.0,0.0,0.0,0.0,-1.3664,-1.4521,-1.4908,0.0,-1.5704,0.0,-1.725,-1.8234,-1.9209,0.0,-2.0292,-2.0432,-2.0682,-2.0676,-2.1056,-2.1844,-2.1869,-2.208,-2.2594,-2.2594,-2.2594,-2.2594,-2.2594,-2.2594,-2.2594,-2.2594,-2.2594,-2.2594,0.0,-2.2342,-2.1869,-2.1869,-2.113,-1.9982,-1.9439,-1.9114,-1.8934,-1.8373,-1.8511,-1.898,0.0,0.0,0.0,0.0,0.0,0.0,0.0,0.0,0.0,0.0,0.0,0.0,0.0,0.0,0.0,0.0,0.0,0.0,0.0,0.0,-0.6395,-0.6395,-0.6395,-0.6395,-0.6395,-0.6635,-0.6866,-0.7097,-0.7328,-0.7551,-0.7745,-0.7745,-0.7763,-0.7793,-0.7793,-0.7793,-0.7793,-0.7793,-0.7775,-0.7748,-0.7564,-0.7467,-0.7388,0.0,-0.6756,-0.6738,-0.6574,-0.7068,-0.7895,0.0,-0.9197,-0.9757,-1.0244,-1.0761,-1.1317,-1.1823,-1.1934,-1.2042,-1.2572,-1.2705,-1.2705,-1.2705,-1.2506,-1.2168,-1.1567,-1.102,-1.0388,-0.9534,0.0,-0.8903,-0.8602,-0.9047,-0.9715,-1.0509,0.0,-1.2554,-1.3399,-1.3936,-1.4256,-1.4292,-1.5045,-1.5981,-1.7016,-1.7902,-1.888,-2.0011,-1.9965,-1.9843,-1.9741,-1.9732,-2.0,-2.0586,-2.0656,-2.12,-2.2342,-2.2384,-2.2384,-2.2384,-2.2384,-2.2291,-2.2131,-2.2131,-2.2131,-2.2131,0.0,0.0,-2.0672,-2.0633,-1.9721,-1.8311,-1.8267,-1.7878,-1.7296,-1.7296,-1.7296,-1.7296,0.0,0.0,0.0,0.0,0.0,0.0,0.0,0.0,0.0,0.0,-0.3734,-0.4089,0.0,0.0,0.0,0.0,0.0,0.0,0.0,0.0,0.0,-0.6395,-0.6395,-0.6395,-0.6395,-0.6437,-0.6486,-0.6528,-0.6577,-0.6734,-0.6994,-0.6994,-0.7109,-0.7315,-0.7315,-0.7315,-0.7315,-0.7315,-0.7194,-0.6988,-0.6963,-0.6811,-0.6611,-0.6492,0.0,0.0,-0.6927,-0.7182,-0.7533,-0.8896,-0.9871,-1.0533,-1.0845,-1.1347,-1.1802,-1.2155,-1.2246,-1.2312,-1.262,-1.2705,-1.2705,-1.2705,-1.2506,-1.2113,-1.1359,-1.0737,0.0,0.0,-0.8459,-0.8301,-0.7866,-0.8546,0.0,-1.0232,0.0,0.0,0.0,0.0,-1.4051,0.0,0.0,0.0,0.0,0.0,0.0,0.0,0.0,0.0,-1.9399,-1.9471,-1.9402,-1.9173,-1.9398,-2.0055,-2.1191,-2.1191,-2.1191,-2.1191,-2.1191,-2.068,-1.9797,-1.9797,-1.9797,-1.9797,-1.9797,0.0,-1.9465,-1.9249,-1.8814,-1.8289,-1.8074,-1.7688,-1.7296,-1.7296,-1.7296,-1.7296,0.0,0.0,0.0,0.0,0.0,0.0,0.0,-0.2953,-0.3108,-0.3408,-0.3705,-0.396,-0.4129,-0.4647,-0.507,0.0,0.0,0.0,0.0,0.0,0.0,0.0,-0.6395,-0.6395,-0.6395,0.0,0.0,0.0,0.0,0.0,0.0,0.0,0.0,0.0,0.0,-0.6793,-0.6793,-0.6793,-0.6669,-0.6483,-0.6561,-0.6476,-0.6297,0.0,0.0,0.0,0.0,-0.717,-0.7546,-0.8379,-0.9396,-1.04,-1.108,-1.1567,-1.1934,-1.2234,-1.2312,-1.2373,-1.2632,-1.2705,-1.2705,-1.2705,-1.23,-1.1657,-1.0851,0.0,0.0,0.0,-0.7931,-0.7872,-0.7644,0.0,0.0,0.0,0.0,0.0,0.0,0.0,0.0,0.0,0.0,0.0,0.0,0.0,0.0,0.0,0.0,0.0,-1.8482,-1.8238,-1.8008,-1.7976,-1.8643,-1.9317,-2.0004,-2.0004,-2.0004,-2.0004,-2.0004,-1.9746,-1.9176,-1.9176,-1.9176,-1.9169,-1.9052,0.0,-1.8128,-1.7878,-1.722,-1.6404,-1.6264,-1.6017,-1.5751,-1.5751,-1.5751,-1.5751,0.0,0.0,0.0,0.0,0.0,0.0,0.0,-0.3076,-0.3293,-0.3629,-0.3741,-0.392,-0.4194,-0.4308,-0.4489,0.0,0.0,0.0,0.0,0.0,0.0,0.0,0.0,-0.6395,0.0,0.0,0.0,0.0,0.0,0.0,0.0,0.0,0.0,0.0,0.0,0.0,0.0,-0.6395,-0.6346,0.0,0.0,0.0,0.0,0.0,0.0,0.0,0.0,0.0,-0.7419,-0.7844,-0.8639,-0.9666,-1.0731,-1.1405,-1.189,-1.2155,-1.227,-1.2373,-1.2632,-1.2705,-1.2705,-1.2705,-1.2113,-1.1285,-1.0478,-0.9474,0.0,0.0,-0.7552,-0.7577,-0.7522,0.0,0.0,0.0,0.0,0.0,0.0,0.0,0.0,0.0,0.0,0.0,0.0,0.0,0.0,0.0,0.0,0.0,-1.7273,-1.6672,-1.645,-1.668,-1.7564,-1.8308,-1.8763,-1.8835,-1.8871,-1.8871,-1.8871,-1.8715,-1.8499,-1.8499,-1.8464,-1.8386,-1.8198,0.0,0.0,-1.6463,-1.5681,-1.4708,-1.4894,-1.4686,-1.4346,-1.4532,-1.4484,-1.4298,0.0,0.0,0.0,0.0,0.0,0.0,0.0,-0.3252,-0.3508,-0.3924,-0.387,-0.3863,-0.4014,-0.4309,-0.4455,0.0,0.0,0.0,0.0,0.0,0.0,0.0,0.0,0.0,0.0,0.0,0.0,0.0,0.0,0.0,0.0,0.0,0.0,0.0,0.0,0.0,0.0,0.0,0.0,0.0,0.0,0.0,0.0,0.0,0.0,0.0,0.0,0.0,0.0,0.0,0.0,-0.8267,-0.936,-1.0539,-1.1579,-1.1838,0.0,0.0,-1.2632,-1.2705,-1.2705,-1.2705,-1.2113,-1.1285,-1.0478,0.0,0.0,-0.7424,-0.7425,-0.7522,-0.7279,-0.7647,-0.8219,0.0,0.0,-1.0142,0.0,0.0,0.0,0.0,0.0,0.0,0.0,0.0,0.0,0.0,0.0,0.0,0.0,-1.5272,-1.4905,-1.493,-1.5501,-1.6323,-1.736,-1.7644,-1.774,-1.774,-1.774,-1.7206,-1.6205,-1.6205,-1.607,-1.5842,-1.5817,0.0,0.0,-1.5009,-1.4838,-1.4789,-1.5431,-1.5118,-1.4394,-1.533,-1.5092,-1.4298,0.0,0.0,0.0,0.0,0.0,0.0,-0.3057,-0.31,-0.3297,-0.3812,-0.3754,-0.3744,-0.3866,-0.3995,-0.4034,-0.3899,0.0,0.0,0.0,0.0,0.0,0.0,0.0,0.0,0.0,0.0,0.0,0.0,0.0,0.0,0.0,0.0,0.0,0.0,0.0,0.0,0.0,0.0,0.0,0.0,0.0,0.0,0.0,0.0,0.0,0.0,0.0,0.0,0.0,0.0,0.0,0.0,-0.8021,-0.8908,0.0,0.0,-1.1383,-1.1721,-1.2312,-1.2584,-1.2662,-1.2506,-1.1866,-1.1032,-1.0238,0.0,-0.803,-0.7333,-0.7285,-0.7328,-0.7218,-0.7593,-0.8051,-0.8554,-0.8561,-0.9028,-1.0491,0.0,0.0,0.0,0.0,0.0,0.0,0.0,0.0,0.0,0.0,0.0,0.0,-1.4642,-1.4539,-1.4708,-1.492,-1.5377,-1.6155,-1.6275,-1.6331,-1.6331,-1.6331,-1.5989,-1.5421,-1.5421,-1.536,-1.5252,0.0,0.0,0.0,-1.4576,-1.4467,-1.4503,-1.4767,-1.4675,-1.4346,-1.4765,-1.4621,-1.4298,0.0,0.0,0.0,0.0,0.0,-0.2781,-0.3,-0.3027,-0.3185,-0.3666,-0.3703,-0.3703,-0.3782,-0.3754,-0.3713,-0.361,-0.3906,0.0,0.0,0.0,0.0,0.0,0.0,0.0,0.0,0.0,0.0,0.0,0.0,0.0,0.0,0.0,0.0,0.0,0.0,0.0,0.0,0.0,0.0,0.0,0.0,0.0,0.0,0.0,0.0,0.0,0.0,0.0,0.0,0.0,0.0,0.0,0.0,-0.7691,-0.8546,0.0,-1.0635,-1.1154,-1.1884,-1.2276,-1.2427,-1.2246,-1.1534,-1.0677,0.0,-0.8818,-0.7725,-0.7394,-0.7255,-0.7224,-0.7303,-0.7647,-0.7961,-0.8141,-0.8087,-0.8453,-0.9733,0.0,0.0,0.0,0.0,0.0,0.0,0.0,0.0,0.0,0.0,0.0,0.0,-1.4298,-1.4389,-1.4588,-1.4672,-1.4896,-1.5264,-1.5348,-1.5384,-1.5384,-1.5384,-1.5288,-1.5107,-1.5107,-1.5065,-1.498,0.0,0.0,0.0,-1.4377,-1.4298,-1.4298,-1.4298,-1.4298,-1.4298,-1.4298,-1.4298,-1.4298,0.0,0.0,0.0,0.0,0.0,0.0,-0.289,-0.3118,-0.336,-0.3583,-0.3726,-0.3788,-0.3792,-0.3689,-0.3604,-0.3604,-0.3604,0.0,0.0,0.0,0.0,0.0,0.0,0.0,0.0,0.0,-0.6522,-0.6805,-0.6805,0.0,0.0,0.0,0.0,0.0,0.0,0.0,0.0,0.0,0.0,0.0,0.0,0.0,0.0,0.0,0.0,0.0,0.0,0.0,0.0,0.0,0.0,0.0,0.0,-0.7206,-0.7509,-0.9059,-1.0075,-1.0809,-1.1351,-1.1688,-1.1926,-1.1886,-1.1086,-1.0232,0.0,-0.8697,-0.7595,-0.7589,-0.7382,-0.7279,-0.754,-0.7768,-0.7901,-0.7907,-0.8117,-0.8657,-0.9757,0.0,0.0,0.0,0.0,0.0,0.0,0.0,0.0,0.0,0.0,0.0,0.0,-1.4298,-1.4298,-1.4298,-1.457,-1.4721,-1.4727,-1.498,-1.5113,-1.5113,-1.5113,-1.5113,-1.5107,-1.5107,-1.4968,0.0,0.0,0.0,0.0,-1.4298,-1.4298,-1.4298,-1.4298,-1.4298,-1.4298,-1.4298,-1.4298,-1.4298,0.0,0.0,0.0,0.0,0.0,0.0,0.0,-0.2696,-0.2797,-0.3079,-0.3039,-0.3022,-0.3166,-0.3196,-0.3225,-0.3313,-0.3495,0.0,0.0,0.0,0.0,0.0,0.0,0.0,0.0,-0.6405,-0.672,-0.6805,-0.6987,-0.7079,-0.7072,0.0,0.0,0.0,0.0,0.0,0.0,0.0,0.0,0.0,0.0,0.0,0.0,0.0,0.0,0.0,0.0,0.0,0.0,0.0,0.0,0.0,0.0,0.0,0.0,-0.7733,-0.8601,0.0,-1.0214,-1.0599,-1.0755,-1.0575,-1.0148,-0.9642,-0.9191,-0.8299,-0.754,-0.7364,-0.7261,-0.7224,-0.7309,-0.7647,-0.8015,-0.8375,-0.853,-0.883,0.0,0.0,0.0,0.0,0.0,0.0,0.0,0.0,0.0,0.0,0.0,0.0,0.0,-1.4298,-1.4298,-1.4298,-1.4383,-1.4521,-1.4714,-1.4799,-1.4841,-1.4841,-1.4841,-1.4739,-1.4552,-1.4552,0.0,0.0,0.0,0.0,0.0,-1.4298,-1.4298,-1.4298,-1.4298,-1.4298,-1.4298,-1.4298,-1.4298,-1.4298,0.0,0.0,0.0,0.0,0.0,0.0,0.0,-0.2419,-0.2544,-0.2722,-0.2688,-0.2685,-0.281,-0.2853,-0.2963,-0.3189,-0.3351,0.0,0.0,0.0,0.0,0.0,0.0,0.0,-0.5696,-0.6161,-0.6618,-0.7109,-0.7273,-0.7376,-0.7454,-0.7291,-0.7073,0.0,0.0,0.0,0.0,0.0,0.0,0.0,0.0,0.0,0.0,0.0,0.0,0.0,0.0,0.0,0.0,0.0,0.0,0.0,0.0,0.0,0.0,0.0,-0.7503,-0.8208,-0.9185,-0.9721,-0.9961,-0.9799,-0.9486,-0.9095,-0.8656,-0.7973,-0.7401,-0.7236,-0.72,-0.723,-0.7334,-0.7659,-0.8009,-0.8333,-0.8493,0.0,0.0,0.0,0.0,0.0,0.0,0.0,0.0,0.0,0.0,0.0,0.0,0.0,0.0,0.0,-1.4298,-1.4298,-1.4298,-1.4383,-1.4558,-1.4558,-1.4558,-1.4558,-1.4558,-1.4467,-1.4298,-1.4298,0.0,0.0,0.0,0.0,0.0,-1.4298,-1.4298,-1.4298,-1.4298,-1.4298,-1.4298,-1.4298,-1.4298,-1.4298,0.0,0.0,0.0,0.0,0.0,0.0,0.0,-0.2275,-0.2537,-0.2476,-0.2584,-0.2644,-0.2654,-0.2654,-0.2803,-0.314,0.0,0.0,0.0,0.0,0.0,0.0,0.0,0.0,-0.5588,-0.569,-0.631,-0.7514,-0.7582,-0.7713,-0.7931,-0.7931,-0.7537,-0.6866,-0.6842,0.0,0.0,0.0,0.0,0.0,0.0,0.0,0.0,0.0,0.0,0.0,0.0,0.0,0.0,0.0,0.0,0.0,0.0,0.0,0.0,0.0,0.0,0.0,0.0,-0.8945,-0.9348,-0.9348,-0.8969,-0.8536,-0.8289,-0.7671,0.0,-0.717,-0.7188,-0.7285,-0.7546,-0.7768,-0.7919,-0.7973,0.0,0.0,0.0,0.0,0.0,0.0,0.0,0.0,0.0,0.0,0.0,0.0,0.0,0.0,0.0,0.0,-1.4298,-1.4298,-1.4298,-1.4298,-1.4298,-1.4298,-1.4298,-1.4298,-1.4298,-1.4298,-1.4298,-1.4298,0.0,0.0,0.0,0.0,0.0,-1.4298,-1.4298,-1.4298,-1.4298,-1.4298,-1.4298,-1.4298,-1.4298,-1.4298,0.0,0.0,0.0,0.0,0.0,0.0,0.0,0.0,0.0,0.0,-0.2171,-0.2185,-0.2231,-0.2242,-0.2395,0.0,0.0,0.0,0.0,0.0,0.0,0.0,0.0,0.0,-0.4622,-0.5529,-0.625,-0.6755,-0.7479,-0.7964,-0.8201,-0.8201,-0.7931,-0.7401,-0.72,-0.6848,0.0,0.0,0.0,0.0,0.0,0.0,0.0,0.0,0.0,0.0,0.0,0.0,0.0,0.0,0.0,0.0,0.0,0.0,0.0,0.0,-0.6631,-0.6878,-0.7164,0.0,-0.7739,-0.7739,-0.7642,-0.7533,0.0,-0.7158,-0.6902,-0.6902,-0.706,-0.7285,-0.7546,-0.7768,-0.8093,-0.8722,0.0,0.0,0.0,0.0,0.0,0.0,0.0,0.0,0.0,0.0,0.0,0.0,0.0,0.0,0.0,0.0,-1.4298,-1.4298,-1.4298,-1.4298,-1.4298,-1.4298,-1.4298,-1.4298,-1.4298,-1.4298,-1.4298,-1.4298,0.0,0.0,0.0,0.0,-1.4298,-1.4298,-1.4298,-1.4298,-1.4298,-1.4298,-1.4298,-1.4298,-1.4298,-1.4298,0.0,0.0,0.0,0.0,0.0,0.0,0.0,0.0,0.0,0.0,0.0,0.0,0.0,0.0,0.0,0.0,0.0,0.0,0.0,0.0,0.0,0.0,0.0,-0.4078,-0.4294,-0.5146,-0.5962,-0.6685,-0.7418,-0.8,-0.8493,-0.8345,-0.7922,-0.7267,-0.6748,-0.6471,0.0,0.0,0.0,0.0,0.0,0.0,0.0,0.0,0.0,0.0,0.0,-0.6099,0.0,-0.6184,-0.6297,-0.6395,0.0,0.0,0.0,0.0,-0.6492,-0.6607,-0.6607,-0.7067,-0.752,-0.752,-0.752,-0.749,-0.7413,-0.7085,-0.6805,-0.6805,-0.7018,-0.7285,-0.7546,-0.7864,0.0,0.0,0.0,0.0,0.0,0.0,0.0,0.0,0.0,0.0,0.0,0.0,0.0,0.0,0.0,0.0,0.0,0.0,-1.4298,-1.4298,-1.4298,-1.4298,-1.4298,-1.4298,-1.4298,-1.4298,-1.4298,-1.4298,-1.4298,-1.4298,-1.4298,0.0,0.0,0.0,-1.4298,-1.4298,-1.4298,-1.4298,-1.4298,-1.4298,-1.4298,-1.4298,-1.4298,-1.4298,0.0,0.0,0.0,0.0,0.0,0.0,0.0,0.0,0.0,0.0,0.0,0.0,0.0,0.0,0.0,0.0,0.0,0.0,0.0,0.0,0.0,0.0,-0.349,-0.3784,-0.4224,-0.4653,-0.5461,-0.6696,-0.7257,-0.7866,-0.8492,-0.8356,-0.7747,-0.6743,-0.6036,-0.5934,0.0,0.0,0.0,0.0,0.0,0.0,0.0,0.0,0.0,0.0,0.0,0.0,0.0,-0.6142,-0.6276,-0.6395,-0.6395,0.0,0.0,0.0,0.0,0.0,-0.6492,-0.7182,-0.7871,-0.7751,-0.7808,-0.7796,-0.7595,-0.7188,-0.6866,-0.6866,-0.7079,-0.7352,-0.7662,-0.8069,0.0,0.0,0.0,0.0,0.0,0.0,0.0,0.0,0.0,0.0,0.0,0.0,0.0,0.0,0.0,0.0,0.0,0.0,0.0,-1.4298,-1.4298,-1.4298,-1.4298,-1.4298,-1.4298,-1.4298,-1.4298,-1.4298,-1.4298,-1.4298,-1.4298,0.0,0.0,0.0,-1.4298,-1.4298,-1.4298,-1.4298,-1.4298,-1.4298,-1.4298,-1.4298,-1.4298,-1.4298,0.0,0.0,0.0,0.0,0.0,0.0,0.0,0.0,0.0,0.0,0.0,0.0,0.0,0.0,0.0,0.0,0.0,0.0,0.0,0.0,0.0,-0.3056,-0.3306,-0.3565,-0.3871,-0.4122,-0.4751,-0.5805,-0.6722,-0.7291,-0.754,-0.8045,-0.754,-0.613,-0.595,-0.5847,-0.583,-0.6233,0.0,0.0,0.0,0.0,0.0,0.0,0.0,0.0,0.0,0.0,0.0,-0.6019,-0.6196,-0.6395,-0.6395,0.0,0.0,0.0,0.0,0.0,-0.6957,-0.7484,-0.7739,-0.7116,-0.7303,-0.7589,-0.7322,-0.72,-0.7139,-0.7139,-0.7352,-0.7661,0.0,-0.8439,0.0,0.0,0.0,0.0,0.0,0.0,0.0,0.0,0.0,0.0,0.0,0.0,0.0,0.0,0.0,0.0,0.0,0.0,0.0,-1.4298,-1.4298,-1.4298,-1.4298,-1.4298,-1.4298,-1.4298,-1.4298,-1.4298,-1.4298,-1.4298,-1.4298,0.0,0.0,-1.4298,-1.4298,-1.4298,-1.4298,-1.4298,-1.4298,-1.4298,-1.4298,-1.4298,-1.4298,-1.4298,0.0,0.0,0.0,0.0,0.0,0.0,0.0,0.0,0.0,0.0,0.0,0.0,0.0,0.0,0.0,0.0,0.0,0.0,0.0,0.0,-0.2878,-0.2987,-0.3126,-0.3301,-0.358,-0.399,-0.4731,-0.577,-0.6146,-0.6763,-0.7568,-0.7032,-0.6428,-0.5783,-0.5523,-0.5514,-0.5717,-0.612,-0.6346,0.0,0.0,0.0,0.0,0.0,0.0,0.0,0.0,0.0,0.0,0.0,-0.6126,-0.6297,-0.6367,0.0,0.0,0.0,0.0,0.0,-0.6708,-0.7249,-0.7667,-0.7328,-0.7715,-0.8118,-0.7858,-0.7689,-0.7623,-0.7768,-0.7894,0.0,0.0,0.0,0.0,0.0,0.0,0.0,0.0,0.0,0.0,0.0,0.0,0.0,0.0,0.0,0.0,0.0,0.0,0.0,0.0,0.0,0.0,0.0,-1.4298,-1.4298,-1.4298,-1.4298,-1.4298,-1.4298,-1.4298,-1.4298,-1.4298,-1.4298,-1.4298,-1.4298,0.0,-1.4298,-1.4298,-1.4298,-1.4298,-1.4298,-1.416,-1.407,-1.407,-1.407,-1.416,-1.4298,0.0,0.0,0.0,0.0,0.0,0.0,0.0,0.0,0.0,0.0,0.0,0.0,0.0,0.0,0.0,0.0,0.0,0.0,0.0,-0.2674,-0.278,-0.2965,-0.2968,-0.3135,-0.3441,-0.386,-0.4595,-0.5609,-0.5608,-0.6155,-0.7244,-0.5828,-0.5202,-0.5176,-0.4902,-0.4976,-0.5312,-0.5636,-0.5866,0.0,0.0,0.0,0.0,0.0,0.0,0.0,0.0,0.0,0.0,0.0,0.0,0.0,0.0,0.0,0.0,-0.6395,-0.6395,-0.6419,-0.654,-0.7085,-0.7613,-0.7648,-0.8148,-0.8596,-0.8518,-0.8273,-0.8177,-0.8501,-0.8573,0.0,0.0,0.0,0.0,0.0,0.0,0.0,0.0,0.0,0.0,0.0,0.0,0.0,0.0,0.0,0.0,0.0,0.0,0.0,0.0,0.0,0.0,0.0,-1.4298,-1.4298,-1.4298,-1.4298,-1.4298,-1.4298,-1.4298,-1.4298,-1.4298,-1.4298,-1.4298,-1.4298,-1.4298,-1.425,-1.4208,-1.4208,-1.416,-1.4106,-1.3877,-1.3786,-1.3786,-1.3786,-1.3925,-1.4106,0.0,0.0,0.0,0.0,0.0,0.0,0.0,0.0,0.0,0.0,0.0,0.0,0.0,0.0,0.0,0.0,0.0,0.0,0.0,-0.2563,-0.2761,-0.2904,-0.2912,-0.3115,-0.358,-0.3518,-0.3904,-0.4783,-0.5089,-0.5374,-0.5638,-0.4727,-0.4174,-0.3924,-0.4085,-0.4106,-0.4053,-0.4382,-0.4679,-0.4943,-0.5381,0.0,0.0,0.0,0.0,0.0,0.0,0.0,0.0,0.0,0.0,0.0,0.0,0.0,-0.6395,-0.6395,-0.6395,-0.6498,-0.7012,-0.7364,-0.7656,-0.7832,-0.8093,-0.8469,-0.8933,-0.8836,-0.88,-0.9324,-0.9426,0.0,0.0,0.0,0.0,0.0,0.0,0.0,0.0,0.0,0.0,0.0,0.0,0.0,0.0,0.0,0.0,0.0,0.0,0.0,0.0,0.0,0.0,0.0,0.0,-1.4298,-1.4298,-1.4298,-1.4298,-1.4298,-1.4298,-1.4298,-1.4298,-1.4298,-1.4298,-1.4298,-1.4298,-1.416,-1.3931,-1.3931,-1.3781,-1.3539,-1.3539,-1.3539,-1.3539,-1.3539,-1.3539,-1.3588,0.0,0.0,0.0,0.0,0.0,0.0,0.0,0.0,0.0,0.0,0.0,0.0,0.0,0.0,0.0,0.0,0.0,0.0,0.0,-0.2355,-0.2552,-0.2767,-0.2849,-0.3015,-0.3233,-0.3335,-0.3848,-0.4763,-0.5099,-0.4988,-0.4422,-0.4118,-0.3804,-0.3558,-0.3856,-0.3941,-0.3916,-0.421,-0.4518,-0.4808,-0.4763,0.0,0.0,0.0,0.0,0.0,0.0,0.0,0.0,0.0,-0.5394,-0.5661,-0.6026,-0.607,-0.6029,-0.6325,-0.6395,-0.6437,-0.6659,-0.7145,-0.7619,-0.7697,-0.8148,-0.8656,-0.9017,-0.9281,-0.96,-1.0136,-1.0244,0.0,0.0,0.0,0.0,0.0,0.0,0.0,0.0,0.0,0.0,0.0,0.0,0.0,0.0,0.0,0.0,0.0,0.0,0.0,0.0,0.0,0.0,0.0,0.0,-1.4298,-1.4298,-1.4298,-1.4298,-1.4298,-1.4298,-1.4298,-1.4298,-1.4298,-1.4298,-1.4298,-1.4112,-1.3973,-1.3883,-1.3738,-1.3593,-1.3491,-1.3298,-1.3244,-1.3244,-1.3244,-1.3346,-1.3491,0.0,0.0,0.0,0.0,0.0,0.0,0.0,0.0,0.0,0.0,0.0,0.0,0.0,0.0,0.0,0.0,0.0,0.0,-0.2079,-0.2194,-0.2379,-0.2693,-0.275,-0.2843,-0.2997,-0.3183,-0.3661,-0.4409,-0.4663,-0.4384,-0.3681,-0.3617,-0.3543,-0.3402,-0.3538,-0.3604,-0.362,-0.3745,-0.3954,-0.4215,-0.4152,-0.4189,0.0,0.0,0.0,0.0,0.0,0.0,0.0,0.0,-0.4773,-0.4953,-0.5442,-0.5601,-0.5688,-0.6076,-0.6341,-0.6516,-0.6516,-0.7054,-0.7619,-0.7679,-0.8015,-0.8485,-0.9189,-0.9703,-1.0202,-1.0815,-1.0906,-1.0833,-1.0924,0.0,0.0,0.0,0.0,0.0,0.0,0.0,0.0,0.0,0.0,0.0,0.0,0.0,0.0,0.0,0.0,0.0,0.0,0.0,0.0,0.0,0.0,-1.4298,-1.4298,-1.4298,-1.4298,-1.4298,-1.4202,-1.4202,-1.4298,-1.4298,-1.425,-1.416,-1.3979,-1.3786,-1.3642,-1.3443,-1.3346,-1.3249,-1.3098,-1.3001,-1.3001,-1.3001,-1.3098,-1.3298,0.0,0.0,0.0,0.0,0.0,0.0,0.0,0.0,0.0,0.0,0.0,0.0,0.0,0.0,0.0,0.0,0.0,0.0,-0.2081,-0.21,-0.2272,-0.2687,-0.2569,-0.2654,-0.2992,-0.3002,-0.3199,-0.361,-0.361,-0.352,-0.3392,-0.3251,-0.3273,-0.3379,-0.3048,-0.293,-0.2996,-0.278,-0.2818,-0.303,-0.3506,-0.3498,0.0,0.0,0.0,0.0,0.0,0.0,0.0,0.0,-0.3779,-0.4433,-0.4633,-0.501,-0.5423,-0.5631,-0.6206,-0.6782,-0.6782,-0.7194,-0.7636,-0.7835,-0.7694,-0.7912,-0.9524,-1.0112,-1.0533,-1.1333,-1.1317,-1.1208,-1.1447,0.0,0.0,0.0,0.0,0.0,0.0,0.0,0.0,0.0,0.0,0.0,0.0,0.0,0.0,0.0,0.0,0.0,0.0,0.0,0.0,0.0,0.0,0.0,-1.4292,-1.4292,-1.4292,-1.4298,-1.4022,-1.4022,-1.4298,-1.4298,-1.416,-1.3883,-1.3883,-1.3593,-1.3098,-1.3098,-1.3001,-1.2813,-1.2813,-1.2813,-1.2813,-1.2813,-1.2813,-1.2813,0.0,0.0,0.0,0.0,0.0,0.0,0.0,0.0,0.0,0.0,0.0,0.0,0.0,0.0,0.0,0.0,0.0,0.0,-0.2006,-0.2069,-0.2234,-0.2544,-0.2604,-0.2721,-0.2917,-0.2983,-0.3115,-0.3327,-0.3414,-0.3352,-0.3129,-0.3186,-0.3144,-0.3043,-0.2998,-0.2959,-0.2926,-0.2758,-0.2815,-0.3004,-0.2995,-0.3019,-0.306,0.0,0.0,0.0,0.0,0.0,0.0,0.0,0.0,0.0,-0.4256,-0.4513,-0.4762,-0.5486,-0.5914,-0.6179,-0.6179,-0.687,0.0,-0.7614,0.0,0.0,-0.9145,-0.9702,-1.04,-1.1794,-1.2017,-1.1926,-1.1784,0.0,0.0,0.0,0.0,0.0,0.0,0.0,0.0,0.0,0.0,0.0,0.0,0.0,0.0,0.0,0.0,0.0,0.0,0.0,0.0,0.0,0.0,0.0,-1.402,-1.3826,-1.3832,-1.4022,-1.3732,-1.3781,-1.4022,-1.3829,-1.3684,-1.3588,-1.3443,-1.3244,-1.3098,-1.2953,-1.2861,-1.2813,-1.2813,-1.2813,-1.2813,-1.2813,-1.2813,-1.2813,0.0,0.0,0.0,0.0,0.0,0.0,0.0,0.0,0.0,0.0,-0.0143,-0.0379,0.0,0.0,0.0,0.0,0.0,0.0,0.0,-0.2047,-0.2187,-0.249,-0.2531,-0.2648,-0.2884,-0.2964,-0.3034,-0.308,-0.3177,-0.3139,-0.2956,-0.3072,-0.3075,-0.3012,-0.3059,-0.305,-0.2998,-0.2879,-0.2863,-0.2943,-0.2829,-0.2843,-0.2937,0.0,0.0,0.0,0.0,0.0,0.0,0.0,0.0,0.0,-0.3537,-0.3854,-0.418,-0.4912,-0.5403,-0.5774,-0.6126,-0.687,0.0,-0.7649,-0.7835,-0.8088,-0.8443,0.0,0.0,0.0,0.0,-1.2264,0.0,0.0,0.0,0.0,0.0,0.0,0.0,0.0,0.0,0.0,0.0,0.0,0.0,0.0,0.0,0.0,0.0,0.0,0.0,0.0,0.0,0.0,0.0,0.0,-1.361,-1.3379,-1.3316,-1.3478,-1.3189,-1.3142,-1.3295,-1.3448,-1.3443,-1.3346,-1.3104,-1.3001,-1.2953,-1.2861,-1.2813,-1.2813,-1.2813,-1.2813,-1.2813,-1.2813,-1.2813,-1.2813,0.0,0.0,0.0,0.0,0.0,0.0,0.0,0.0,0.0,0.0,0.0,-0.0233,0.0,0.0,0.0,0.0,0.0,0.0,0.0,-0.2031,-0.2139,-0.2449,-0.2387,-0.2533,-0.2882,-0.2953,-0.2953,-0.289,-0.2967,-0.2964,-0.2893,-0.298,-0.3083,-0.3164,-0.3183,-0.3175,-0.3139,-0.3034,-0.2924,-0.2857,-0.2868,-0.2865,-0.2843,-0.2731,0.0,0.0,0.0,0.0,0.0,0.0,0.0,0.0,-0.2697,-0.3126,-0.3631,-0.4118,-0.4763,-0.5504,-0.6324,-0.695,-0.744,-0.7721,-0.7654,0.0,-0.7549,-0.9036,-1.0561,0.0,0.0,0.0,0.0,0.0,0.0,0.0,0.0,0.0,0.0,0.0,0.0,0.0,0.0,0.0,0.0,0.0,0.0,0.0,0.0,0.0,0.0,0.0,0.0,0.0,0.0,0.0,-1.3115,-1.2842,-1.2757,0.0,-1.2506,-1.2363,-1.238,-1.307,-1.3225,-1.2984,-1.2845,-1.2748,-1.2743,-1.2646,-1.2598,-1.2598,-1.2501,-1.2453,-1.2453,-1.2453,-1.2453,-1.2501,0.0,0.0,0.0,0.0,0.0,0.0,0.0,0.0,0.0,0.0,0.0,0.0,0.0,0.0,0.0,0.0,0.0,0.0,0.0,-0.1939,-0.209,-0.2105,-0.254,-0.2811,-0.2887,-0.2915,-0.2917,-0.289,-0.2967,-0.2964,-0.2895,-0.3082,-0.3096,-0.2975,-0.3134,-0.3063,-0.2797,-0.2773,-0.2694,-0.2588,-0.2706,-0.2687,-0.2577,-0.255,-0.2468,0.0,0.0,0.0,0.0,0.0,0.0,0.0,-0.2573,-0.2874,-0.324,-0.3816,-0.4328,-0.4787,-0.5178,-0.5788,0.0,0.0,-0.7256,-0.7319,-0.6657,-0.7436,0.0,0.0,0.0,0.0,0.0,0.0,0.0,0.0,0.0,0.0,0.0,0.0,0.0,0.0,0.0,0.0,0.0,0.0,0.0,0.0,0.0,0.0,0.0,0.0,0.0,0.0,0.0,-1.2338,-1.2578,-1.231,-1.2271,0.0,-1.2277,-1.214,-1.2186,-1.2341,-1.2385,-1.2292,-1.2245,-1.2251,-1.2199,-1.1393,-1.1062,-1.1015,-1.0262,-0.9981,-0.9981,-0.9981,-0.9981,-1.0023,0.0,0.0,0.0,0.0,0.0,0.0,0.0,0.0,0.0,0.0,0.0,0.0,0.0,0.0,0.0,0.0,0.0,0.0,0.0,-0.1761,-0.1971,-0.2221,-0.2597,-0.2802,-0.2802,-0.2802,-0.2802,-0.2802,-0.2843,-0.2881,-0.2957,-0.311,-0.3186,-0.3153,-0.3251,-0.3115,-0.2835,-0.2819,-0.2687,-0.2506,-0.2571,-0.2561,-0.2495,-0.2422,-0.2365,-0.228,-0.2143,0.0,0.0,0.0,0.0,0.0,0.0,0.0,-0.2811,-0.3289,-0.3633,-0.4021,-0.4676,0.0,0.0,-0.6684,0.0,-0.68,-0.6284,-0.6468,0.0,0.0,0.0,0.0,0.0,0.0,0.0,0.0,0.0,0.0,0.0,0.0,0.0,0.0,0.0,0.0,0.0,0.0,0.0,0.0,0.0,0.0,0.0,0.0,0.0,0.0,-1.1914,-1.1933,-1.2057,-1.1794,-1.1723,-1.1893,-1.1759,-1.1715,-1.1725,-1.1991,-1.2094,-1.2094,-1.2094,-1.1814,-1.1344,-1.0833,-1.032,-0.9899,-0.9385,-0.9199,-0.9199,-0.9199,-0.9199,-0.9245,0.0,0.0,0.0,0.0,0.0,0.0,0.0,0.0,0.0,0.0,0.0,0.0,0.0,0.0,0.0,0.0,0.0,0.0,0.0,-0.1505,-0.1802,-0.2348,-0.2568,-0.2674,-0.2674,-0.2674,-0.2685,-0.2706,-0.2685,-0.2811,-0.3061,-0.3158,-0.3273,-0.3371,-0.3371,-0.3201,-0.2953,-0.2857,-0.2685,-0.2444,-0.2463,-0.246,-0.2414,-0.2323,-0.2283,-0.2251,-0.2135,-0.21,-0.21,-0.21,0.0,0.0,0.0,0.0,-0.2443,-0.2747,-0.2977,-0.3356,-0.429,0.0,-0.5727,-0.6452,-0.64,0.0,-0.6007,0.0,0.0,0.0,0.0,0.0,0.0,0.0,0.0,0.0,0.0,0.0,0.0,0.0,0.0,0.0,0.0,0.0,0.0,0.0,0.0,0.0,0.0,0.0,0.0,0.0,-1.1914,-1.1866,-1.1699,-1.1613,-1.1613,-1.1397,-1.1305,-1.1305,-1.1132,-1.1046,-1.1056,-1.1344,-1.1556,-1.1698,-1.1556,-1.1,-1.0214,-1.0076,-0.9526,-0.8832,-0.8652,-0.8606,-0.8606,-0.8606,-0.8606,-0.8648,0.0,0.0,0.0,0.0,0.0,0.0,0.0,0.0,0.0,0.0,0.0,-0.0126,-0.0461,-0.0841,0.0,0.0,0.0,0.0,-0.0688,0.0,0.0,-0.1872,-0.231,-0.2525,-0.2525,-0.2525,-0.2577,-0.2706,-0.2577,-0.2811,-0.3352,-0.3234,-0.3201,-0.3218,-0.3218,-0.3053,-0.2726,-0.2604,-0.2395,-0.217,-0.2277,-0.2256,-0.217,-0.2261,-0.2232,-0.2121,-0.2105,-0.21,-0.21,-0.21,-0.2117,0.0,0.0,0.0,0.0,0.0,-0.2738,-0.3029,-0.3391,0.0,-0.503,0.0,-0.5653,-0.5717,0.0,0.0,0.0,0.0,0.0,0.0,0.0,0.0,0.0,0.0,0.0,0.0,0.0,0.0,0.0,0.0,0.0,0.0,0.0,0.0,0.0,0.0,0.0,0.0,0.0,-1.1613,-1.1613,-1.1392,-1.1348,-1.1354,-1.1354,-1.1311,-1.1305,-1.1305,-1.0472,-1.0077,-1.0077,-0.9341,-0.9411,-1.0158,-0.9319,-0.8922,-0.8701,-0.7904,-0.7508,-0.7286,-0.649,-0.6179,-0.6179,-0.6179,-0.6179,-0.6179,0.0,0.0,0.0,0.0,0.0,0.0,0.0,0.0,0.0,0.0,0.0,-0.0059,-0.0207,-0.0544,0.0,0.0,0.0,0.0,-0.0521,-0.0928,0.0,-0.178,-0.2173,-0.239,-0.239,-0.239,-0.2414,-0.2468,-0.2414,-0.2659,-0.318,-0.3188,-0.3324,-0.3539,-0.3379,-0.3159,-0.2851,-0.2612,-0.2387,-0.2216,-0.22,-0.224,-0.232,-0.2224,-0.2243,-0.2311,-0.2145,-0.21,-0.21,-0.21,-0.2143,0.0,0.0,0.0,0.0,0.0,-0.2472,-0.2811,-0.3468,-0.4058,-0.4625,0.0,-0.5265,-0.5364,0.0,0.0,0.0,0.0,0.0,0.0,0.0,0.0,0.0,0.0,0.0,0.0,0.0,0.0,0.0,0.0,0.0,0.0,0.0,0.0,0.0,0.0,0.0,0.0,-0.9728,-0.9859,-0.9859,-0.9728,-0.9728,-0.9728,-0.9728,-1.025,-1.0516,-1.0516,-0.955,-0.9113,-0.9069,-0.8149,-0.8237,-0.9113,-0.8675,-0.8193,-0.7665,-0.7272,-0.6789,-0.626,-0.5866,-0.5688,-0.5688,-0.5688,-0.5688,-0.5688,0.0,0.0,0.0,0.0,0.0,0.0,0.0,0.0,0.0,0.0,0.0,0.0,0.0,0.0,0.0,0.0,0.0,0.0,-0.0378,0.0,0.0,0.0,-0.1944,-0.2159,-0.2251,-0.2239,-0.2252,-0.2296,-0.2267,-0.2523,-0.3045,-0.3153,-0.3409,-0.3804,-0.3567,-0.3274,-0.2978,-0.267,-0.2482,-0.2349,-0.224,-0.2325,-0.2493,-0.2371,-0.2449,-0.2571,-0.2376,-0.2256,-0.22,0.0,0.0,0.0,0.0,0.0,0.0,0.0,0.0,0.0,0.0,0.0,-0.4156,-0.4687,-0.4891,-0.5035,0.0,0.0,0.0,0.0,0.0,0.0,0.0,0.0,0.0,0.0,0.0,0.0,0.0,0.0,0.0,0.0,0.0,0.0,0.0,0.0,0.0,0.0,0.0,0.0,-0.8406,-0.8406,-0.8406,-0.8406,-0.8406,-0.843,-0.8475,-0.9174,-0.955,-0.955,-0.8588,-0.8149,-0.8105,-0.7183,-0.7139,-0.7797,-0.7797,-0.7404,-0.6745,-0.6745,-0.6349,-0.5688,-0.5688,-0.5688,-0.5688,-0.5688,-0.5688,-0.5688,0.0,0.0,0.0,0.0,0.0,0.0,0.0,0.0,0.0,0.0,0.0,0.0,0.0,-0.0292,-0.0378,-0.0047,-0.0309,0.0,0.0,0.0,0.0,0.0,0.0,0.0,-0.2108,-0.2047,-0.2117,-0.2296,-0.2181,-0.2481,-0.3185,-0.3191,-0.3409,-0.3807,-0.3657,-0.3379,-0.2984,-0.2781,-0.2604,-0.2493,-0.2487,-0.249,-0.2539,-0.2831,-0.2916,-0.2868,-0.2857,0.0,0.0,0.0,0.0,0.0,0.0,0.0,0.0,0.0,0.0,0.0,0.0,-0.3139,0.0,-0.3951,0.0,0.0,0.0,0.0,0.0,0.0,0.0,0.0,0.0,0.0,0.0,0.0,0.0,0.0,0.0,0.0,0.0,0.0,0.0,0.0,0.0,0.0,0.0,0.0,0.0,0.0,-0.8156,-0.8238,-0.8238,-0.8238,-0.8238,-0.828,-0.8416,-0.8502,-0.8588,-0.8544,-0.7621,-0.7183,-0.7139,-0.6216,-0.5777,-0.5866,-0.5866,-0.5822,-0.5777,-0.5777,-0.5733,-0.5688,-0.5688,-0.5688,-0.5688,-0.5688,-0.5688,-0.5688,0.0,0.0,0.0,0.0,0.0,0.0,0.0,0.0,0.0,0.0,0.0,0.0,0.0,-0.01,-0.0133,-0.0016,-0.0114,0.0,0.0,0.0,0.0,0.0,0.0,0.0,-0.21,-0.2031,-0.2027,-0.2115,-0.2055,-0.2283,-0.2762,-0.2919,-0.3142,-0.3411,-0.3449,-0.3395,-0.3223,-0.2854,-0.2751,-0.2818,-0.268,-0.2805,-0.3069,-0.2971,-0.3096,-0.3323,0.0,0.0,0.0,0.0,0.0,0.0,-0.2304,-0.228,-0.2328,-0.2143,-0.2221,0.0,0.0,0.0,0.0,-0.3513,0.0,0.0,0.0,0.0,0.0,0.0,0.0,0.0,0.0,0.0,0.0,0.0,0.0,0.0,0.0,0.0,0.0,0.0,0.0,0.0,0.0,0.0,0.0,0.0,0.0,0.0,-0.6398,-0.6402,-0.6402,-0.6402,-0.6402,-0.6712,-0.7351,-0.6782,-0.6805,-0.7398,-0.6469,-0.6005,-0.6011,-0.571,-0.5572,-0.5578,-0.5656,-0.5688,-0.5688,-0.5688,-0.5688,-0.5688,-0.5688,-0.5688,-0.5688,-0.5688,-0.5688,-0.5688,0.0,0.0,0.0,0.0,0.0,0.0,0.0,0.0,0.0,0.0,0.0,0.0,0.0,0.0,0.0,0.0,0.0,0.0,0.0,-0.0216,0.0,0.0,0.0,0.0,-0.1931,-0.1983,-0.1999,-0.1999,-0.1999,-0.2148,-0.243,-0.265,-0.2895,-0.3137,-0.3161,-0.3251,-0.3376,-0.3017,-0.2934,-0.3043,-0.2928,-0.3055,-0.333,-0.3254,-0.3373,-0.3564,0.0,0.0,0.0,0.0,0.0,0.0,-0.2484,-0.2368,-0.2333,-0.2145,-0.2256,-0.2446,-0.2541,0.0,0.0,0.0,0.0,0.0,0.0,0.0,0.0,0.0,0.0,0.0,0.0,0.0,0.0,0.0,0.0,0.0,0.0,0.0,0.0,0.0,0.0,0.0,0.0,0.0,0.0,0.0,0.0,0.0,-0.5252,-0.5252,-0.5252,-0.5252,-0.5328,-0.5635,-0.6245,-0.5679,-0.5699,-0.6315,-0.5699,-0.541,-0.5413,-0.5453,-0.5445,-0.5451,-0.5575,-0.5657,-0.5688,-0.5688,-0.5688,-0.5688,-0.5688,-0.5688,-0.5688,-0.5688,-0.5688,-0.5688,0.0,0.0,0.0,0.0,0.0,0.0,0.0,0.0,0.0,0.0,0.0,0.0,0.0,0.0,0.0,0.0,0.0,0.0,0.0,0.0,0.0,0.0,0.0,0.0,-0.1592,-0.187,-0.1999,-0.1993,-0.1993,-0.2101,-0.2288,-0.2419,-0.2665,-0.2981,-0.2789,-0.2947,-0.3376,-0.3251,-0.3185,-0.3201,-0.3191,-0.3199,-0.3269,0.0,0.0,0.0,-0.383,-0.3687,0.0,0.0,0.0,0.0,0.0,-0.233,-0.2108,-0.2105,-0.221,-0.2309,0.0,0.0,0.0,0.0,0.0,0.0,0.0,0.0,0.0,0.0,0.0,0.0,0.0,0.0,0.0,0.0,0.0,0.0,0.0,0.0,0.0,0.0,0.0,0.0,0.0,0.0,0.0,0.0,0.0,-0.5018,-0.5018,-0.5018,-0.5018,-0.5018,-0.5124,-0.5181,-0.5181,-0.5339,-0.5402,-0.5402,-0.5402,-0.5402,-0.5402,-0.5405,-0.5405,-0.5405,-0.541,-0.5504,-0.568,-0.5683,-0.5686,-0.5688,-0.5688,-0.5688,-0.5688,-0.5688,-0.5688,-0.5688,0.0,0.0,0.0,0.0,0.0,0.0165,0.0015,0.0048,0.005,0.0,0.0,0.0,0.0,0.0,0.0,0.0,0.0,0.0,0.0,0.0,-0.0151,-0.0487,-0.0892,-0.1261,-0.1592,-0.187,-0.1954,-0.1849,-0.1849,-0.1931,-0.2087,-0.2174,-0.2419,-0.2783,-0.2716,-0.283,-0.3024,-0.2789,-0.3004,-0.346,-0.3175,-0.3379,0.0,0.0,0.0,0.0,0.0,-0.3973,-0.3901,0.0,-0.3576,-0.3357,0.0,-0.2601,-0.2368,-0.2269,-0.2471,-0.2664,-0.2384,0.0,0.0,0.0,0.0,0.0,0.0,0.0,0.0,0.0,0.0,0.0,0.0,0.0,0.0,0.0,0.0,0.0,0.0,0.0,0.0,0.0,0.0,0.0,0.0,0.0,0.0,0.0,-0.5018,-0.5018,-0.5018,-0.5018,-0.5018,-0.5018,-0.5048,-0.5064,-0.5064,-0.5097,-0.5113,-0.5113,-0.5113,-0.5113,-0.5116,-0.52,-0.5238,-0.5241,-0.5372,-0.5448,-0.5477,-0.5521,-0.561,-0.5688,-0.5688,-0.5688,-0.5688,-0.5688,-0.5688,-0.5688,0.0,0.0,0.0,0.0132,0.0251,0.0298,0.0182,0.0208,0.0216,0.0,0.0,0.0,0.0,0.0057,0.0058,0.0,0.0,0.0,0.0,0.0,-0.0084,-0.0286,-0.0655,-0.1025,-0.1377,-0.1689,-0.1843,-0.1891,-0.1891,-0.1902,-0.1924,-0.2017,-0.2195,-0.2441,-0.2441,-0.2555,-0.272,-0.2457,0.0,0.0,-0.3368,0.0,0.0,-0.395,-0.4037,0.0,0.0,0.0,-0.4246,-0.4126,-0.383,0.0,0.0,0.0,0.0,-0.2433,-0.2658,-0.2876,-0.2543,-0.2707,-0.2908,0.0,0.0,0.0,0.0,0.0,0.0,0.0,0.0,0.0,0.0,0.0,0.0,0.0,0.0,0.0,0.0,0.0,0.0,0.0,0.0,0.0,0.0,0.0,0.0,0.0,-0.5018,-0.5018,-0.5018,-0.5018,-0.5018,-0.5018,-0.5018,-0.5018,-0.5018,-0.5018,-0.5018,-0.5018,-0.5018,-0.5018,-0.5021,-0.5086,-0.5116,-0.5121,-0.5192,-0.5249,-0.5339,-0.5368,-0.5456,-0.5613,-0.5613,-0.5645,-0.5688,-0.5688,-0.5688,-0.5688,0.0,0.0,0.0314,0.0298,0.0361,0.0424,0.0407,0.0402,0.0394,0.0,0.026,0.014,0.002,0.0104,0.0126,0.002,0.0,0.0,0.0,0.0,0.0,0.0,-0.0319,-0.0672,-0.1026,-0.1408,-0.171,-0.1937,-0.1983,-0.1941,-0.1822,-0.1946,-0.2033,-0.21,-0.21,-0.2232,-0.2452,-0.2261,0.0,-0.3201,-0.3575,-0.3758,0.0,0.0,-0.4153,0.0,-0.4449,-0.4525,-0.4506,-0.4344,-0.3936,0.0,0.0,0.0,0.0,0.0,-0.2789,-0.2989,-0.2792,-0.2881,-0.3032,0.0,0.0,0.0,-0.3259,-0.3256,0.0,0.0,0.0,0.0,0.0,0.0,0.0,0.0,0.0,0.0,0.0,0.0,0.0,0.0,0.0,0.0,0.0,0.0,-0.4977,-0.4977,-0.4977,-0.4977,-0.4977,-0.4988,-0.4996,-0.4996,-0.501,-0.5018,-0.5018,-0.5018,-0.5018,-0.5018,-0.5018,-0.5018,-0.5018,-0.5018,-0.5018,-0.5018,-0.5018,-0.5075,-0.5167,-0.5167,-0.5311,-0.5489,-0.5489,-0.5561,-0.5669,-0.5669,-0.5677,-0.5688,0.0,0.0374,0.0371,0.0318,0.0446,0.053,0.0408,0.044,0.0424,0.0261,0.0132,0.0022,0.0,0.0023,0.0022,0.0,0.0,0.0,0.0,0.0,0.0,0.0,-0.0319,-0.0538,-0.0622,-0.1258,-0.158,-0.1518,-0.1843,-0.1985,-0.1963,-0.1987,-0.2033,-0.21,-0.21,-0.2124,-0.2205,-0.2582,0.0,-0.304,-0.3134,0.0,-0.42,-0.4246,-0.4382,-0.4588,-0.4638,-0.4654,-0.4621,0.0,-0.4156,-0.3922,0.0,0.0,0.0,0.0,0.0,-0.3255,-0.3018,-0.3129,-0.3265,-0.2976,0.0,0.0,0.0,-0.2934,0.0,0.0,0.0,0.0,0.0,0.0,0.0,0.0,0.0,0.0,0.0,0.0,0.0,0.0,0.0,0.0,0.0,0.0,-0.4761,-0.4761,-0.4761,-0.4761,-0.4761,-0.4817,-0.4831,-0.4831,-0.4928,-0.5018,-0.5018,-0.5018,-0.5018,-0.5018,-0.5018,-0.5018,-0.5018,-0.5018,-0.5018,-0.5018,-0.5018,-0.5029,-0.505,-0.505,-0.5189,-0.5404,-0.5404,-0.548,-0.5543,-0.5543,-0.5605,-0.5688,0.0454,0.0485,0.0492,0.0455,0.0563,0.0598,0.0469,0.0486,0.0445,0.0307,0.0242,0.0148,0.0025,0.005,0.0073,0.0,0.0,0.0,0.0,0.0,0.0,0.0,-0.0168,-0.0336,-0.0504,-0.0856,-0.1207,-0.1507,-0.153,-0.1607,-0.1706,-0.1772,-0.1857,-0.1966,-0.2127,-0.2269,-0.2409,0.0,-0.2827,-0.3027,-0.3318,0.0,-0.43,-0.43,-0.4485,-0.4735,-0.4712,-0.4728,-0.4708,-0.4466,-0.4306,0.0,0.0,-0.367,-0.3582,0.0,-0.3392,-0.3553,0.0,-0.3357,-0.3449,-0.3295,0.0,0.0,0.0,0.0,0.0,0.0,0.0,0.0,0.0,0.0,0.0,0.0,0.0,0.0,0.0,0.0,0.0,0.0,0.0,0.0,0.0,0.0,-0.469,-0.469,-0.469,-0.469,-0.469,-0.4747,-0.4743,-0.4743,-0.4803,-0.4863,-0.4887,-0.4887,-0.4917,-0.5018,-0.5018,-0.5018,-0.5018,-0.5018,-0.5018,-0.5018,-0.5018,-0.5018,-0.5018,-0.5018,-0.5089,-0.52,-0.5254,-0.5352,-0.5461,-0.5461,-0.5499,-0.5551,0.0504,0.055,0.0608,0.0602,0.0654,0.066,0.0564,0.0543,0.0504,0.0451,0.0422,0.0349,0.013,0.0186,0.0212,0.0101,0.0095,0.0066,0.0062,0.0039,0.0018,0.0,0.0,-0.0119,-0.0399,-0.0459,-0.0789,-0.1392,-0.1189,-0.1187,-0.1343,-0.1456,-0.1555,-0.1682,-0.194,-0.2253,-0.2555,0.0,0.0,-0.3144,0.0,-0.3906,-0.4238,-0.4306,-0.442,-0.4492,-0.4331,-0.4407,-0.4565,-0.4372,0.0,-0.3899,-0.3878,-0.3799,0.0,0.0,0.0,0.0,0.0,0.0,0.0,0.0,0.0,-0.3504,0.0,0.0,0.0,-0.3482,0.0,0.0,0.0,0.0,0.0,0.0,0.0,0.0,0.0,0.0,0.0,0.0,0.0,0.0,0.0,0.0,-0.4525,-0.4547,-0.455,-0.4561,-0.4583,-0.4627,-0.4654,-0.4654,-0.4676,-0.4736,-0.4798,-0.48,-0.4822,-0.4944,-0.4944,-0.4955,-0.5018,-0.5018,-0.5018,-0.5018,-0.5018,-0.5018,-0.5018,-0.5018,-0.5018,-0.5026,-0.5118,-0.5227,-0.5375,-0.5375,-0.5391,-0.541,0.0504,0.055,0.0601,0.0593,0.0661,0.0698,0.0679,0.0679,0.0651,0.0574,0.0523,0.0466,0.0435,0.0453,0.0456,0.0449,0.0393,0.0336,0.027,0.0,0.0119,0.0,0.0,-0.0018,-0.0058,-0.0353,-0.0538,-0.0622,-0.0952,-0.1106,-0.1129,-0.1152,-0.1161,-0.1183,-0.1211,-0.156,-0.209,0.0,-0.269,0.0,-0.3011,-0.3283,0.0,-0.433,-0.4081,-0.3487,-0.2945,-0.3263,-0.3866,0.0,-0.3071,-0.2703,0.0,-0.3607,0.0,0.0,0.0,0.0,0.0,0.0,0.0,0.0,-0.3729,0.0,0.0,0.0,-0.3487,-0.3297,0.0,0.0,0.0,0.0,0.0,0.0,0.0,0.0,0.0,0.0,0.0,0.0,0.0,0.0,0.0,0.0,0.0,-0.3976,-0.3984,-0.4032,-0.4172,-0.441,-0.4525,-0.4525,-0.4632,-0.4695,-0.4709,-0.4709,-0.4735,-0.4817,-0.4817,-0.4874,-0.5018,-0.5018,-0.5018,-0.5018,-0.5018,-0.5018,-0.5018,-0.5018,-0.5018,-0.5018,-0.5031,-0.5105,-0.5208,-0.5208,-0.5317,-0.541,0.0504,0.055,0.06,0.0607,0.0658,0.068,0.0604,0.0578,0.0559,0.0483,0.0482,0.0504,0.0514,0.0509,0.0,0.0,0.0,0.0452,0.0,0.0,0.0286,0.0241,0.0162,0.0116,0.0118,-0.0092,-0.0313,-0.0504,-0.0475,-0.0554,-0.0754,-0.0754,-0.0838,-0.0983,-0.1142,-0.1416,-0.1777,0.0,-0.2456,0.0,0.0,0.0,0.0,-0.3096,-0.2977,-0.2727,-0.2551,-0.2737,-0.2989,0.0,-0.251,0.0,0.0,0.0,0.0,0.0,0.0,0.0,0.0,0.0,0.0,0.0,0.0,0.0,0.0,0.0,-0.3468,0.0,0.0,0.0,0.0,0.0,0.0,0.0,0.0,0.0,0.0,0.0,0.0,0.0,0.0,0.0,0.0,0.0,0.0,0.0,0.0,-0.3914,-0.4075,-0.4213,-0.4298,-0.4371,-0.4457,-0.4514,-0.458,-0.4583,-0.4643,-0.473,-0.473,-0.4792,-0.4874,-0.4874,-0.4911,-0.5018,-0.5018,-0.5018,-0.5018,-0.5018,-0.5018,-0.5018,-0.5018,-0.5048,-0.5089,-0.5089,-0.5121,-0.5165,0.0533,0.0568,0.0609,0.0605,0.0652,0.0675,0.0593,0.0586,0.0599,0.0534,0.0582,0.0636,0.0662,0.0664,0.0,0.0,0.0688,0.0651,0.0,0.0,0.0494,0.0433,0.0313,0.0,0.0,0.0116,-0.0073,-0.0309,-0.0096,-0.0124,-0.0363,-0.0357,-0.0466,-0.066,-0.0867,-0.1114,-0.1431,0.0,0.0,-0.2201,-0.2077,-0.1935,-0.1819,-0.1789,-0.2008,-0.2294,-0.1945,-0.1957,-0.214,-0.1903,-0.1765,0.0,-0.1951,0.0,0.0,0.0,0.0,0.0,-0.343,0.0,0.0,0.0,0.0,0.0,0.0,0.0,0.0,0.0,0.0,0.0,0.0,0.0,0.0,0.0,0.0,0.0,0.0,0.0,0.0,0.0,0.0,0.0,0.0,0.0,0.0,0.0,0.0,0.0,-0.4007,-0.408,-0.4159,-0.4246,-0.4284,-0.4341,-0.4457,-0.4457,-0.452,-0.4638,-0.4638,-0.4683,-0.4795,-0.4795,-0.4863,-0.5018,-0.5018,-0.5018,-0.5018,-0.5018,-0.5018,-0.5018,-0.5018,-0.5018,-0.5018,-0.5018,-0.5018,-0.5018,0.06,0.0602,0.0602,0.0602,0.0654,0.0718,0.078,0.0841,0.0893,0.0,0.0,0.0,0.0,0.0,0.0,0.0,0.0,0.1026,0.09,0.0,0.0698,0.0,0.0,0.0388,0.0,0.0,0.0191,0.0182,0.0065,0.0,-0.0017,-0.0016,-0.0017,-0.002,-0.0043,-0.036,-0.0909,-0.08,-0.123,-0.1928,-0.1102,-0.048,-0.015,0.0,-0.1575,-0.2267,-0.0666,0.0,0.0,-0.1182,-0.0643,0.0,0.0,0.0,0.0,0.0,0.0,0.0,0.0,0.0,0.0,-0.2986,0.0,0.0,0.0,0.0,-0.3742,0.0,0.0,0.0,0.0,0.0,-0.3357,-0.3212,-0.3193,0.0,0.0,0.0,0.0,0.0,0.0,0.0,0.0,0.0,0.0,0.0,0.0,0.0,-0.378,-0.3988,-0.4086,-0.4092,-0.4238,-0.4303,-0.4306,-0.4306,-0.4363,-0.4509,-0.4509,-0.4602,-0.4795,-0.4795,-0.4863,-0.5018,-0.5018,-0.5018,-0.5018,-0.5018,-0.5018,-0.5018,-0.5018,-0.5018,-0.5018,-0.5018,-0.5018,-0.5018,0.0664,0.0664,0.0657,0.0,0.0,0.0777,0.0864,0.0873,0.0,0.0,0.0,0.0,0.0,0.0,0.1242,0.0,0.0,0.1144,0.1026,0.0962,0.0,0.0,0.0,0.0598,0.0,0.0,0.0325,0.0342,0.0195,0.0133,0.0131,0.0037,0.0,0.0,0.0,-0.0101,0.0,0.0,0.0,0.0,0.0,-0.0108,0.0194,0.0,0.0,-0.0745,-0.0039,0.0,0.0,-0.0194,0.0077,0.0302,-0.015,-0.0477,-0.0683,-0.0898,-0.1329,0.0,0.0,0.0,-0.2311,-0.2661,0.0,0.0,0.0,0.0,0.0,0.0,0.0,0.0,0.0,0.0,-0.3387,-0.3346,-0.3183,-0.2999,0.0,0.0,0.0,0.0,0.0,0.0,0.0,0.0,0.0,0.0,0.0,0.0,0.0,-0.3909,-0.4003,-0.4083,-0.4238,-0.43,-0.43,-0.43,-0.4319,-0.4357,-0.4357,-0.4439,-0.4594,-0.4594,-0.4703,-0.4858,-0.4858,-0.4903,-0.5018,-0.5018,-0.5018,-0.5018,-0.5018,-0.4659,-0.4265,-0.4818,-0.5018,-0.5018,0.0725,0.0728,0.0,0.0,0.0,0.0,0.0,0.0,0.0,0.0,0.1087,0.0,0.1235,0.0,0.1318,0.0,0.1271,0.1191,0.1158,0.1083,0.0,0.105,0.0899,0.0,0.0,0.0,0.0,0.0463,0.0342,0.0269,0.0262,0.0178,0.0145,0.0135,0.0094,0.0103,0.0116,0.0,-0.0322,0.0,0.0,0.0263,0.0,0.0,0.0353,0.0118,0.0,0.0393,0.0393,0.0393,0.0505,0.0614,0.0614,0.0302,-0.0037,-0.0037,-0.0369,-0.0736,-0.0766,-0.1,0.0,-0.1731,-0.1734,0.0,-0.2772,0.0,0.0,0.0,0.0,0.0,0.0,0.0,-0.3099,-0.2954,-0.3009,-0.2972,0.0,0.0,0.0,0.0,0.0,0.0,0.0,0.0,-0.298,-0.3177,0.0,0.0,0.0,0.0,-0.3928,-0.4016,-0.417,-0.4257,-0.43,-0.43,-0.43,-0.43,-0.43,-0.436,-0.4503,-0.4503,-0.4616,-0.477,-0.4779,-0.4687,-0.4491,-0.4567,-0.4384,-0.4112,-0.4112,-0.3795,-0.3441,-0.4265,-0.4582,-0.4582,0.0,0.0,0.0,0.0,0.0822,0.0,0.0,0.0,0.1085,0.0,0.1177,0.1239,0.13,0.1308,0.132,0.1305,0.1308,0.0,0.1224,0.1217,0.0,0.0,0.1116,0.1086,0.0996,0.0875,0.0,0.0604,0.0467,0.0404,0.0402,0.0404,0.0394,0.0405,0.0258,0.0,0.0395,0.0342,0.0441,0.0623,0.0617,0.0628,0.0628,0.0825,0.0668,0.0353,0.055,0.0628,0.0628,0.0628,0.0628,0.0628,0.0628,0.0618,0.0645,0.0645,0.0645,0.0641,0.0626,0.0186,-0.0299,-0.0285,0.0,0.0,0.0,0.0,-0.1621,0.0,0.0,0.0,0.0,0.0,0.0,-0.2197,-0.2733,-0.3032,0.0,0.0,0.0,0.0,0.0,0.0,0.0,0.0,-0.2835,-0.315,-0.3086,0.0,0.0,0.0,-0.3832,-0.39,-0.4021,-0.4178,-0.43,-0.43,-0.43,-0.43,-0.43,-0.4357,-0.4495,-0.4461,-0.4493,-0.4615,-0.4622,-0.4223,-0.3519,-0.3641,-0.3205,-0.2464,-0.2464,-0.2425,-0.2503,-0.3402,-0.3752,-0.3752,0.0798,0.0832,0.0861,0.0,0.0879,0.0905,0.0,0.0,0.0,0.0,0.1228,0.1302,0.1361,0.1388,0.1395,0.138,0.1379,0.0,0.0,0.0,0.0,0.125,0.1203,0.1125,0.1088,0.1007,0.0,0.0813,0.0635,0.0548,0.0555,0.0444,0.0396,0.0406,0.0,0.0,0.0395,0.0435,0.0583,0.0827,0.1047,0.0982,0.0,0.0,0.1021,0.0746,0.0786,0.0825,0.0825,0.0825,0.0943,0.1139,0.1139,0.1134,0.1129,0.1129,0.1129,0.1127,0.112,0.1006,0.0694,0.0,0.011,0.0036,0.0,0.0,0.0,0.0,0.0,0.0,0.0,0.0,0.0,-0.255,-0.2909,-0.3121,0.0,0.0,0.0,0.0,0.0,0.0,0.0,0.0,-0.2882,-0.2972,0.0,0.0,0.0,0.0,0.0,-0.3897,-0.4021,-0.4178,-0.43,-0.43,-0.43,-0.43,-0.43,-0.4317,-0.4344,-0.3693,-0.3436,-0.3461,-0.2794,-0.2447,-0.2342,-0.2361,-0.2267,-0.2072,-0.2072,-0.1642,-0.1214,-0.2386,-0.2815,-0.2934,0.0864,0.0,0.0,0.0957,0.0,0.0,0.1039,0.0,0.0,0.1234,0.1274,0.0,0.1368,0.1366,0.1383,0.1411,0.141,0.0,0.0,0.0,0.0,0.1319,0.1283,0.1212,0.1181,0.1093,0.0,0.0932,0.0,0.0704,0.0692,0.0573,0.0539,0.0519,0.0,0.0547,0.0,0.0731,0.0879,0.1063,0.1245,0.0,0.0,0.1257,0.1218,0.1061,0.1061,0.1061,0.1061,0.1061,0.1178,0.1296,0.1296,0.1296,0.1296,0.1296,0.1296,0.1296,0.1296,0.1296,0.1175,0.0656,0.0799,0.0821,-0.0108,-0.0144,0.0,0.0,0.0,0.0,0.0,0.0,0.0,0.0,0.0,0.0,0.0,0.0,0.0,0.0,0.0,0.0,0.0,0.0,0.0,0.0,0.0,0.0,0.0,0.0,0.0,-0.3897,-0.397,-0.4089,-0.43,-0.43,-0.43,-0.43,-0.43,-0.4097,-0.3723,-0.3215,-0.2804,-0.2405,-0.1943,-0.156,-0.1302,-0.1334,-0.1163,-0.0822,-0.0822,-0.0509,-0.0157,-0.0862,-0.1409,-0.1879,0.0,0.0,0.0,0.0,0.0,0.0,0.0,0.1167,0.0,0.1301,0.0,0.1317,0.1317,0.1361,0.1391,0.1391,0.0,0.137,0.132,0.1382,0.1371,0.1316,0.1314,0.1298,0.1303,0.1174,0.0,0.0,0.0,0.0,0.0794,0.0735,0.0699,0.0705,0.0,0.0,0.0,0.1051,0.1156,0.0,0.1284,0.1296,0.1296,0.1296,0.1296,0.1296,0.1296,0.1296,0.1296,0.1296,0.1296,0.1296,0.1296,0.1296,0.1296,0.1296,0.1296,0.1296,0.1296,0.1296,0.1296,0.1296,0.1296,0.1243,0.1004,0.0957,0.0951,0.0966,0.0819,0.0766,0.0,0.0,0.0,0.0,0.0,0.0,0.0,0.0,0.0,0.0,0.0,0.0,0.0,0.0,0.0,0.0,0.0,0.0,0.0,0.0,0.0,-0.3873,-0.3895,0.0,-0.4273,0.0,-0.4233,-0.4131,-0.4097,-0.3656,-0.2813,-0.2713,-0.2211,-0.1444,-0.1422,-0.0962,-0.0292,-0.0375,0.0,0.0707,0.0707,0.0707,0.0707,0.0668,0.0078,-0.0705,0.0,0.0,0.0,0.0,0.0,0.1213,0.1263,0.1275,0.1292,0.1286,0.134,0.1375,0.1375,0.1384,0.1391,0.1391,0.1391,0.0,0.0,0.0,0.0,0.1376,0.1374,0.135,0.1296,0.1205,0.1161,0.0,0.0,0.0,0.0798,0.0721,0.0733,0.0782,0.0,0.0,0.0975,0.1053,0.0,0.1215,0.1284,0.1296,0.1296,0.1296,0.1296,0.1296,0.1296,0.1296,0.1296,0.1296,0.1296,0.1296,0.1296,0.1296,0.1296,0.1296,0.1296,0.1296,0.1296,0.1296,0.1296,0.1296,0.1296,0.1293,0.1243,0.1241,0.124,0.1234,0.1148,0.1067,0.0948,0.0,0.0,0.0,0.0,0.0,0.0,0.0,0.0,0.0,0.0,0.0,0.0,0.0,0.0,0.0,0.0,0.0,0.0,0.0,0.0,0.0,-0.3882,0.0,0.0,0.0,-0.3792,-0.3215,-0.3054,-0.2582,-0.181,-0.1107,-0.0671,-0.0472,0.0319,0.0762,0.0914,0.0919,0.1056,0.1178,0.1178,0.1178,0.1139,0.0943,0.0746,0.0432,0.0,0.0,0.0,0.0,0.0,0.0,0.0,0.1398,0.0,0.1352,0.1374,0.1391,0.1391,0.1418,0.1436,0.1436,0.1468,0.1459,0.1459,0.1399,0.1384,0.1414,0.1398,0.0,0.1348,0.1299,0.1213,0.1099,0.0,0.0,0.0806,0.0763,0.0775,0.0791,0.0,0.0921,0.0,0.0,0.0,0.1215,0.1284,0.1296,0.1296,0.1296,0.1296,0.1296,0.1296,0.1296,0.1296,0.1296,0.1296,0.1296,0.1296,0.1296,0.1296,0.1296,0.1296,0.1296,0.1296,0.1296,0.1296,0.1296,0.1296,0.1296,0.1296,0.1296,0.1296,0.1296,0.1246,0.1112,0.0883,0.0513,0.0,0.0,0.0,0.0,0.0,0.0,0.0,0.0,0.0,0.0,0.0,0.0,0.0,0.0,0.0,0.0,0.0,0.0,0.0,0.0,0.0,0.0,0.0,0.0,0.0,-0.285,-0.2347,-0.171,-0.0906,-0.0504,-0.0034,0.0438,0.0933,0.1172,0.1208,0.1271,0.1296,0.1296,0.1296,0.1296,0.1296,0.1139,0.1021,0.0786,0.0,0.1189,0.0,0.0,0.1332,0.0,0.1393,0.1497,0.1516,0.1416,0.1409,0.1409,0.1409,0.1451,0.1478,0.1478,0.1504,0.1491,0.1491,0.1462,0.14,0.14,0.1416,0.1397,0.139,0.135,0.1222,0.0,0.0,0.0,0.0,0.0815,0.0805,0.0,0.0,0.0,0.0,0.0,0.1175,0.1234,0.1264,0.1317,0.1317,0.1317,0.1317,0.1317,0.1317,0.1317,0.1315,0.1309,0.1302,0.1296,0.1296,0.1296,0.1296,0.1296,0.1296,0.1296,0.1296,0.1296,0.1296,0.1296,0.1296,0.1296,0.1296,0.1296,0.1295,0.1288,0.1236,0.1096,0.0885,0.086,0.0,0.0,0.0,0.0,0.0,0.0,0.0,0.0,0.0,0.0,0.0,0.0,0.0,0.0,0.0,0.0,-0.2812,-0.2995,0.0,0.0,0.0,-0.3456,-0.3502,0.0,-0.2316,0.0,-0.1543,-0.0805,0.0,0.0,0.0403,0.1109,0.1116,0.1155,0.1217,0.1274,0.1296,0.1296,0.1296,0.1296,0.1296,0.1296,0.1178,0.0982,0.0,0.0,0.0,0.0,0.0,0.0,0.0,0.1528,0.1555,0.1522,0.147,0.147,0.147,0.1475,0.1478,0.1478,0.1523,0.1522,0.1522,0.1493,0.1476,0.1476,0.1447,0.1418,0.1391,0.133,0.1254,0.0,0.0,0.0,0.0,0.0,0.0,0.0,0.0,0.0,0.0,0.1177,0.1239,0.1296,0.1286,0.1298,0.1298,0.1298,0.1298,0.1298,0.1298,0.1298,0.1294,0.1307,0.132,0.1296,0.1296,0.1296,0.1296,0.1296,0.1296,0.1296,0.1296,0.1296,0.1296,0.1296,0.1296,0.1296,0.1296,0.1296,0.1288,0.1221,0.1168,0.1072,0.1012,0.102,0.1017,0.0,0.0,0.0,0.0,0.0,0.0,0.0,0.0,0.0,0.0,0.0,0.0,0.0,0.0,0.0,-0.2539,-0.2732,-0.2948,-0.3163,0.0,-0.2525,-0.253,-0.1794,-0.114,-0.0538,-0.0269,0.0235,0.0975,0.0975,0.1008,0.1111,0.1105,0.1151,0.121,0.1282,0.1296,0.1296,0.1296,0.1296,0.1296,0.1296,0.1296,0.1257,0.0,0.0,0.0,0.0,0.0,0.0,0.0,0.1583,0.1594,0.1582,0.1581,0.1581,0.1581,0.1581,0.1581,0.1581,0.1564,0.1553,0.1553,0.1525,0.1508,0.1508,0.1479,0.1457,0.1444,0.1386,0.1311,0.0,0.0,0.0,0.0,0.0,0.0,0.0,0.0,0.1171,0.1206,0.1248,0.129,0.1289,0.1301,0.1305,0.1305,0.1305,0.1305,0.1305,0.1305,0.1305,0.1304,0.1292,0.128,0.1305,0.1308,0.131,0.1281,0.1302,0.1296,0.1296,0.1296,0.1296,0.1296,0.1296,0.1296,0.1296,0.1296,0.1296,0.1288,0.1218,0.1163,0.1108,0.1067,0.1054,0.1048,0.0,0.0,0.0,0.0,0.0,0.0,0.0,0.0,0.0,0.0,0.0,0.0,0.0,0.0,0.0,0.0,-0.2221,0.0,-0.2487,0.0,-0.1691,-0.1691,-0.0913,-0.0369,-0.0101,0.0403,0.0807,0.1109,0.1109,0.1109,0.1112,0.1127,0.1162,0.1188,0.1276,0.1296,0.1296,0.1296,0.1296,0.1296,0.1296,0.1296,0.1296,0.1474,0.0,0.1466,0.0,0.1535,0.1543,0.1607,0.1617,0.1617,0.1617,0.1617,0.1617,0.1617,0.1617,0.1617,0.1617,0.1597,0.1585,0.1585,0.1556,0.1539,0.1539,0.151,0.0,0.1494,0.1434,0.1368,0.1337,0.1265,0.0,0.0,0.0,0.0,0.0,0.1206,0.126,0.1312,0.1311,0.1341,0.1319,0.1327,0.1331,0.1331,0.1331,0.1331,0.1331,0.1331,0.1331,0.1329,0.1321,0.1323,0.132,0.1303,0.1299,0.131,0.1319,0.131,0.1308,0.1299,0.1296,0.1296,0.1296,0.1296,0.1296,0.1296,0.1296,0.1285,0.1206,0.115,0.1101,0.1113,0.1059,0.105,0.1061,0.0,0.0,0.0,0.0,0.0,0.0,0.0,0.0728,0.0341,0.0,0.0,0.0,0.0,0.0,0.0,0.0,0.0,0.0,0.0,0.0,0.0,-0.0066,0.0336,0.0336,0.084,0.1109,0.1109,0.1109,0.1114,0.1092,0.118,0.1208,0.1221,0.1274,0.1296,0.1296,0.1296,0.1296,0.1296,0.1296,0.1296,0.1296,0.1564,0.1618,0.1579,0.161,0.1615,0.1615,0.1617,0.1617,0.1617,0.1617,0.1617,0.1617,0.1617,0.1617,0.1617,0.1617,0.1616,0.1616,0.1616,0.1588,0.162,0.0,0.0,0.1478,0.1478,0.142,0.142,0.1388,0.0,0.0,0.1209,0.0,0.1181,0.1211,0.1281,0.1313,0.1306,0.1364,0.1389,0.1392,0.1377,0.1389,0.1389,0.1389,0.1389,0.1389,0.1389,0.1389,0.1385,0.1399,0.141,0.1379,0.1323,0.1305,0.13,0.1311,0.1302,0.1296,0.1305,0.1296,0.1296,0.1296,0.1296,0.1296,0.1296,0.1296,0.1279,0.1216,0.1153,0.1109,0.1109,0.1109,0.1066,0.1006,0.0,0.0,0.0,0.0,0.0,0.0,0.0,0.0808,0.0782,0.0,0.0,0.0,0.0,0.0,0.0,0.0,0.0,-0.0905,-0.0272,0.0,0.0096,0.0762,0.1076,0.1076,0.1109,0.1109,0.1109,0.1109,0.1092,0.1087,0.1153,0.1183,0.1213,0.1284,0.1296,0.1296,0.1296,0.1296,0.1296,0.1296,0.1296,0.1296,0.16,0.1603,0.1605,0.1615,0.1617,0.1617,0.1617,0.1617,0.1617,0.1617,0.1617,0.1617,0.1617,0.1617,0.1617,0.0,0.1617,0.1617,0.0,0.1608,0.1603,0.1603,0.1573,0.1557,0.1557,0.1517,0.1483,0.1452,0.0,0.0,0.0,0.1264,0.1286,0.1334,0.1343,0.1365,0.1351,0.1413,0.1421,0.1422,0.1387,0.1391,0.1391,0.1391,0.1391,0.1391,0.1391,0.1391,0.1389,0.1379,0.1383,0.1387,0.1369,0.135,0.1371,0.13,0.1319,0.1301,0.1291,0.1312,0.1296,0.1296,0.1296,0.1296,0.1296,0.1263,0.1227,0.1207,0.1153,0.1109,0.1109,0.1109,0.1106,0.1064,0.1021,0.0,0.0,0.0,0.0,0.0,0.0,0.0868,0.0,0.0712,0.0,0.0,0.0,0.0,0.0,0.0,0.0,0.0,0.042,0.0,0.071,0.0962,0.1109,0.1109,0.1109,0.1109,0.1109,0.1109,0.1093,0.1088,0.1153,0.1183,0.1214,0.1284,0.1296,0.1296,0.1296,0.1296,0.1296,0.1296,0.1296,0.1296,0.1768,0.1768,0.1718,0.1617,0.1617,0.1617,0.1617,0.1617,0.1617,0.1617,0.1617,0.1617,0.1617,0.1617,0.0,0.1617,0.1617,0.1617,0.1617,0.1617,0.1617,0.1617,0.1598,0.1589,0.1589,0.0,0.0,0.1515,0.1466,0.1423,0.1386,0.1386,0.1406,0.144,0.1429,0.1435,0.1453,0.1453,0.1453,0.1453,0.1419,0.1417,0.1453,0.1453,0.14,0.1391,0.1391,0.1391,0.1391,0.1391,0.1391,0.1391,0.1391,0.1378,0.1401,0.1329,0.135,0.1331,0.1309,0.1288,0.1311,0.1299,0.1296,0.1296,0.1296,0.1257,0.1217,0.1206,0.1162,0.1089,0.1111,0.1109,0.1106,0.1061,0.102,0.0984,0.0973,0.0,0.0,0.0,0.0,0.0,0.0,0.0856,0.0,0.0,0.0,0.0,0.0,0.0,0.0,0.0494,0.0827,0.0,0.1049,0.1067,0.1109,0.1109,0.1109,0.1109,0.1109,0.1087,0.1109,0.114,0.117,0.12,0.123,0.1288,0.1296,0.1296,0.1296,0.1296,0.1296,0.1296,0.1296,0.1296,0.2272,0.2273,0.0,0.0,0.1768,0.0,0.1617,0.1617,0.1617,0.1617,0.1617,0.1617,0.1617,0.1617,0.1617,0.1617,0.0,0.0,0.0,0.1617,0.1617,0.1617,0.1617,0.1617,0.1617,0.159,0.1623,0.162,0.1543,0.1528,0.1478,0.1478,0.1478,0.1477,0.1496,0.1484,0.1484,0.1484,0.1484,0.1486,0.1515,0.1509,0.1484,0.153,0.1466,0.1441,0.1439,0.1438,0.1438,0.1436,0.1436,0.1436,0.1436,0.1436,0.1429,0.1401,0.1392,0.1378,0.1324,0.1306,0.1296,0.1307,0.1298,0.1296,0.1296,0.1234,0.1204,0.1212,0.1144,0.1112,0.1084,0.1111,0.1067,0.1006,0.1008,0.0977,0.0917,0.0,0.0,0.0,0.0,0.0,0.0,0.0912,0.0889,0.0,0.0,0.0,0.0,0.0,0.0931,0.0986,0.0986,0.1047,0.1109,0.1109,0.1109,0.1109,0.1111,0.1113,0.1113,0.111,0.1141,0.1208,0.12,0.1229,0.1296,0.1296,0.1296,0.1296,0.1296,0.1296,0.1296,0.1296,0.1296,0.1296,0.0,0.0,0.4475,0.3574,0.3272,0.2871,0.2021,0.1718,0.1617,0.1617,0.1617,0.1617,0.1617,0.1617,0.1617,0.1617,0.1617,0.1617,0.1617,0.1617,0.1617,0.1617,0.1617,0.1617,0.1617,0.161,0.1595,0.162,0.1564,0.1549,0.1478,0.1478,0.1478,0.1478,0.1519,0.1515,0.1515,0.1515,0.1515,0.1516,0.1523,0.1522,0.1515,0.1705,0.1794,0.1784,0.1941,0.2021,0.2017,0.203,0.2019,0.2019,0.2019,0.2019,0.1928,0.1516,0.1408,0.1386,0.1373,0.1337,0.1301,0.1294,0.1314,0.1296,0.1296,0.1234,0.121,0.1202,0.1158,0.1084,0.1112,0.1091,0.1067,0.1006,0.1008,0.0977,0.0917,0.0888,0.0,0.0,0.0889,0.09,0.0893,0.0899,0.09,0.0,0.0,0.0,0.0,0.0939,0.099,0.0988,0.0986,0.1047,0.1109,0.1109,0.1109,0.1109,0.1099,0.111,0.1111,0.1142,0.1172,0.1201,0.1209,0.1229,0.1296,0.1296,0.1296,0.1296,0.1296,0.1296,0.1296,0.1296,0.1296,0.1296,0.5777,0.5777,0.5575,0.4874,0.4622,0.4323,0.3726,0.3525,0.3423,0.3423,0.2871,0.252,0.252,0.1969,0.1617,0.1617,0.1617,0.1617,0.1617,0.1617,0.1617,0.1617,0.1617,0.1617,0.1617,0.1617,0.1609,0.1592,0.1592,0.1583,0.1568,0.1568,0.1568,0.1567,0.165,0.1643,0.1547,0.1787,0.1836,0.1741,0.1853,0.1899,0.1932,0.2077,0.2114,0.2096,0.2215,0.2253,0.2246,0.2201,0.2184,0.2181,0.2206,0.2199,0.2154,0.1839,0.178,0.176,0.1612,0.1538,0.1503,0.135,0.129,0.1314,0.13,0.1283,0.1228,0.1215,0.1185,0.1118,0.1091,0.1108,0.1078,0.1022,0.0999,0.0973,0.0899,0.0908,0.0,0.0888,0.0903,0.0919,0.0932,0.0933,0.0933,0.0933,0.0,0.0,0.0934,0.102,0.1039,0.101,0.1037,0.106,0.1109,0.1109,0.1109,0.1109,0.1106,0.1086,0.1088,0.1167,0.1196,0.1213,0.1226,0.1281,0.1296,0.1296,0.1296,0.1296,0.1296,0.1296,0.1296,0.1296,0.1296,0.1296,0.6578,0.6528,0.6426,0.6024,0.5922,0.5872,0.5675,0.5625,0.5622,0.5622,0.4622,0.382,0.3671,0.2621,0.1869,0.1667,0.1667,0.1667,0.1617,0.1617,0.1617,0.1617,0.1617,0.1617,0.1617,0.1617,0.1667,0.1667,0.1718,0.1717,0.1717,0.1717,0.1717,0.1716,0.1937,0.1923,0.1775,0.2217,0.2267,0.2074,0.2306,0.2398,0.2412,0.2463,0.2438,0.2357,0.2399,0.2444,0.2388,0.234,0.2324,0.2317,0.2314,0.2299,0.2298,0.2291,0.2289,0.2235,0.1931,0.1873,0.1763,0.1441,0.1343,0.1335,0.1304,0.1296,0.1289,0.1224,0.1215,0.1195,0.1138,0.1124,0.1126,0.1003,0.1019,0.0997,0.0906,0.0,0.0914,0.0911,0.0921,0.0936,0.0992,0.0995,0.0997,0.1001,0.1021,0.0992,0.0,0.1082,0.1065,0.1008,0.1063,0.1109,0.1109,0.1109,0.1109,0.1109,0.1111,0.1128,0.113,0.1191,0.1219,0.122,0.1285,0.1296,0.1296,0.1296,0.1296,0.1296,0.1296,0.1296,0.1296,0.1296,0.1296,0.1296,0.9027,0.9027,0.8726,0.7773,0.7419,0.6968,0.6077,0.5724,0.5622,0.5622,0.5422,0.4922,0.4024,0.3775,0.3173,0.2021,0.1921,0.1819,0.1617,0.1617,0.1617,0.1617,0.1617,0.1617,0.1617,0.1819,0.1921,0.1921,0.217,0.227,0.227,0.227,0.227,0.227,0.2314,0.2311,0.2261,0.236,0.236,0.2361,0.2368,0.2417,0.241,0.2662,0.2708,0.2746,0.2899,0.2979,0.2971,0.2961,0.2941,0.293,0.2871,0.2898,0.2843,0.2797,0.2784,0.2691,0.228,0.2115,0.1979,0.1688,0.1629,0.1578,0.1343,0.1296,0.1295,0.1291,0.123,0.1201,0.1202,0.1281,0.1263,0.1034,0.1143,0.1179,0.0934,0.0,0.0908,0.0913,0.0957,0.0989,0.0994,0.0994,0.1037,0.1093,0.1044,0.101,0.1094,0.1104,0.1107,0.1069,0.1106,0.1109,0.1109,0.1109,0.1109,0.111,0.1168,0.1196,0.1198,0.126,0.1289,0.129,0.1294,0.1296,0.1296,0.1296,0.1296,0.1296,0.1296,0.1296,0.1296,0.1296,0.1296,0.1296,0.9579,0.9579,0.9426,0.8924,0.8772,0.852,0.8024,0.7822,0.7773,0.7773,0.712,0.6468,0.5969,0.5272,0.4375,0.3175,0.3075,0.2773,0.207,0.1768,0.1617,0.1617,0.1617,0.1617,0.1617,0.1869,0.2022,0.2022,0.2271,0.2422,0.2422,0.2422,0.2422,0.2422,0.3175,0.3374,0.3324,0.4175,0.4475,0.4377,0.4475,0.4574,0.4574,0.4676,0.4379,0.3877,0.3993,0.3634,0.313,0.3119,0.3098,0.3087,0.3073,0.3032,0.3,0.2974,0.2807,0.2649,0.2424,0.2273,0.2107,0.1956,0.1881,0.1812,0.169,0.1665,0.1611,0.1493,0.1441,0.1419,0.1384,0.1385,0.1408,0.137,0.142,0.0,0.0,0.1239,0.1245,0.1266,0.13,0.1266,0.1186,0.1156,0.1128,0.1108,0.1064,0.1062,0.1109,0.1109,0.1109,0.1109,0.1109,0.1109,0.1109,0.1109,0.1084,0.1101,0.1181,0.1212,0.1192,0.1276,0.1296,0.1296,0.1296,0.1296,0.1296,0.1296,0.1296,0.1296,0.1296,0.1296,0.1296,0.1296,0.1296,0.1296,0.9579,0.9579,0.9579,0.9579,0.9579,0.9579,0.9579,0.9579,0.9579,0.9579,0.8718,0.7968,0.7717,0.6769,0.5724,0.4576,0.4225,0.3725,0.2822,0.217,0.1768,0.1768,0.1768,0.1768,0.1718,0.2021,0.2172,0.2172,0.2473,0.2573,0.2573,0.2823,0.2975,0.3025,0.4277,0.4726,0.4624,0.5874,0.6274,0.6126,0.6323,0.6423,0.6423,0.6423,0.5877,0.5181,0.5181,0.4483,0.3574,0.3521,0.3307,0.3101,0.309,0.3086,0.3041,0.3012,0.2826,0.2648,0.2871,0.2648,0.2456,0.2749,0.2604,0.238,0.2325,0.2234,0.2081,0.1729,0.165,0.1638,0.1598,0.1565,0.1599,0.1677,0.0,0.0,0.0,0.1541,0.1538,0.1607,0.1588,0.1543,0.1375,0.1379,0.1311,0.121,0.1176,0.1143,0.1143,0.1143,0.1143,0.1143,0.1109,0.1109,0.1109,0.1116,0.1098,0.1086,0.1159,0.1189,0.1213,0.1282,0.1296,0.1296,0.1296,0.1296,0.1296,0.1296,0.1296,0.1296,0.1296,0.1296,0.1296,0.1296,0.1296,0.1296,0.9579,0.9579,0.9579,0.9579,0.9579,0.9579,0.9579,0.9579,0.9579,0.9579,0.9525,0.9072,0.8074,0.7872,0.7273,0.5979,0.4929,0.4227,0.3924,0.2923,0.2321,0.2321,0.2321,0.2221,0.1971,0.2474,0.2725,0.2725,0.3027,0.313,0.318,0.4182,0.4634,0.4684,0.5777,0.6224,0.6224,0.6373,0.6373,0.6373,0.6373,0.6423,0.6423,0.6423,0.6373,0.6274,0.6274,0.5579,0.4682,0.4676,0.4024,0.3162,0.3103,0.3081,0.3104,0.3037,0.2918,0.3053,0.3942,0.3542,0.3213,0.4699,0.4257,0.3458,0.3338,0.3144,0.2782,0.2043,0.1887,0.1873,0.1789,0.193,0.1956,0.1743,0.0,0.0,0.1557,0.1548,0.1607,0.161,0.1616,0.161,0.158,0.158,0.158,0.158,0.1379,0.1277,0.1277,0.1277,0.1277,0.1277,0.1176,0.1109,0.1109,0.1104,0.1084,0.1087,0.1181,0.121,0.1213,0.1282,0.1296,0.1296,0.1296,0.1296,0.1296,0.1296,0.1296,0.1296,0.1296,0.1296,0.1296,0.1296,0.1296,0.1296,0.9579,0.9579,0.9579,0.9579,0.9579,0.9579,0.9579,0.9579,0.9579,0.9579,0.9579,0.9426,0.9027,0.8977,0.8524,0.7325,0.6874,0.6326,0.5525,0.5125,0.4124,0.2471,0.2422,0.2371,0.2271,0.2624,0.3127,0.3778,0.4081,0.4531,0.5179,0.5577,0.5777,0.5827,0.6924,0.7372,0.7422,0.8124,0.8372,0.8372,0.8372,0.8372,0.8372,0.8372,0.7971,0.7372,0.7372,0.6725,0.5777,0.5777,0.5527,0.517,0.5135,0.5132,0.4953,0.4202,0.3994,0.414,0.4938,0.4476,0.4069,0.5266,0.5211,0.48,0.4651,0.4144,0.3665,0.3649,0.2821,0.2231,0.2712,0.241,0.2113,0.2193,0.0,0.212,0.2075,0.2029,0.2023,0.2023,0.204,0.197,0.1867,0.1864,0.1782,0.1616,0.1513,0.148,0.148,0.148,0.148,0.148,0.1446,0.1322,0.1104,0.1115,0.1104,0.1177,0.12,0.1221,0.1279,0.1291,0.1296,0.1296,0.1296,0.1296,0.1296,0.1296,0.1296,0.1296,0.1296,0.1296,0.1296,0.1296,0.1375,0.1493,0.9579,0.9579,0.9579,0.9579,0.9579,0.9579,0.9579,0.9579,0.9579,0.9579,0.9579,0.9579,0.9579,0.9579,0.9327,0.8574,0.8173,0.7673,0.6971,0.6573,0.5375,0.3124,0.3126,0.3126,0.3024,0.3627,0.4277,0.5029,0.5231,0.5679,0.6423,0.6722,0.6921,0.6971,0.8024,0.8524,0.8574,0.9278,0.9579,0.9579,0.9579,0.9579,0.9579,0.9579,0.9126,0.8524,0.8524,0.7822,0.6921,0.6921,0.6672,0.6423,0.6423,0.6344,0.6125,0.535,0.5074,0.5235,0.602,0.5702,0.5408,0.6387,0.6328,0.5986,0.5936,0.5361,0.4874,0.4881,0.3992,0.3317,0.3802,0.3209,0.2686,0.2865,0.2791,0.2665,0.239,0.2579,0.2625,0.2335,0.2299,0.2247,0.2099,0.2079,0.1983,0.1809,0.1723,0.1689,0.1737,0.167,0.1676,0.176,0.1691,0.1539,0.1329,0.1246,0.1234,0.1288,0.1298,0.1314,0.1296,0.1375,0.1375,0.1296,0.1375,0.1375,0.1296,0.1454,0.1454,0.1415,0.1454,0.1493,0.1493,0.1493,0.1572,0.169,0.9579,0.9579,0.9579,0.9579,0.9579,0.9579,0.9579,0.9579,0.9579,0.9579,0.9579,0.9579,0.9579,0.9579,0.9579,0.9579,0.8623,0.8021,0.8021,0.7021,0.5824,0.4479,0.4682,0.4682,0.4429,0.5724,0.6423,0.6423,0.6423,0.6423,0.6473,0.7521,0.8021,0.8071,0.9126,0.9579,0.9579,0.9579,0.9579,0.9579,0.9579,0.9579,0.9579,0.9579,0.9579,0.9579,0.9579,0.8924,0.8021,0.8021,0.7322,0.6423,0.6423,0.6396,0.6306,0.6303,0.6178,0.6213,0.7125,0.7251,0.7363,0.8344,0.7773,0.6915,0.7001,0.6881,0.6521,0.5523,0.5296,0.526,0.5065,0.4338,0.3803,0.3718,0.3703,0.3373,0.2454,0.306,0.3277,0.2409,0.2337,0.2337,0.2337,0.2245,0.221,0.221,0.2052,0.1942,0.2031,0.1824,0.1846,0.2114,0.1933,0.1809,0.1818,0.1551,0.1441,0.1516,0.1593,0.1493,0.1335,0.1533,0.1493,0.1335,0.1533,0.1493,0.1336,0.1729,0.1807,0.165,0.1808,0.1887,0.1887,0.1887,0.1887,0.1887,0.9579,0.9579,0.9579,0.9579,0.9579,0.9579,0.9579,0.9579,0.9579,0.9579,0.9579,0.9579,0.9579,0.9579,0.9579,0.9579,0.9327,0.9126,0.9126,0.8124,0.7322,0.6924,0.6276,0.5877,0.5824,0.6174,0.6772,0.7521,0.7521,0.7922,0.8673,0.8973,0.9126,0.9126,0.9476,0.9579,0.9579,0.9579,0.9579,0.9579,0.9579,0.9579,0.9579,0.9579,0.9579,0.9579,0.9579,0.9377,0.9126,0.9126,0.8924,0.8623,0.8623,0.8643,0.8434,0.7637,0.7398,0.7335,0.7411,0.7368,0.7538,0.8372,0.8348,0.8056,0.7932,0.7392,0.6972,0.7144,0.6165,0.5445,0.5973,0.5294,0.4642,0.4609,0.4604,0.4517,0.4218,0.4404,0.448,0.4213,0.4213,0.4183,0.411,0.4112,0.4062,0.4025,0.3954,0.3949,0.3982,0.3911,0.3925,0.3993,0.3921,0.3933,0.396,0.2439,0.2009,0.2636,0.2656,0.2626,0.2586,0.3246,0.3209,0.2585,0.3287,0.3519,0.3441,0.2937,0.2704,0.2586,0.2081,0.1887,0.1887,0.1887,0.2003,0.2119,0.9579,0.9579,0.9579,0.9579,0.9579,0.9579,0.9579,0.9579,0.9579,0.9579,0.9579,0.9579,0.9579,0.9579,0.9579,0.9579,0.9579,0.9579,0.9579,0.8977,0.8623,0.8623,0.8021,0.7471,0.7021,0.7471,0.7971,0.8623,0.8623,0.8973,0.9579,0.9579,0.9579,0.9579,0.9579,0.9579,0.9579,0.9579,0.9579,0.9579,0.9579,0.9579,0.9579,0.9579,0.9579,0.9579,0.9579,0.9579,0.9579,0.9579,0.9579,0.9579,0.9579,0.9579,0.9456,0.8754,0.8527,0.8435,0.8239,0.8092,0.8065,0.8556,0.8617,0.858,0.8426,0.8009,0.7741,0.8032,0.7244,0.6603,0.6936,0.6238,0.5569,0.5476,0.5467,0.5351,0.504,0.5273,0.5351,0.504,0.5004,0.4974,0.4939,0.4925,0.4884,0.4795,0.4784,0.4806,0.482,0.4823,0.4845,0.4895,0.4895,0.4894,0.4931,0.3675,0.328,0.3715,0.3715,0.3677,0.3636,0.4258,0.4178,0.3636,0.4258,0.4489,0.4373,0.3988,0.3793,0.3677,0.329,0.3136,0.3096,0.2784,0.2743,0.2781,0.9579,0.9579,0.9579,0.9579,0.9579,0.9579,0.9579,0.9579,0.9579,0.9579,0.9579,0.9579,0.9579,0.9579,0.9579,0.9579,0.9579,0.9579,0.9579,0.9579,0.9579,0.9579,0.9579,0.9126,0.8173,0.9126,0.9579,0.9579,0.9579,0.9579,0.9579,0.9579,0.9579,0.9579,0.9579,0.9579,0.9579,0.9579,0.9579,0.9579,0.9579,0.9579,0.9579,0.9579,0.9579,0.9579,0.9579,0.9579,0.9579,0.9579,0.9579,0.9579,0.9579,0.9579,0.9579,0.9579,0.951,0.9424,0.9408,0.9116,0.8861,0.8828,0.8706,0.8629,0.8616,0.8612,0.8563,0.8349,0.83,0.8191,0.7906,0.7177,0.6546,0.6362,0.6328,0.6047,0.5312,0.5854,0.6047,0.5312,0.5234,0.5234,0.5234,0.517,0.509,0.5044,0.5035,0.5051,0.5133,0.5139,0.5153,0.5231,0.5234,0.5234,0.5234,0.5234,0.5079,0.4841,0.4841,0.4724,0.4567,0.4841,0.4802,0.4567,0.4841,0.4841,0.4683,0.5002,0.5002,0.4844,0.4963,0.5004,0.4924,0.4183,0.3908,0.3793,0.9579,0.9579,0.9579,0.9579,0.9579,0.9579,0.9579,0.9579,0.9579,0.9579,0.9579,0.9579,0.9579,0.9579,0.9579,0.9579,0.9579,0.9579,0.9579,0.9579,0.9579,0.9579,0.9579,0.9476,0.9274,0.9476,0.9579,0.9579,0.9579,0.9579,0.9579,0.9579,0.9579,0.9579,0.9579,0.9579,0.9579,0.9579,0.9579,0.9579,0.9579,0.9579,0.9579,0.9579,0.9579,0.9579,0.9579,0.9579,0.9579,0.9579,0.9579,0.9579,0.9579,0.9579,0.9579,0.9579,0.96,0.9539,0.9441,0.9343,0.9169,0.8889,0.8792,0.8731,0.8641,0.8612,0.86,0.8559,0.8394,0.8268,0.8191,0.7825,0.7505,0.7466,0.7301,0.7173,0.6976,0.7096,0.7173,0.6976,0.6942,0.6942,0.6942,0.6946,0.6946,0.6912,0.6908,0.6923,0.692,0.6923,0.6938,0.6976,0.6942,0.6942,0.6942,0.6942,0.6591,0.589,0.589,0.5851,0.5851,0.6549,0.6511,0.5851,0.6588,0.6861,0.678,0.6202,0.5931,0.5812,0.5234,0.5004,0.4963,0.4807,0.473,0.4613,0.9734,0.975,0.9726,0.9595,0.9697,0.9721,0.9591,0.9579,0.9579,0.9579,0.9579,0.9579,0.9579,0.9701,0.975,0.975,0.9673,0.9579,0.9579,0.9579,0.9579,0.9579,0.9579,0.9579,0.9579,0.9579,0.9579,0.9579,0.9579,0.9579,0.9579,0.9579,0.9579,0.9579,0.9579,0.9579,0.9579,0.9579,0.9579,0.9579,0.9579,0.9579,0.9579,0.9579,0.9579,0.9579,0.9579,0.9579,0.9579,0.9579,0.9579,0.9579,0.9579,0.9579,0.9579,0.9579,0.9579,0.9608,0.951,0.9469,0.9359,0.912,0.8946,0.8775,0.8649,0.8612,0.8612,0.8612,0.8535,0.8394,0.8308,0.8138,0.8,0.7829,0.7718,0.762,0.7496,0.7484,0.7484,0.7484,0.7484,0.7484,0.7484,0.7484,0.7484,0.7484,0.7484,0.7484,0.7484,0.7484,0.7484,0.7484,0.7484,0.7484,0.7484,0.7484,0.7288,0.6822,0.6822,0.6822,0.6822,0.7288,0.7249,0.6861,0.7288,0.7484,0.7484,0.7019,0.6822,0.6784,0.6356,0.6205,0.6128,0.5738,0.5315,0.4927,0.9904,0.9933,0.9888,0.9742,0.9839,0.9884,0.9742,0.9721,0.9721,0.9721,0.9721,0.9721,0.9721,0.9847,0.9933,0.9933,0.9774,0.9673,0.9673,0.9595,0.9579,0.9579,0.9579,0.9579,0.9579,0.9579,0.9579,0.9579,0.9579,0.9579,0.9579,0.9579,0.9579,0.9579,0.9579,0.9579,0.9579,0.9579,0.9579,0.9579,0.9579,0.9579,0.9579,0.9579,0.9579,0.9579,0.9579,0.9579,0.9579,0.9579,0.9579,0.9579,0.9579,0.9579,0.9579,0.9579,0.9579,0.9579,0.9579,0.9514,0.9441,0.9412,0.9108,0.8824,0.8649,0.8633,0.8612,0.8612,0.8612,0.8563,0.8365,0.8312,0.8195,0.7939,0.7841,0.7747,0.7592,0.7539,0.7484,0.7484,0.7484,0.7484,0.7484,0.7484,0.7484,0.7484,0.7484,0.7484,0.7484,0.7484,0.7484,0.7484,0.7484,0.7484,0.7484,0.7484,0.7484,0.7484,0.7484,0.7484,0.7484,0.7484,0.7484,0.7484,0.7484,0.7484,0.7484,0.7484,0.7484,0.7484,0.7484,0.7484,0.7403,0.6707,0.6009,0.5389,1.0171,1.0175,1.0167,1.0147,1.0159,1.0167,1.0147,1.0143,1.0143,1.0143,1.0143,1.0143,1.0143,1.0163,1.0175,1.0175,0.9957,0.9851,0.9851,0.9709,0.9579,0.9579,0.9579,0.9579,0.9579,0.9579,0.9579,0.9579,0.9579,0.9579,0.9579,0.9579,0.9579,0.9579,0.9579,0.9579,0.9579,0.9579,0.9579,0.9579,0.9579,0.9579,0.9579,0.9579,0.9579,0.9579,0.9579,0.9579,0.9579,0.9579,0.9579,0.9579,0.9579,0.9579,0.9579,0.9579,0.9579,0.9579,0.9579,0.9608,0.9551,0.9441,0.9206,0.9011,0.8828,0.8674,0.8612,0.8612,0.8612,0.8604,0.858,0.8398,0.8276,0.8227,0.8004,0.7792,0.7767,0.7624,0.7484,0.7484,0.7484,0.7484,0.7484,0.7484,0.7484,0.7484,0.7484,0.7484,0.7484,0.7484,0.7484,0.7484,0.7484,0.7484,0.7484,0.7484,0.7484,0.7484,0.7484,0.7484,0.7484,0.7484,0.7484,0.7484,0.7484,0.7484,0.7484,0.7484,0.7484,0.7484,0.7484,0.7484,0.7484,0.7365,0.7249,0.7057,1.0294,1.0314,1.0282,1.0233,1.0245,1.0278,1.0228,1.0212,1.0212,1.0212,1.0212,1.0212,1.0212,1.0212,1.0205,1.0306,1.0148,1.0094,1.0094,0.9872,0.977,0.977,0.9681,0.9579,0.9579,0.9579,0.9579,0.9579,0.9579,0.9579,0.9579,0.9579,0.9579,0.9579,0.9579,0.9579,0.9579,0.9579,0.9579,0.9579,0.9579,0.9579,0.9579,0.9579,0.9579,0.9579,0.9579,0.9579,0.9579,0.9579,0.9579,0.9579,0.9579,0.9579,0.9579,0.9579,0.9579,0.9579,0.9579,0.9579,0.9608,0.9527,0.9372,0.9194,0.9015,0.8836,0.8682,0.8629,0.8612,0.8612,0.8612,0.8547,0.841,0.8308,0.8158,0.8029,0.7829,0.7731,0.7641,0.7496,0.7484,0.7484,0.7484,0.7484,0.7484,0.7484,0.7484,0.7484,0.7484,0.7484,0.7484,0.7484,0.7484,0.7484,0.7484,0.7484,0.7484,0.7484,0.7484,0.7484,0.7484,0.7484,0.7484,0.7484,0.7484,0.7484,0.7484,0.7484,0.7484,0.7484,0.7484,0.7484,0.7484,0.7484,0.7484,0.7446]}]]